LiveATC.Net - Listen to live air traffic control over the Internet!
Airport/ARTCC Code
Frequency Search
(e.g., 124.400, 128.75)
Site-wide search
 


Browse Feeds
Top 50 Feeds
HF Oceanic Feeds
Coverage Map
Bad Weather Areas

LiveATC FAQ
Offer LiveATC feed
Contact LiveATC.net
Press Inquiries

LiveATC on iPhone
LiveATC on Android

Windows Phone
Windows 8/10

LiveATC Mobile
(Mobile browser)

ATC Audio Archives
Interesting Recordings

LiveATC Forums

Home Page
About LiveATC.net
Make a Donation
Terms of Use
Privacy Policy

Canadian Air Freqs

AIRMETs/SIGMETs

FAA Airport Status
Nat'l Airspace Status
Arrival Demand Charts


Server Software By:
Icecast.org
Liquidsoap

Select an area of interest:
U.S. Feeds: Class B Airports | Class C Airports | Class D/Other Airports | ARTCC (Centers)
International Feeds: Canada | Europe | Oceania | Asia | South America | North/Central America | Africa
Misc Feeds: HF Feeds
Search by ICAO/IATA airport code:   (e.g., kbos, kjfk, lax, eham, etc.)


Currently Available Live Feeds: 2843
Status Updated: Sun Apr 18 2021 12:39:21 UTC


NOTICE

Unauthorized use prohibited. See LiveATC.net Terms of Service

International Airport Feeds

 

EFKU Tower/Approach (Archives)
Siilinjarvi, Finland

Feed Status: UP
Listen in your browser - HTML5 player(in browser, HTML5)
Click here to listen with your own player(launches your MP3 player)

EFKU 181220Z AUTO 31005KT 280V340 CAVOK 14/M06 Q1032

EFKU Flight Activity (Flightaware)

Listeners: 2 out of 1496 total

Kuopio Approach: 130.600
Kuopio Tower: 120.150

Dutch Mil Radar (Archives)
Amsterdam, Netherlands

Feed Status: UP
Listen in your browser - HTML5 player(in browser, HTML5)
Click here to listen with your own player(launches your MP3 player)

EHLE 181225Z AUTO 34009KT 300V020 9999 NSC 12/03 Q1023 NOSIG

EHLE Flight Activity (Flightaware)

Listeners: 1 out of 1496 total

Dutch Mil Flight Info: 264.325
Dutch Mil Radar: 128.355
Dutch Mil Radar: 132.350

EHAA Radar ARTIP (Archives)
Amsterdam, Netherlands

Feed Status: UP
Listen in your browser - HTML5 player(in browser, HTML5)
Click here to listen with your own player(launches your MP3 player)

EHAM 181225Z 29008KT 250V320 9999 FEW027 13/06 Q1022 NOSIG

EHAM Flight Activity (Flightaware)

Listeners: 3 out of 1496 total

EHAA Radar Sector 1 ARTIP: 120.550

EHAA Radar East Inbound (Archives)
Amsterdam, Netherlands

Feed Status: UP
Listen in your browser - HTML5 player(in browser, HTML5)
Click here to listen with your own player(launches your MP3 player)

EHAM 181225Z 29008KT 250V320 9999 FEW027 13/06 Q1022 NOSIG

EHAM Flight Activity (Flightaware)

Listeners: 0 out of 1496 total

EHAA Radar Sector 2 East Inbound: 128.575

EHAA Radar East Outbound (Archives)
Amsterdam, Netherlands

Feed Status: UP
Listen in your browser - HTML5 player(in browser, HTML5)
Click here to listen with your own player(launches your MP3 player)

EHAM 181225Z 29008KT 250V320 9999 FEW027 13/06 Q1022 NOSIG

EHAM Flight Activity (Flightaware)

Listeners: 2 out of 1496 total

EHAA Radar Sector 2 East Outbound: 124.875

EHAA Radar North (Archives)
Amsterdam, Netherlands

Feed Status: UP
Listen in your browser - HTML5 player(in browser, HTML5)
Click here to listen with your own player(launches your MP3 player)

EHAM 181225Z 29008KT 250V320 9999 FEW027 13/06 Q1022 NOSIG

EHAM Flight Activity (Flightaware)

Listeners: 0 out of 1496 total

EHAA Radar Sector 1 North: 134.375

EHAA Radar Northwest (Archives)
Amsterdam, Netherlands

Feed Status: UP
Listen in your browser - HTML5 player(in browser, HTML5)
Click here to listen with your own player(launches your MP3 player)

EHAM 181225Z 29008KT 250V320 9999 FEW027 13/06 Q1022 NOSIG

EHAM Flight Activity (Flightaware)

Listeners: 0 out of 1496 total

EHAA Radar Sector 5 Northwest: 123.7000

EHAA Radar RIVER (Archives)
Amsterdam, Netherlands

Feed Status: UP
Listen in your browser - HTML5 player(in browser, HTML5)
Click here to listen with your own player(launches your MP3 player)

EHAM 181225Z 29008KT 250V320 9999 FEW027 13/06 Q1022 NOSIG

EHAM Flight Activity (Flightaware)

Listeners: 1 out of 1496 total

EHAA Radar Sector 3 RIVER: 130.950

EHAA Radar South (Archives)
Amsterdam, Netherlands

Feed Status: UP
Listen in your browser - HTML5 player(in browser, HTML5)
Click here to listen with your own player(launches your MP3 player)

EHAM 181225Z 29008KT 250V320 9999 FEW027 13/06 Q1022 NOSIG

EHAM Flight Activity (Flightaware)

Listeners: 0 out of 1496 total

EHAA Radar Sector 3 South: 123.850

EHAA Radar South (Backup) (Archives)
Amsterdam, Netherlands

Feed Status: UP
Listen in your browser - HTML5 player(in browser, HTML5)
Click here to listen with your own player(launches your MP3 player)

EHAM 181225Z 29008KT 250V320 9999 FEW027 13/06 Q1022 NOSIG

EHAM Flight Activity (Flightaware)

Listeners: 0 out of 1496 total

EHAA Radar Sector 3 South Backup : 127.775

EHAA Radar Southwest (Archives)
Amsterdam, Netherlands

Feed Status: UP
Listen in your browser - HTML5 player(in browser, HTML5)
Click here to listen with your own player(launches your MP3 player)

EHAM 181225Z 29008KT 250V320 9999 FEW027 13/06 Q1022 NOSIG

EHAM Flight Activity (Flightaware)

Listeners: 1 out of 1496 total

EHAA Radar Sector 4 Southwest: 125.750

EHAA Radar SUGOL (Archives)
Amsterdam, Netherlands

Feed Status: UP
Listen in your browser - HTML5 player(in browser, HTML5)
Click here to listen with your own player(launches your MP3 player)

EHAM 181225Z 29008KT 250V320 9999 FEW027 13/06 Q1022 NOSIG

EHAM Flight Activity (Flightaware)

Listeners: 0 out of 1496 total

EHAA Radar Sector 5 SUGOL: 118.800

EHAM Airside Ops Mgr (AOM) (Archives)
Amsterdam, Netherlands

Feed Status: UP
Listen in your browser - HTML5 player(in browser, HTML5)
Click here to listen with your own player(launches your MP3 player)

EHAM 181225Z 29008KT 250V320 9999 FEW027 13/06 Q1022 NOSIG

EHAM Flight Activity (Flightaware)

Listeners: 0 out of 1496 total

Schiphol Airside Operations Manager: 130.475

EHAM App/Dep Backup (Archives)
Amsterdam, Netherlands

Feed Status: UP
Listen in your browser - HTML5 player(in browser, HTML5)
Click here to listen with your own player(launches your MP3 player)

EHAM 181225Z 29008KT 250V320 9999 FEW027 13/06 Q1022 NOSIG

EHAM Flight Activity (Flightaware)

Listeners: 0 out of 1496 total

Schiphol App/Dep Backup: 118.075

EHAM App/Dep TMA East (Archives)
Amsterdam, Netherlands

Feed Status: UP
Listen in your browser - HTML5 player(in browser, HTML5)
Click here to listen with your own player(launches your MP3 player)

EHAM 181225Z 29008KT 250V320 9999 FEW027 13/06 Q1022 NOSIG

EHAM Flight Activity (Flightaware)

Listeners: 1 out of 1496 total

Amsterdam Approach/Departure TMA East: 119.055

EHAM App/Dep TMA West (Archives)
Amsterdam, Netherlands

Feed Status: UP
Listen in your browser - HTML5 player(in browser, HTML5)
Click here to listen with your own player(launches your MP3 player)

EHAM 181225Z 29008KT 250V320 9999 FEW027 13/06 Q1022 NOSIG

EHAM Flight Activity (Flightaware)

Listeners: 0 out of 1496 total

Amsterdam Approach/Departure TMA West: 121.200

EHAM Apron (North) (Archives)
Amsterdam, Netherlands

Feed Status: UP
Listen in your browser - HTML5 player(in browser, HTML5)
Click here to listen with your own player(launches your MP3 player)

EHAM 181225Z 29008KT 250V320 9999 FEW027 13/06 Q1022 NOSIG

EHAM Flight Activity (Flightaware)

Listeners: 0 out of 1496 total

Schiphol Apron (North): 121.880

EHAM Apron (South) (Archives)
Amsterdam, Netherlands

Feed Status: UP
Listen in your browser - HTML5 player(in browser, HTML5)
Click here to listen with your own player(launches your MP3 player)

EHAM 181225Z 29008KT 250V320 9999 FEW027 13/06 Q1022 NOSIG

EHAM Flight Activity (Flightaware)

Listeners: 0 out of 1496 total

Schiphol Apron (South): 121.780

EHAM Arrival (Primary) (Archives)
Amsterdam, Netherlands

Feed Status: UP
Listen in your browser - HTML5 player(in browser, HTML5)
Click here to listen with your own player(launches your MP3 player)

EHAM 181225Z 29008KT 250V320 9999 FEW027 13/06 Q1022 NOSIG

EHAM Flight Activity (Flightaware)

Listeners: 0 out of 1496 total

Amsterdam Arrival : 118.400

EHAM Arrival (Secondary) (Archives)
Amsterdam, Netherlands

Feed Status: UP
Listen in your browser - HTML5 player(in browser, HTML5)
Click here to listen with your own player(launches your MP3 player)

EHAM 181225Z 29008KT 250V320 9999 FEW027 13/06 Q1022 NOSIG

EHAM Flight Activity (Flightaware)

Listeners: 0 out of 1496 total

Amsterdam Arrival (Secondary): 131.150

EHAM Arrival (Secondary/Backup) (Archives)
Amsterdam, Netherlands

Feed Status: UP
Listen in your browser - HTML5 player(in browser, HTML5)
Click here to listen with your own player(launches your MP3 player)

EHAM 181225Z 29008KT 250V320 9999 FEW027 13/06 Q1022 NOSIG

EHAM Flight Activity (Flightaware)

Listeners: 0 out of 1496 total

Amsterdam Arrival (Secondary Backup): 131.275

EHAM Arrival Backup/Discrete (Archives)
Amsterdam, Netherlands

Feed Status: UP
Listen in your browser - HTML5 player(in browser, HTML5)
Click here to listen with your own player(launches your MP3 player)

EHAM 181225Z 29008KT 250V320 9999 FEW027 13/06 Q1022 NOSIG

EHAM Flight Activity (Flightaware)

Listeners: 0 out of 1496 total

Schiphol Arrival Backup: 126.675

EHAM Clearance Delivery (Archives)
Amsterdam, Netherlands

Feed Status: UP
Listen in your browser - HTML5 player(in browser, HTML5)
Click here to listen with your own player(launches your MP3 player)

EHAM 181225Z 29008KT 250V320 9999 FEW027 13/06 Q1022 NOSIG

EHAM Flight Activity (Flightaware)

Listeners: 0 out of 1496 total

Schiphol Clearance Delivery: 121.980

EHAM Ground (Backup) (Archives)
Amsterdam, Netherlands

Feed Status: UP
Listen in your browser - HTML5 player(in browser, HTML5)
Click here to listen with your own player(launches your MP3 player)

EHAM 181225Z 29008KT 250V320 9999 FEW027 13/06 Q1022 NOSIG

EHAM Flight Activity (Flightaware)

Listeners: 0 out of 1496 total

Schiphol Ground (Backup): 122.425

EHAM Ground (North) (Archives)
Amsterdam, Netherlands

Feed Status: UP
Listen in your browser - HTML5 player(in browser, HTML5)
Click here to listen with your own player(launches your MP3 player)

EHAM 181225Z 29008KT 250V320 9999 FEW027 13/06 Q1022 NOSIG

EHAM Flight Activity (Flightaware)

Listeners: 0 out of 1496 total

Schiphol Ground (North): 121.805

EHAM Ground (South) (Archives)
Amsterdam, Netherlands

Feed Status: UP
Listen in your browser - HTML5 player(in browser, HTML5)
Click here to listen with your own player(launches your MP3 player)

EHAM 181225Z 29008KT 250V320 9999 FEW027 13/06 Q1022 NOSIG

EHAM Flight Activity (Flightaware)

Listeners: 0 out of 1496 total

Schiphol Ground (South): 121.705

EHAM Ground (West) (Archives)
Amsterdam, Netherlands

Feed Status: UP
Listen in your browser - HTML5 player(in browser, HTML5)
Click here to listen with your own player(launches your MP3 player)

EHAM 181225Z 29008KT 250V320 9999 FEW027 13/06 Q1022 NOSIG

EHAM Flight Activity (Flightaware)

Listeners: 0 out of 1496 total

Schiphol Ground (West): 121.560

EHAM Info North Sea (North) (Archives)
Amsterdam, Netherlands

Feed Status: UP
Listen in your browser - HTML5 player(in browser, HTML5)
Click here to listen with your own player(launches your MP3 player)

EHAM 181225Z 29008KT 250V320 9999 FEW027 13/06 Q1022 NOSIG

EHAM Flight Activity (Flightaware)

Listeners: 0 out of 1496 total

Amsterdam Info North Sea (North): 119.175

EHAM Info North Sea (Over Land) (Archives)
Amsterdam, Netherlands

Feed Status: UP
Listen in your browser - HTML5 player(in browser, HTML5)
Click here to listen with your own player(launches your MP3 player)

EHAM 181225Z 29008KT 250V320 9999 FEW027 13/06 Q1022 NOSIG

EHAM Flight Activity (Flightaware)

Listeners: 0 out of 1496 total

Amsterdam Info North Sea (Over Land): 124.300

EHAM Info North Sea (South) (Archives)
Amsterdam, Netherlands

Feed Status: UP
Listen in your browser - HTML5 player(in browser, HTML5)
Click here to listen with your own player(launches your MP3 player)

EHAM 181225Z 29008KT 250V320 9999 FEW027 13/06 Q1022 NOSIG

EHAM Flight Activity (Flightaware)

Listeners: 0 out of 1496 total

Amsterdam Info North Sea (South): 136.650

EHAM Schiphol Outbound Planner (Archives)
Amsterdam, Netherlands

Feed Status: UP
Listen in your browser - HTML5 player(in browser, HTML5)
Click here to listen with your own player(launches your MP3 player)

EHAM 181225Z 29008KT 250V320 9999 FEW027 13/06 Q1022 NOSIG

EHAM Flight Activity (Flightaware)

Listeners: 0 out of 1496 total

Schiphol Outbound Planner: 121.655

EHAM Tow Traffic (Archives)
Amsterdam, Netherlands

Feed Status: UP
Listen in your browser - HTML5 player(in browser, HTML5)
Click here to listen with your own player(launches your MP3 player)

EHAM 181225Z 29008KT 250V320 9999 FEW027 13/06 Q1022 NOSIG

EHAM Flight Activity (Flightaware)

Listeners: 0 out of 1496 total

Schiphol Tow Traffic: 134.875

EHAM Tower (06/24) (Archives)
Amsterdam, Netherlands

Feed Status: UP
Listen in your browser - HTML5 player(in browser, HTML5)
Click here to listen with your own player(launches your MP3 player)

EHAM 181225Z 29008KT 250V320 9999 FEW027 13/06 Q1022 NOSIG

EHAM Flight Activity (Flightaware)

Listeners: 6 out of 1496 total

Schiphol Tower Main 06/24: 135.110

EHAM Tower (18C/36C-27/09) (Archives)
Amsterdam, Netherlands

Feed Status: UP
Listen in your browser - HTML5 player(in browser, HTML5)
Click here to listen with your own player(launches your MP3 player)

EHAM 181225Z 29008KT 250V320 9999 FEW027 13/06 Q1022 NOSIG

EHAM Flight Activity (Flightaware)

Listeners: 2 out of 1496 total

Schiphol Tower Main 18C/36C - 27/09: 118.100

EHAM Tower (18L/36R-22/04) (Archives)
Amsterdam, Netherlands

Feed Status: UP
Listen in your browser - HTML5 player(in browser, HTML5)
Click here to listen with your own player(launches your MP3 player)

EHAM 181225Z 29008KT 250V320 9999 FEW027 13/06 Q1022 NOSIG

EHAM Flight Activity (Flightaware)

Listeners: 0 out of 1496 total

Schiphol Tower Main 18L/36R - 22/04: 119.225

EHAM Tower Backup (Archives)
Amsterdam, Netherlands

Feed Status: UP
Listen in your browser - HTML5 player(in browser, HTML5)
Click here to listen with your own player(launches your MP3 player)

EHAM 181225Z 29008KT 250V320 9999 FEW027 13/06 Q1022 NOSIG

EHAM Flight Activity (Flightaware)

Listeners: 0 out of 1496 total

Schiphol Tower Backup: 119.905

EHAM Tower West (18R/36L) (Archives)
Amsterdam, Netherlands

Feed Status: UP
Listen in your browser - HTML5 player(in browser, HTML5)
Click here to listen with your own player(launches your MP3 player)

EHAM 181225Z 29008KT 250V320 9999 FEW027 13/06 Q1022 NOSIG

EHAM Flight Activity (Flightaware)

Listeners: 0 out of 1496 total

Schiphol Tower West 18R/36L: 118.280

EHBK ATIS (Archives)
Beek, Netherlands

Feed Status: UP
Listen in your browser - HTML5 player(in browser, HTML5)
Click here to listen with your own player(launches your MP3 player)

EHBK 181225Z AUTO 36006KT 300V070 9999 NSC 13/02 Q1022 NOSIG

EHBK Flight Activity (Flightaware)

Listeners: 0 out of 1496 total

Beek ATIS: 124.575

EHBK Gnd/Twr/App (Archives)
Beek, Netherlands

Feed Status: UP
Listen in your browser - HTML5 player(in browser, HTML5)
Click here to listen with your own player(launches your MP3 player)

EHBK 181225Z AUTO 36006KT 300V070 9999 NSC 13/02 Q1022 NOSIG

EHBK Flight Activity (Flightaware)

Listeners: 5 out of 1496 total

Beek Approach: 120.200
Beek Approach: 123.975
Beek Ground: 121.825
Beek Tower: 119.475
Beek Tower: 119.700

MUAC/Eurocontrol Delta High (Archives)
Beek, Netherlands

Feed Status: UP
Listen in your browser - HTML5 player(in browser, HTML5)
Click here to listen with your own player(launches your MP3 player)

EHBK 181225Z AUTO 36006KT 300V070 9999 NSC 13/02 Q1022 NOSIG

EHBK Flight Activity (Flightaware)

Listeners: 0 out of 1496 total

MUAC Delta High Sector: 132.085

MUAC/Eurocontrol Koksy (Archives)
Beek, Netherlands

Feed Status: UP
Listen in your browser - HTML5 player(in browser, HTML5)
Click here to listen with your own player(launches your MP3 player)

EHBK 181225Z AUTO 36006KT 300V070 9999 NSC 13/02 Q1022 NOSIG

EHBK Flight Activity (Flightaware)

Listeners: 0 out of 1496 total

MUAC Koksy Sector: 132.205

MUAC/Eurocontrol Koksy High (Archives)
Beek, Netherlands

Feed Status: UP
Listen in your browser - HTML5 player(in browser, HTML5)
Click here to listen with your own player(launches your MP3 player)

EHBK 181225Z AUTO 36006KT 300V070 9999 NSC 13/02 Q1022 NOSIG

EHBK Flight Activity (Flightaware)

Listeners: 1 out of 1496 total

MUAC Koksy High Sector: 132.755

MUAC/Eurocontrol Lux High (Archives)
Beek, Netherlands

Feed Status: UP
Listen in your browser - HTML5 player(in browser, HTML5)
Click here to listen with your own player(launches your MP3 player)

EHBK 181225Z AUTO 36006KT 300V070 9999 NSC 13/02 Q1022 NOSIG

EHBK Flight Activity (Flightaware)

Listeners: 1 out of 1496 total

MUAC Lux High Sector: 132.315

MUAC/Eurocontrol Lux Low (Archives)
Beek, Netherlands

Feed Status: UP
Listen in your browser - HTML5 player(in browser, HTML5)
Click here to listen with your own player(launches your MP3 player)

EHBK 181225Z AUTO 36006KT 300V070 9999 NSC 13/02 Q1022 NOSIG

EHBK Flight Activity (Flightaware)

Listeners: 1 out of 1496 total

MUAC Lux Low Sector: 133.355

MUAC/Eurocontrol Olno Low (Archives)
Beek, Netherlands

Feed Status: UP
Listen in your browser - HTML5 player(in browser, HTML5)
Click here to listen with your own player(launches your MP3 player)

EHBK 181225Z AUTO 36006KT 300V070 9999 NSC 13/02 Q1022 NOSIG

EHBK Flight Activity (Flightaware)

Listeners: 0 out of 1496 total

MUAC Olno Low Sector: 132.855

MUAC/Eurocontrol Ruhr (Archives)
Beek, Netherlands

Feed Status: UP
Listen in your browser - HTML5 player(in browser, HTML5)
Click here to listen with your own player(launches your MP3 player)

EHBK 181225Z AUTO 36006KT 300V070 9999 NSC 13/02 Q1022 NOSIG

EHBK Flight Activity (Flightaware)

Listeners: 1 out of 1496 total

MUAC Ruhr Sector: 132.515

EHEH Approach #1 (Archives)
Eindhoven, Netherlands

Feed Status: UP
Listen in your browser - HTML5 player(in browser, HTML5)
Click here to listen with your own player(launches your MP3 player)

EHEH 181225Z AUTO 03005KT 260V030 9999 NCD 13/M00 Q1022 BLU NOSIG

EHEH Flight Activity (Flightaware)

Listeners: 2 out of 1496 total

DutchMil: 132.530
DutchMil RAPCON South: 379.925
DutchMil RAPCON South: 123.180
Eindhoven Arrival/Director: 124.530

EHEH Ground
Eindhoven, Netherlands

Feed Status: DOWN
Offline since: 2020-04-23 06:00:22 UTC

EHEH 181225Z AUTO 03005KT 260V030 9999 NCD 13/M00 Q1022 BLU NOSIG

Eindhoven Ground: 121.930
Eindhoven Ground: 369.250

EHEH Tower #1 (Archives)
Eindhoven, Netherlands

Feed Status: UP
Listen in your browser - HTML5 player(in browser, HTML5)
Click here to listen with your own player(launches your MP3 player)

EHEH 181225Z AUTO 03005KT 260V030 9999 NCD 13/M00 Q1022 BLU NOSIG

EHEH Flight Activity (Flightaware)

Listeners: 3 out of 1496 total

Budel Tower: 122.155
Eindhoven Tower: 131.005
Emergency/Guard: 121.500
Generic Tower: 122.100
Volkel Tower: 372.225
Volkel Tower: 136.080

EHEH Tower #2
Eindhoven, Netherlands

Feed Status: DOWN
Offline since: 2020-04-23 06:00:22 UTC

EHEH 181225Z AUTO 03005KT 260V030 9999 NCD 13/M00 Q1022 BLU NOSIG

Eindhoven Tower: 122.100
Eindhoven Tower: 131.005
Eindhoven Tower: 281.150

EHGG Approach (Archives)
Groningen, Netherlands

Feed Status: UP
Listen in your browser - HTML5 player(in browser, HTML5)
Click here to listen with your own player(launches your MP3 player)

EHGG 181225Z AUTO 36010KT 300V060 9999 NCD 15/05 Q1022 NOSIG

EHGG Flight Activity (Flightaware)

Listeners: 0 out of 1496 total

Eelde Approach: 120.305

EHGG ATIS (Archives)
Groningen, Netherlands

Feed Status: UP
Listen in your browser - HTML5 player(in browser, HTML5)
Click here to listen with your own player(launches your MP3 player)

EHGG 181225Z AUTO 36010KT 300V060 9999 NCD 15/05 Q1022 NOSIG

EHGG Flight Activity (Flightaware)

Listeners: 0 out of 1496 total

Groningen ATIS: 133.555

EHGG Ground (Archives)
Groningen, Netherlands

Feed Status: UP
Listen in your browser - HTML5 player(in browser, HTML5)
Click here to listen with your own player(launches your MP3 player)

EHGG 181225Z AUTO 36010KT 300V060 9999 NCD 15/05 Q1022 NOSIG

EHGG Flight Activity (Flightaware)

Listeners: 0 out of 1496 total

Eelde Clearance Delivery/Ground: 121.705

EHGG Guard/Emergency (Archives)
Groningen, Netherlands

Feed Status: UP
Listen in your browser - HTML5 player(in browser, HTML5)
Click here to listen with your own player(launches your MP3 player)

EHGG 181225Z AUTO 36010KT 300V060 9999 NCD 15/05 Q1022 NOSIG

EHGG Flight Activity (Flightaware)

Listeners: 0 out of 1496 total

Emergency/Guard: 121.500

EHGG Tower (Archives)
Groningen, Netherlands

Feed Status: UP
Listen in your browser - HTML5 player(in browser, HTML5)
Click here to listen with your own player(launches your MP3 player)

EHGG 181225Z AUTO 36010KT 300V060 9999 NCD 15/05 Q1022 NOSIG

EHGG Flight Activity (Flightaware)

Listeners: 1 out of 1496 total

Eelde Tower: 118.705

EHGG Twr/App (Secondary) (Archives)
Groningen, Netherlands

Feed Status: UP
Listen in your browser - HTML5 player(in browser, HTML5)
Click here to listen with your own player(launches your MP3 player)

EHGG 181225Z AUTO 36010KT 300V060 9999 NCD 15/05 Q1022 NOSIG

EHGG Flight Activity (Flightaware)

Listeners: 1 out of 1496 total

Eelde Tower/App (Backup): 119.705

MUAC/Eurocontrol (EHGG Area) (Archives)
Groningen, Netherlands

Feed Status: UP
Listen in your browser - HTML5 player(in browser, HTML5)
Click here to listen with your own player(launches your MP3 player)

EHGG 181225Z AUTO 36010KT 300V060 9999 NCD 15/05 Q1022 NOSIG

EHGG Flight Activity (Flightaware)

Listeners: 1 out of 1496 total

MUAC Holstein High Sector: 132.775
MUAC Holstein Sector: 120.9333
MUAC Javer High Sector: 134.700
MUAC Jever Sector: 136.4666

EHGR Ground (Archives)
Breda, Netherlands

Feed Status: UP
Listen in your browser - HTML5 player(in browser, HTML5)
Click here to listen with your own player(launches your MP3 player)

EHGR 181225Z AUTO 33005KT 280V090 9999 NCD 13/03 Q1022 BLU

EHGR Flight Activity (Flightaware)

Listeners: 0 out of 1496 total

Gilze Rijen Ground: 121.680

EHGR Ground/Tower (Archives)
Breda, Netherlands

Feed Status: UP
Listen in your browser - HTML5 player(in browser, HTML5)
Click here to listen with your own player(launches your MP3 player)

EHGR 181225Z AUTO 33005KT 280V090 9999 NCD 13/03 Q1022 BLU

EHGR Flight Activity (Flightaware)

Listeners: 0 out of 1496 total

Gilze Rijen Ground: 121.680
Gilze Rijen Tower: 125.330

EHGR Tower (Archives)
Breda, Netherlands

Feed Status: UP
Listen in your browser - HTML5 player(in browser, HTML5)
Click here to listen with your own player(launches your MP3 player)

EHGR 181225Z AUTO 33005KT 280V090 9999 NCD 13/03 Q1022 BLU

EHGR Flight Activity (Flightaware)

Listeners: 0 out of 1496 total

Gilze Rijen Tower: 125.330

EHHV CTAF (Archives)
Hilversum, Netherlands

Feed Status: UP
Listen in your browser - HTML5 player(in browser, HTML5)
Click here to listen with your own player(launches your MP3 player)

EHHV Flight Activity (Flightaware)

Listeners: 2 out of 1496 total

Hilversum Radio: 131.030

EHKD ATIS (Archives)
Den Helder, Netherlands

Feed Status: UP
Listen in your browser - HTML5 player(in browser, HTML5)
Click here to listen with your own player(launches your MP3 player)

EHKD 181225Z AUTO 31006KT 270V020 9999 FEW064 12/06 Q1023 BLU

EHKD Flight Activity (Flightaware)

Listeners: 0 out of 1496 total

De Kooy ATIS: 133.015

EHKD Ground/Tower (Archives)
Den Helder, Netherlands

Feed Status: UP
Listen in your browser - HTML5 player(in browser, HTML5)
Click here to listen with your own player(launches your MP3 player)

EHKD 181225Z AUTO 31006KT 270V020 9999 FEW064 12/06 Q1023 BLU

EHKD Flight Activity (Flightaware)

Listeners: 0 out of 1496 total

De Kooy Ground: 121.730
De Kooy Tower: 120.130

Approach/Dutch Mil Radar (Archives)
Lelystad, Netherlands

Feed Status: UP
Listen in your browser - HTML5 player(in browser, HTML5)
Click here to listen with your own player(launches your MP3 player)

EHLE 181225Z AUTO 34009KT 300V020 9999 NSC 12/03 Q1023 NOSIG

EHLE Flight Activity (Flightaware)

Listeners: 1 out of 1496 total

Dutch Mil Flight Info: 264.325
Dutch Mil Radar: 128.355
Dutch Mil Radar: 132.350

EHLE Tower (Archives)
Lelystad, Netherlands

Feed Status: UP
Listen in your browser - HTML5 player(in browser, HTML5)
Click here to listen with your own player(launches your MP3 player)

EHLE 181225Z AUTO 34009KT 300V020 9999 NSC 12/03 Q1023 NOSIG

EHLE Flight Activity (Flightaware)

Listeners: 0 out of 1496 total

Lelystad Clearance Delivery: 123.680
Lelystad Tower: 135.180
Lelystad Tower: 123.830

EHMC/EHML Military/Radar
Nieuw-Milligen, Netherlands

Feed Status: DOWN
Offline since: 2020-10-08 18:29:22 UTC

AMCC: 234.000
Belga Radar: 129.325
Command Post: 313.550
Dutch Military Radar: 120.825
Dutch Military Radar: 125.925
Dutch Military Radar: 128.350
GCI: 363.100
Lippe Radar: 131.075
London Mil: 135.275
Meteo: 284.425

EHMC/EHML Military/Radar
Nieuw-Milligen, Netherlands

Feed Status: DOWN
Offline since: 2020-10-08 18:29:22 UTC

AMCC: 234.000
Belga Radar: 129.325
Command Post: 313.550
Dutch Military Radar: 120.825
Dutch Military Radar: 125.925
Dutch Military Radar: 128.350
GCI: 363.100
Lippe Radar: 131.075
London Mil: 135.275
Meteo: 284.425

EHMM CTAF (Archives)
Middenmeer, Netherlands

Feed Status: UP
Listen in your browser - HTML5 player(in browser, HTML5)
Click here to listen with your own player(launches your MP3 player)

EHMM Flight Activity (Flightaware)

Listeners: 0 out of 1496 total

Middenmeer CTAF: 123.425

EHMZ (Archives)
Middelburg, Netherlands

Feed Status: UP
Listen in your browser - HTML5 player(in browser, HTML5)
Click here to listen with your own player(launches your MP3 player)

EHMZ Flight Activity (Flightaware)

Listeners: 0 out of 1496 total

Midden-Zeeland Radio: 119.255

EHRD Approach (Archives)
Rotterdam, Netherlands

Feed Status: UP
Listen in your browser - HTML5 player(in browser, HTML5)
Click here to listen with your own player(launches your MP3 player)

EHRD 181225Z AUTO 28006KT 250V350 9999 NCD 12/05 Q1023 NOSIG

EHRD Flight Activity (Flightaware)

Listeners: 0 out of 1496 total

Rotterdam Approach: 122.990
Rotterdam Approach: 124.535
Rotterdam Approach: 281.050

EHRD Clearance Delivery (Archives)
Rotterdam, Netherlands

Feed Status: UP
Listen in your browser - HTML5 player(in browser, HTML5)
Click here to listen with your own player(launches your MP3 player)

EHRD 181225Z AUTO 28006KT 250V350 9999 NCD 12/05 Q1023 NOSIG

EHRD Flight Activity (Flightaware)

Listeners: 0 out of 1496 total

Rotterdam Del/Gnd: 122.180

EHRD Del/Twr (Archives)
Rotterdam, Netherlands

Feed Status: UP
Listen in your browser - HTML5 player(in browser, HTML5)
Click here to listen with your own player(launches your MP3 player)

EHRD 181225Z AUTO 28006KT 250V350 9999 NCD 12/05 Q1023 NOSIG

EHRD Flight Activity (Flightaware)

Listeners: 2 out of 1496 total

Rotterdam Del/Gnd: 122.180
Rotterdam Tower: 118.205

EHRD Gnd/Twr/App (Archives)
Rotterdam, Netherlands

Feed Status: UP
Listen in your browser - HTML5 player(in browser, HTML5)
Click here to listen with your own player(launches your MP3 player)

EHRD 181225Z AUTO 28006KT 250V350 9999 NCD 12/05 Q1023 NOSIG

EHRD Flight Activity (Flightaware)

Listeners: 0 out of 1496 total

Adam Info: 124.300
Regional Guard: 119.705
Rotterdam Approach: 127.025
Rotterdam Del/Gnd: 122.180
Rotterdam Tower: 118.205
SAR: 123.100
SAR: 282.800

EHRD Tower (Archives)
Rotterdam, Netherlands

Feed Status: UP
Listen in your browser - HTML5 player(in browser, HTML5)
Click here to listen with your own player(launches your MP3 player)

EHRD 181225Z AUTO 28006KT 250V350 9999 NCD 12/05 Q1023 NOSIG

EHRD Flight Activity (Flightaware)

Listeners: 0 out of 1496 total

Rotterdam Tower: 118.205
Rotterdam Tower: 362.300

EHRD Twr/App
Rotterdam, Netherlands

Feed Status: DOWN
Offline since: 2020-03-14 14:15:39 UTC

EHRD 181225Z AUTO 28006KT 250V350 9999 NCD 12/05 Q1023 NOSIG

Rotterdam Approach: 127.025
Rotterdam Tower: 118.205

EHSE Radio/FIC (Archives)
Bosschenhoofd, Netherlands

Feed Status: UP
Listen in your browser - HTML5 player(in browser, HTML5)
Click here to listen with your own player(launches your MP3 player)

EHSE Flight Activity (Flightaware)

Listeners: 0 out of 1496 total

Dutch MIL Info FIC: 132.350
Seppe Radio (Tower/Ground): 120.655

EHTX Gnd/Twr (Archives)
Texel, Netherlands

Feed Status: UP
Listen in your browser - HTML5 player(in browser, HTML5)
Click here to listen with your own player(launches your MP3 player)

EHTX Flight Activity (Flightaware)

Listeners: 1 out of 1496 total

Texel Radio (Ground/Tower): 119.300

EHVL CTAF/Range Control (Archives)
Vlieland, Netherlands

Feed Status: UP
Listen in your browser - HTML5 player(in browser, HTML5)
Click here to listen with your own player(launches your MP3 player)

EHVL 181225Z AUTO 36007KT 9999 BKN081 BKN086 10/06 Q1023 BLU

EHVL Flight Activity (Flightaware)

Listeners: 0 out of 1496 total

Cornfield VHF (CTAF): 122.100
Range Controller (Primary): 291.650
Range Controller (Secondary): 370.300
Range Controller VHF: 138.075

EICK Approach/Departure (Archives)
Cork, Ireland

Feed Status: UP
Listen in your browser - HTML5 player(in browser, HTML5)
Click here to listen with your own player(launches your MP3 player)

EICK 181200Z 18008KT 140V210 9999 BKN011 BKN018 BKN023 09/07 Q1023 NOSIG

EICK Flight Activity (Flightaware)

Listeners: 1 out of 1496 total

Cork Approach: 119.900

EICK Gnd/Twr/App/Dep (Archives)
Cork, Ireland

Feed Status: UP
Listen in your browser - HTML5 player(in browser, HTML5)
Click here to listen with your own player(launches your MP3 player)

EICK 181200Z 18008KT 140V210 9999 BKN011 BKN018 BKN023 09/07 Q1023 NOSIG

EICK Flight Activity (Flightaware)

Listeners: 1 out of 1496 total

Cork Approach: 119.900
Cork Ground: 121.850
Cork Tower: 119.300

EICK Ground/Tower (Archives)
Cork, Ireland

Feed Status: UP
Listen in your browser - HTML5 player(in browser, HTML5)
Click here to listen with your own player(launches your MP3 player)

EICK 181200Z 18008KT 140V210 9999 BKN011 BKN018 BKN023 09/07 Q1023 NOSIG

EICK Flight Activity (Flightaware)

Listeners: 0 out of 1496 total

Cork Ground: 121.850
Cork Tower: 119.300

EIDW Approach (Archives)
Dublin, Ireland

Feed Status: UP
Listen in your browser - HTML5 player(in browser, HTML5)
Click here to listen with your own player(launches your MP3 player)

EIDW 181200Z 21006KT 170V270 9999 SCT021 BKN024 BKN031 11/06 Q1023

EIDW Flight Activity (Flightaware)

Listeners: 3 out of 1496 total

Dublin Approach: 121.100

EIDW Approach (Final) (Archives)
Dublin, Ireland

Feed Status: UP
Listen in your browser - HTML5 player(in browser, HTML5)
Click here to listen with your own player(launches your MP3 player)

EIDW 181200Z 21006KT 170V270 9999 SCT021 BKN024 BKN031 11/06 Q1023

EIDW Flight Activity (Flightaware)

Listeners: 2 out of 1496 total

Dublin Approach (Final): 119.925

EIDW Clearance Delivery (Archives)
Dublin, Ireland

Feed Status: UP
Listen in your browser - HTML5 player(in browser, HTML5)
Click here to listen with your own player(launches your MP3 player)

EIDW 181200Z 21006KT 170V270 9999 SCT021 BKN024 BKN031 11/06 Q1023

EIDW Flight Activity (Flightaware)

Listeners: 2 out of 1496 total

Dublin Clearance Delivery: 121.875

EIDW Del/Gnd/Twr/App/Center (Archives)
Dublin, Ireland

Feed Status: UP
Listen in your browser - HTML5 player(in browser, HTML5)
Click here to listen with your own player(launches your MP3 player)

EIDW 181200Z 21006KT 170V270 9999 SCT021 BKN024 BKN031 11/06 Q1023

EIDW Flight Activity (Flightaware)

Listeners: 18 out of 1496 total

Dublin Approach: 121.100
Dublin Approach (backup): 119.550
Dublin Centre North: 129.175
Dublin Centre South: 126.250
Dublin Clearance Delivery: 121.875
Dublin FIS: 118.500
Dublin Ground: 121.800
Dublin Tower: 118.600

EIDW Ground (Archives)
Dublin, Ireland

Feed Status: UP
Listen in your browser - HTML5 player(in browser, HTML5)
Click here to listen with your own player(launches your MP3 player)

EIDW 181200Z 21006KT 170V270 9999 SCT021 BKN024 BKN031 11/06 Q1023

EIDW Flight Activity (Flightaware)

Listeners: 1 out of 1496 total

Dublin Ground: 121.800

EIDW Ground (North) (Archives)
Dublin, Ireland

Feed Status: UP
Listen in your browser - HTML5 player(in browser, HTML5)
Click here to listen with your own player(launches your MP3 player)

EIDW 181200Z 21006KT 170V270 9999 SCT021 BKN024 BKN031 11/06 Q1023

EIDW Flight Activity (Flightaware)

Listeners: 1 out of 1496 total

Dublin Ground (North): 118.750

EIDW Tower (Archives)
Dublin, Ireland

Feed Status: UP
Listen in your browser - HTML5 player(in browser, HTML5)
Click here to listen with your own player(launches your MP3 player)

EIDW 181200Z 21006KT 170V270 9999 SCT021 BKN024 BKN031 11/06 Q1023

EIDW Flight Activity (Flightaware)

Listeners: 2 out of 1496 total

Dublin Tower: 118.600

EIKN Gnd/Twr/App (Archives)
Charlestown, Ireland

Feed Status: UP
Listen in your browser - HTML5 player(in browser, HTML5)
Click here to listen with your own player(launches your MP3 player)


EIKN Flight Activity (Flightaware)

Listeners: 0 out of 1496 total

Connaught Ground: 121.900
Connaught Tower: 130.700
Shannon Low Level: 119.075

EINN Shannon Control High (East) (Archives)
Shannon, Ireland

Feed Status: UP
Listen in your browser - HTML5 player(in browser, HTML5)
Click here to listen with your own player(launches your MP3 player)

EINN 181200Z 17010KT 9999 FEW014 SCT018 BKN026 11/08 Q1021 NOSIG

EINN Flight Activity (Flightaware)

Listeners: 2 out of 1496 total

Shannon Clearance (Oceanic only): 121.700
Shannon Control: 134.260
Shannon Control: 134.630
Shannon Control: 135.230
Shannon Control: 135.600
Shannon Control: 136.255
Shannon Control (BABAN/DEVOL Sector): 132.150

EINN Shannon Control High (West/Coastal) (Archives)
Shannon, Ireland

Feed Status: UP
Listen in your browser - HTML5 player(in browser, HTML5)
Click here to listen with your own player(launches your MP3 player)

EINN 181200Z 17010KT 9999 FEW014 SCT018 BKN026 11/08 Q1021 NOSIG

EINN Flight Activity (Flightaware)

Listeners: 6 out of 1496 total

Shannon Control: 131.150
Shannon Control: 125.880
Shannon Control: 120.040
Shannon Control: 122.980
Shannon Control: 127.130
Shannon Control: 129.665
Shannon Control: 133.360

EINN Shannon Control Low (Archives)
Shannon, Ireland

Feed Status: UP
Listen in your browser - HTML5 player(in browser, HTML5)
Click here to listen with your own player(launches your MP3 player)

EINN 181200Z 17010KT 9999 FEW014 SCT018 BKN026 11/08 Q1021 NOSIG

EINN Flight Activity (Flightaware)

Listeners: 3 out of 1496 total

Shannon Control (Low): 119.080
Shannon Control Low: 124.700

EINN Twr/App #1 (Archives)
Shannon, Ireland

Feed Status: UP
Listen in your browser - HTML5 player(in browser, HTML5)
Click here to listen with your own player(launches your MP3 player)

EINN 181200Z 17010KT 9999 FEW014 SCT018 BKN026 11/08 Q1021 NOSIG

EINN Flight Activity (Flightaware)

Listeners: 3 out of 1496 total

Aer Lingus Ops: 131.500
Service Air Ops: 131.450
Shannon Approach Radar: 121.400
Shannon Control: Misc
Shannon Ground: 121.800
Shannon Tower: 118.700
Sig Ops (Pre-Clearance): 131.590

ENAT Twr/App/Control (Archives)
Alta, Norway

Feed Status: UP
Listen in your browser - HTML5 player(in browser, HTML5)
Click here to listen with your own player(launches your MP3 player)

ENAT 181220Z 15009KT CAVOK 09/M03 Q1029 RMK WIND 700FT 16010KT

ENAT Flight Activity (Flightaware)

Listeners: 0 out of 1496 total

Alta Tower (to boat, Harbour Channel 12): 156.600
Alta Tower (to vehicle): 462.400
Alta Tower/Approach: 120.400
Norway Control: 126.700

ENBO Tower
Bodo, Norway

Feed Status: DOWN
Offline since: 2020-11-13 22:27:21 UTC

ENBO 181220Z 10014KT CAVOK 11/M02 Q1028 NOSIG

Bodo Tower: 118.100

ENCN Tower/Approach (Archives)
Kristiansand, Norway

Feed Status: UP
Listen in your browser - HTML5 player(in browser, HTML5)
Click here to listen with your own player(launches your MP3 player)

ENCN 181220Z 07015KT CAVOK 16/M03 Q1027

ENCN Flight Activity (Flightaware)

Listeners: 1 out of 1496 total

Kjevik Tower: 118.100
Kjevik Tower/Approach: 119.950

ENGM App/Polaris ACC (Archives)
Honefoss, Norway

Feed Status: UP
Listen in your browser - HTML5 player(in browser, HTML5)
Click here to listen with your own player(launches your MP3 player)

ENEG Flight Activity (Flightaware)

Listeners: 2 out of 1496 total

ENGM Approach (East): 118.475
ENGM Approach (West): 120.450
Polaris ACC Sector 4: 118.875
Polaris ACC Sector 7: 124.775
Polaris ACC Sector 8: 134.350

ENEV Twr/App/ACC (Archives)
Evenes, Norway

Feed Status: UP
Listen in your browser - HTML5 player(in browser, HTML5)
Click here to listen with your own player(launches your MP3 player)

ENEV 181220Z 14007KT CAVOK 11/M07 Q1028 RMK WIND 1400FT 16008KT

ENEV Flight Activity (Flightaware)

Listeners: 0 out of 1496 total

Evenes Approach: 120.100
Evenes Tower: 118.000
Norway ACC (Bodo Sector 25): 126.450

ENGK Info (Archives)
Arendal, Norway

Feed Status: UP
Listen in your browser - HTML5 player(in browser, HTML5)
Click here to listen with your own player(launches your MP3 player)


ENGK Flight Activity (Flightaware)

Listeners: 0 out of 1496 total

Gullknapp Info: 129.900

ENGM App/Polaris ACC (Archives)
Oslo, Norway

Feed Status: UP
Listen in your browser - HTML5 player(in browser, HTML5)
Click here to listen with your own player(launches your MP3 player)

ENEG Flight Activity (Flightaware)

Listeners: 2 out of 1496 total

ENGM Approach (East): 118.475
ENGM Approach (West): 120.450
Polaris ACC Sector 4: 118.875
Polaris ACC Sector 7: 124.775
Polaris ACC Sector 8: 134.350

ENGM Tower (Archives)
Oslo, Norway

Feed Status: UP
Listen in your browser - HTML5 player(in browser, HTML5)
Click here to listen with your own player(launches your MP3 player)

ENGM 181220Z VRB02KT CAVOK 15/M05 Q1029 NOSIG

ENGM Flight Activity (Flightaware)

Listeners: 1 out of 1496 total

Oslo Tower (East): 120.100
Oslo Tower (West): 118.300

ENHD Tower (Archives)
Haugesund, Norway

Feed Status: UP
Listen in your browser - HTML5 player(in browser, HTML5)
Click here to listen with your own player(launches your MP3 player)

ENHD Flight Activity (Flightaware)

Listeners: 1 out of 1496 total

Karmoy Tower: 120.500

ENJB CTAF (Archives)
Tonsberg, Norway

Feed Status: UP
Listen in your browser - HTML5 player(in browser, HTML5)
Click here to listen with your own player(launches your MP3 player)

ENTO 181220Z 02009KT 350V050 CAVOK 16/M03 Q1028 NOSIG

ENTO Flight Activity (Flightaware)

Listeners: 0 out of 1496 total

Jarlsberg CTAF: 122.300

ENKJ RDO #1
Kjeller, Norway

Feed Status: DOWN
Offline since: 2021-02-28 20:58:38 UTC

Kjeller RDO: 119.100

ENKJ RDO #2 (Archives)
Kjeller, Norway

Feed Status: UP
Listen in your browser - HTML5 player(in browser, HTML5)
Click here to listen with your own player(launches your MP3 player)

ENKJ Flight Activity (Flightaware)

Listeners: 0 out of 1496 total

Kjeller RDO: 119.100

ENLI CTAF (Archives)
Farsund, Norway

Feed Status: UP
Listen in your browser - HTML5 player(in browser, HTML5)
Click here to listen with your own player(launches your MP3 player)

ENLI Flight Activity (Flightaware)

Listeners: 1 out of 1496 total

Lista Traffic/Lista Radio: 126.450

ENRK CTAF (Archives)
Astorp, Norway

Feed Status: UP
Listen in your browser - HTML5 player(in browser, HTML5)
Click here to listen with your own player(launches your MP3 player)

ENRK Flight Activity (Flightaware)

Listeners: 0 out of 1496 total

Rakkestad CTAF: 122.950

ENOR Sector 8 (Archives)
Moss, Norway

Feed Status: UP
Listen in your browser - HTML5 player(in browser, HTML5)
Click here to listen with your own player(launches your MP3 player)

ENOR Flight Activity (Flightaware)

Listeners: 0 out of 1496 total

Norway Center (FIR) Sector 8: 118.875

ENRY Tower (Archives)
Moss, Norway

Feed Status: UP
Listen in your browser - HTML5 player(in browser, HTML5)
Click here to listen with your own player(launches your MP3 player)

ENRY 181220Z 06007KT 360V110 CAVOK 17/M03 Q1028

ENRY Flight Activity (Flightaware)

Listeners: 0 out of 1496 total

Rygge Tower: 119.500

ENTC Tower/App
Langnes, Norway

Feed Status: DOWN
Offline since: 2021-04-12 14:28:38 UTC

ENTC 181220Z 21012KT CAVOK 07/M02 Q1028 NOSIG RMK WIND 2600FT 19018KT

Langnes Tower: 118.300
Langnes VDF (Approach): 123.750

ENTO App/Dep (Archives)
Sandefjord, Norway

Feed Status: UP
Listen in your browser - HTML5 player(in browser, HTML5)
Click here to listen with your own player(launches your MP3 player)

ENTO 181220Z 02009KT 350V050 CAVOK 16/M03 Q1028 NOSIG

ENTO Flight Activity (Flightaware)

Listeners: 0 out of 1496 total

Sandefjord Approach (TMA): 134.050

ENTO Control Sector 4 (Archives)
Sandefjord, Norway

Feed Status: UP
Listen in your browser - HTML5 player(in browser, HTML5)
Click here to listen with your own player(launches your MP3 player)

ENTO 181220Z 02009KT 350V050 CAVOK 16/M03 Q1028 NOSIG

ENTO Flight Activity (Flightaware)

Listeners: 0 out of 1496 total

Norway control Sector 4: 118.875

ENTO Tower (Archives)
Sandefjord, Norway

Feed Status: UP
Listen in your browser - HTML5 player(in browser, HTML5)
Click here to listen with your own player(launches your MP3 player)

ENTO 181220Z 02009KT 350V050 CAVOK 16/M03 Q1028 NOSIG

ENTO Flight Activity (Flightaware)

Listeners: 0 out of 1496 total

Sandefjord Tower: 118.650

ENTO Tower/App (Archives)
Sandefjord, Norway

Feed Status: UP
Listen in your browser - HTML5 player(in browser, HTML5)
Click here to listen with your own player(launches your MP3 player)

ENTO 181220Z 02009KT 350V050 CAVOK 16/M03 Q1028 NOSIG

ENTO Flight Activity (Flightaware)

Listeners: 2 out of 1496 total

ENJB Tonsberg Airport - Jarlsberg - CTAF: 122.300
Farris Approach (TCA): 134.050
Sandefjord Tower: 118.650

ENTO Twr/App (Archives)
Sandefjord, Norway

Feed Status: UP
Listen in your browser - HTML5 player(in browser, HTML5)
Click here to listen with your own player(launches your MP3 player)

ENTO 181220Z 02009KT 350V050 CAVOK 16/M03 Q1028 NOSIG

ENTO Flight Activity (Flightaware)

Listeners: 0 out of 1496 total

Sandefjord Approach (TMA): 134.050
Sandefjord Tower: 118.650

ENVA Gnd/Twr/App (Archives)
Trondheim, Norway

Feed Status: UP
Listen in your browser - HTML5 player(in browser, HTML5)
Click here to listen with your own player(launches your MP3 player)

ENVA 181220Z 27005KT CAVOK 11/01 Q1028 NOSIG RMK WIND 670FT VRB03KT

ENVA Flight Activity (Flightaware)

Listeners: 3 out of 1496 total

Trondheim Approach: 118.600
Trondheim Ground: 121.600
Trondheim Tower: 119.400

ENZV Gnd/Twr/App (Archives)
Stavanger, Norway

Feed Status: UP
Listen in your browser - HTML5 player(in browser, HTML5)
Click here to listen with your own player(launches your MP3 player)

ENZV 181220Z 28012KT CAVOK 14/02 Q1027 NOSIG

ENZV Flight Activity (Flightaware)

Listeners: 3 out of 1496 total

Sola Approach/Departure: 119.600
Sola Ground: 121.750
Sola Tower: 118.350

EPGD Tower/Approach (Archives)
Gdansk, Poland

Feed Status: UP
Listen in your browser - HTML5 player(in browser, HTML5)
Click here to listen with your own player(launches your MP3 player)

EPGD 181200Z VRB03KT 9999 FEW025 13/07 Q1021

EPGD Flight Activity (Flightaware)

Listeners: 2 out of 1496 total

Gdansk Approach: 127.275
Gdansk Tower: 118.100

EPKK Tower/App (Archives)
Krakow, Poland

Feed Status: UP
Listen in your browser - HTML5 player(in browser, HTML5)
Click here to listen with your own player(launches your MP3 player)

EPKK 181200Z 06007KT 9999 FEW026 BKN031 08/03 Q1018

EPKK Flight Activity (Flightaware)

Listeners: 1 out of 1496 total

Krakow Approach: 121.075
Krakow Approach: 123.255
Krakow Tower: 123.255

EPKR CTAF
Krosno, Poland

Feed Status: DOWN
Offline since: 2020-11-30 08:45:05 UTC

Krosno CTAF: 122.400

EPKT Del/Twr/App (Archives)
Katowice, Poland

Feed Status: UP
Listen in your browser - HTML5 player(in browser, HTML5)
Click here to listen with your own player(launches your MP3 player)

EPKT 181200Z 11007KT 9999 BKN029 09/01 Q1018

EPKT Flight Activity (Flightaware)

Listeners: 0 out of 1496 total

Katowice Delivery: 121.800
Katowice Tower: 129.250
Krakow Approach: 135.400
Krakow Approach: 121.075

EPKT Delivery/Approach (Archives)
Katowice, Poland

Feed Status: UP
Listen in your browser - HTML5 player(in browser, HTML5)
Click here to listen with your own player(launches your MP3 player)

EPKT 181200Z 11007KT 9999 BKN029 09/01 Q1018

EPKT Flight Activity (Flightaware)

Listeners: 0 out of 1496 total

Katowice Delivery: 121.800
Krakow Approach: 121.075

EPKT Tower/Approach (Archives)
Katowice, Poland

Feed Status: UP
Listen in your browser - HTML5 player(in browser, HTML5)
Click here to listen with your own player(launches your MP3 player)

EPKT 181200Z 11007KT 9999 BKN029 09/01 Q1018

EPKT Flight Activity (Flightaware)

Listeners: 0 out of 1496 total

Katowice Tower: 129.250
Krakow Approach: 135.400

EPLL Tower (Archives)
Lodz, Poland

Feed Status: UP
Listen in your browser - HTML5 player(in browser, HTML5)
Click here to listen with your own player(launches your MP3 player)

EPLL 181200Z 14004KT 100V230 9999 FEW025 BKN029 OVC039 10/04 Q1019

EPLL Flight Activity (Flightaware)

Listeners: 0 out of 1496 total

Lodz Tower: 124.230

EPLS CTAF/Radio (Archives)
Leszno, Poland

Feed Status: UP
Listen in your browser - HTML5 player(in browser, HTML5)
Click here to listen with your own player(launches your MP3 player)

EPLS Flight Activity (Flightaware)

Listeners: 0 out of 1496 total

Leszno Radio: 122.305

EPML Info (Archives)
Mielec, Poland

Feed Status: UP
Listen in your browser - HTML5 player(in browser, HTML5)
Click here to listen with your own player(launches your MP3 player)

EPML Flight Activity (Flightaware)

Listeners: 1 out of 1496 total

Mielec Info: 119.105

EPPO Twr/App/FIS (Archives)
Poznan, Poland

Feed Status: UP
Listen in your browser - HTML5 player(in browser, HTML5)
Click here to listen with your own player(launches your MP3 player)

EPPO 181200Z 12008KT 9999 BKN031 11/05 Q1019

EPPO Flight Activity (Flightaware)

Listeners: 2 out of 1496 total

Poznan Approach: 129.025
Poznan Approach: 127.225
Poznan FIS: 126.300
Poznan Tower: 119.975

EPRZ Del/Twr/EPWW Radar (Archives)
Jasionka, Poland

Feed Status: UP
Listen in your browser - HTML5 player(in browser, HTML5)
Click here to listen with your own player(launches your MP3 player)

EPRZ 181200Z 04007KT 350V070 9999 BKN036 11/03 Q1018

EPRZ Flight Activity (Flightaware)

Listeners: 3 out of 1496 total

EPWW Radar: 134.175
EPWW Radar: 120.950
Rzeszow Delivery: 121.800
Rzeszow Tower: 126.800

EPWA Approach #1 (Archives)
Warsaw, Poland

Feed Status: UP
Listen in your browser - HTML5 player(in browser, HTML5)
Click here to listen with your own player(launches your MP3 player)

EPWA 181200Z VRB02KT 9999 SCT026 12/06 Q1019 NOSIG

EPWA Flight Activity (Flightaware)

Listeners: 8 out of 1496 total

Warsaw Approach: 128.805

EPWA Approach #2
Warsaw, Poland

Feed Status: DOWN
Offline since: 2021-02-07 10:30:38 UTC

EPWA 181200Z VRB02KT 9999 SCT026 12/06 Q1019 NOSIG

Warsaw Approach: 125.050

EPWA Clearance Delivery
Warsaw, Poland

Feed Status: DOWN
Offline since: 2021-02-07 10:30:38 UTC

EPWA 181200Z VRB02KT 9999 SCT026 12/06 Q1019 NOSIG

Warsaw Clearance Delivery: 121.600

EPWA Director (Archives)
Warsaw, Poland

Feed Status: UP
Listen in your browser - HTML5 player(in browser, HTML5)
Click here to listen with your own player(launches your MP3 player)

EPWA 181200Z VRB02KT 9999 SCT026 12/06 Q1019 NOSIG

EPWA Flight Activity (Flightaware)

Listeners: 0 out of 1496 total

Warsaw Director: 129.375

EPWA Ground
Warsaw, Poland

Feed Status: DOWN
Offline since: 2021-02-07 10:30:38 UTC

EPWA 181200Z VRB02KT 9999 SCT026 12/06 Q1019 NOSIG

Warsaw Ground: 121.900

EPWA Tower #1
Warsaw, Poland

Feed Status: DOWN
Offline since: 2021-02-07 10:30:38 UTC

EPWA 181200Z VRB02KT 9999 SCT026 12/06 Q1019 NOSIG

Warsaw Tower: 118.300

EPWA Tower #2 (Archives)
Warsaw, Poland

Feed Status: UP
Listen in your browser - HTML5 player(in browser, HTML5)
Click here to listen with your own player(launches your MP3 player)

EPWA 181200Z VRB02KT 9999 SCT026 12/06 Q1019 NOSIG

EPWA Flight Activity (Flightaware)

Listeners: 3 out of 1496 total

Warsaw Tower: 118.300

EPWR Twr/App (Archives)
Wroclaw, Poland

Feed Status: UP
Listen in your browser - HTML5 player(in browser, HTML5)
Click here to listen with your own player(launches your MP3 player)

EPPO 181200Z 12008KT 9999 BKN031 11/05 Q1019

EPPO Flight Activity (Flightaware)

Listeners: 2 out of 1496 total

Poznan Approach (South): 127.225

EPRZ Del/Twr/EPWW Radar (Archives)
Jasionka, Poland

Feed Status: UP
Listen in your browser - HTML5 player(in browser, HTML5)
Click here to listen with your own player(launches your MP3 player)

EPRZ 181200Z 04007KT 350V070 9999 BKN036 11/03 Q1018

EPRZ Flight Activity (Flightaware)

Listeners: 3 out of 1496 total

EPWW Radar: 134.175
EPWW Radar: 120.950
Rzeszow Delivery: 121.800
Rzeszow Tower: 126.800

ESDF Gnd/Twr (Archives)
Ronneby, Sweden

Feed Status: UP
Listen in your browser - HTML5 player(in browser, HTML5)
Click here to listen with your own player(launches your MP3 player)

ESDF 181220Z 06013KT CAVOK 17/03 Q1023

ESDF Flight Activity (Flightaware)

Listeners: 1 out of 1496 total

Ronneby Ground: 121.850
Ronneby Tower: 119.200

ESDF Ronneby Control (Archives)
Ronneby, Sweden

Feed Status: UP
Listen in your browser - HTML5 player(in browser, HTML5)
Click here to listen with your own player(launches your MP3 player)

ESDF 181220Z 06013KT CAVOK 17/03 Q1023

ESDF Flight Activity (Flightaware)

Listeners: 3 out of 1496 total

Ronneby Control: 128.450

ESMQ Tower (Archives)
Kalmar, Sweden

Feed Status: UP
Listen in your browser - HTML5 player(in browser, HTML5)
Click here to listen with your own player(launches your MP3 player)

ESMQ 181220Z 04013KT CAVOK 12/03 Q1025

ESMQ Flight Activity (Flightaware)

Listeners: 1 out of 1496 total

Kalmar Tower: 130.805

ESMS Radar (Archives)
Svedala, Sweden

Feed Status: UP
Listen in your browser - HTML5 player(in browser, HTML5)
Click here to listen with your own player(launches your MP3 player)

ESMS 181220Z 09007KT CAVOK 16/02 Q1023

ESMS Flight Activity (Flightaware)

Listeners: 0 out of 1496 total

Sweden Control (Sector L, Malmo): 134.980

ESMS Tower (Archives)
Svedala, Sweden

Feed Status: UP
Listen in your browser - HTML5 player(in browser, HTML5)
Click here to listen with your own player(launches your MP3 player)

ESMS 181220Z 09007KT CAVOK 16/02 Q1023

ESMS Flight Activity (Flightaware)

Listeners: 1 out of 1496 total

Malmo Tower: 118.800

ESOE Tower/Control (Archives)
Orebro, Sweden

Feed Status: UP
Listen in your browser - HTML5 player(in browser, HTML5)
Click here to listen with your own player(launches your MP3 player)

ESOE 181220Z AUTO 08011KT 050V110 9999 NCD 16/M03 Q1028

ESOE Flight Activity (Flightaware)

Listeners: 0 out of 1496 total

Orebro Tower: 120.275
Orebro Tower: 120.280
Sweden Control: 131.125
Sweden Control (aircraft only): 131.125

ESOW Twr/CTAF/Control (Archives)
Stockholm, Sweden

Feed Status: UP
Listen in your browser - HTML5 player(in browser, HTML5)
Click here to listen with your own player(launches your MP3 player)

ESOW 181220Z AUTO 07012KT 9999 NCD 16/M03 Q1029

ESOW Flight Activity (Flightaware)

Listeners: 1 out of 1496 total

Arlanda Approach: 123.750
Arlanda Approach: 126.655
Arlanda Approach: 130.325
Arlanda Departure: 124.100
Arlanda Tower: 118.505
Arlanda Tower: 128.725
Enkoping/Langtora: 123.525
Eskilstuna: 126.850
Frolunda: 123.400
Johannisberg CTAF: 123.650
Ska Edeby: 123.350
Stockholm Control: 120.155
Stockholm Control: 118.405
Stockholm Control: 118.280
Sweden Control: 133.260
Sweden Control: 129.175
Sweden Control: 131.130
Uppsala Tower: 119.200
Uppsala/Sundbro: 123.350
Vasteras Control: 125.955
Vasteras Tower: 130.600

ESPA Twr/Control (Archives)
Lulea, Sweden

Feed Status: UP
Listen in your browser - HTML5 player(in browser, HTML5)
Click here to listen with your own player(launches your MP3 player)

ESPA 181220Z 13004KT CAVOK 08/02 Q1031

ESPA Flight Activity (Flightaware)

Listeners: 1 out of 1496 total

Emergency/Guard: 121.500
Kallax Control: 125.450
Kallax Tower: 128.200
Sweden Control North: 131.050

ESSG Misc (Archives)
Ludvika, Sweden

Feed Status: UP
Listen in your browser - HTML5 player(in browser, HTML5)
Click here to listen with your own player(launches your MP3 player)

ESSG Flight Activity (Flightaware)

Listeners: 1 out of 1496 total

Borlange Tower: 127.305
Club Frequency: 123.375
Club Frequency: 123.450
Club Frequency: 123.425
Club Frequency: 123.525
Club Frequency: 123.350
Club Frequency: 123.300
Club Frequency: 123.200
Club Frequency: 123.550
Club Frequency: 123.600
Club Frequency: 123.650
Emergency/Guard: 121.500
Hagfors Airport: 122.230
Karlstad Airport: 119.455
Ludvika Club Freq: 123.150
Mora Airport: 119.055
Orebro Airport: 120.280
Orsa Club Frequency: 123.400
Orsa Club Frequency: 123.500
Scandinavian Mountains Airport: 124.460
Search and Rescue: 123.100
Sweden Control: 131.055
Sweden Control: 131.125
Sweden Control: 131.155
Sweden Control: 132.765
Sweden Control: 131.130
Sweden Control: 129.180
Sweden Control: 128.630
Sweden Control: 132.150
Torsby Airport: 122.055
Vasteras Control: 125.955

ESSL Twr/App/Control (Archives)
Linkoping, Sweden

Feed Status: UP
Listen in your browser - HTML5 player(in browser, HTML5)
Click here to listen with your own player(launches your MP3 player)

ESSL 181220Z AUTO 10009KT 070V130 9999 NCD 16/M02 Q1027

ESSL Flight Activity (Flightaware)

Listeners: 0 out of 1496 total

Emergency/Guard: 121.500
Linkoping Tower: 118.800
Linkoping Tower (Secondary): 123.400
Ostgota Control: 127.350
Ostgota Control: 126.400
Ostgota Control: 135.850
Ostgota Control: 132.950
Ostgota Control: 128.700
Ostgota Control (Malmen Sector): 133.100
Ostgota Control/Sweden Control: 118.400

ESVQ CTAF (Archives)
Koping, Sweden

Feed Status: UP
Listen in your browser - HTML5 player(in browser, HTML5)
Click here to listen with your own player(launches your MP3 player)

ESVQ Flight Activity (Flightaware)

Listeners: 0 out of 1496 total

Koping CTAF: 123.150

EVRA Approach (Archives)
Riga, Latvia

Feed Status: UP
Listen in your browser - HTML5 player(in browser, HTML5)
Click here to listen with your own player(launches your MP3 player)

EVRA 181220Z 03010KT CAVOK 19/M01 Q1022 NOSIG

EVRA Flight Activity (Flightaware)

Listeners: 0 out of 1496 total

Riga Approach: 129.925

EVRA CTAF (Archives)
Riga, Latvia

Feed Status: UP
Listen in your browser - HTML5 player(in browser, HTML5)
Click here to listen with your own player(launches your MP3 player)

EVRA 181220Z 03010KT CAVOK 19/M01 Q1022 NOSIG

EVRA Flight Activity (Flightaware)

Listeners: 0 out of 1496 total

Riga Approach (evenings): 134.850
Riga CTAF: 123.950

EVRA FIC (Archives)
Riga, Latvia

Feed Status: UP
Listen in your browser - HTML5 player(in browser, HTML5)
Click here to listen with your own player(launches your MP3 player)

EVRA 181220Z 03010KT CAVOK 19/M01 Q1022 NOSIG

EVRA Flight Activity (Flightaware)

Listeners: 0 out of 1496 total

Riga FIC: 120.225

EVRA Tower/Guard (Archives)
Riga, Latvia

Feed Status: UP
Listen in your browser - HTML5 player(in browser, HTML5)
Click here to listen with your own player(launches your MP3 player)

EVRA 181220Z 03010KT CAVOK 19/M01 Q1022 NOSIG

EVRA Flight Activity (Flightaware)

Listeners: 1 out of 1496 total

Emergency/Guard: 121.500
Riga Tower: 118.100

EYVI Twr/App/Misc (Archives)
Vilnius, Lithuania

Feed Status: UP
Listen in your browser - HTML5 player(in browser, HTML5)
Click here to listen with your own player(launches your MP3 player)

EYVI 181220Z 07010KT CAVOK 18/02 Q1019 NOSIG

EYVI Flight Activity (Flightaware)

Listeners: 3 out of 1496 total

Emergency / GUARD: 121.500
FlyLAL, AirBaltic transit services: 131.900
FlyLAL, AirBaltic transit services: 131.600
FlyLAL, AirBaltic transit services: 131.500
Kaunas Approach (EYKA): 124.200
Vilnius Approach: 120.700
Vilnius Control: 132.275
Vilnius Control: 133.425
Vilnius Control: 133.300
Vilnius FIS: 123.850
Vilnius Tower: 118.200
Zokniai A/G (mil): 122.775

EYVP CTAF (Archives)
Paluknys, Lithuania

Feed Status: UP
Listen in your browser - HTML5 player(in browser, HTML5)
Click here to listen with your own player(launches your MP3 player)

EYVP Flight Activity (Flightaware)

Listeners: 1 out of 1496 total

EYVP Paluknis CTAF: 119.100

FIMP Twr/App/Ctr #1 (Archives)
Plaine Magnien, Mauritius

Feed Status: UP
Listen in your browser - HTML5 player(in browser, HTML5)
Click here to listen with your own player(launches your MP3 player)

FIMP 181200Z 16014KT 8000 VCSH FEW010 BKN014 25/23 Q1017


Listeners: 1 out of 1496 total

FIMP Approach: 119.100
FIMP Tower: 118.100
FMEE Approach/Departure: 127.200
Mauritius Centre: 129.300

FIMP Twr/App/Ctr #2 (Archives)
Plaine Magnien, Mauritius

Feed Status: UP
Listen in your browser - HTML5 player(in browser, HTML5)
Click here to listen with your own player(launches your MP3 player)

FIMP 181200Z 16014KT 8000 VCSH FEW010 BKN014 25/23 Q1017


Listeners: 0 out of 1496 total

FIMP Approach: 119.100
FIMP Tower: 118.100
Mauritius Centre: 129.300

FMEE Tower (Archives)
Sainte-Marie, Reunion

Feed Status: UP
Listen in your browser - HTML5 player(in browser, HTML5)
Click here to listen with your own player(launches your MP3 player)

FMEE 181200Z AUTO 11010KT 9999 FEW068 BKN086 28/20 Q1016 TEMPO 09018G28KT


Listeners: 0 out of 1496 total

Gillot Tower: 118.400

FMEP Info (Archives)
Saint-Pierre, Reunion

Feed Status: UP
Listen in your browser - HTML5 player(in browser, HTML5)
Click here to listen with your own player(launches your MP3 player)

FMEP 181200Z AUTO 12012KT 9999 BKN033 OVC044 26/19 Q1018 TEMPO 4000 SHRA


Listeners: 0 out of 1496 total

Saint-Pierre Info: 122.400

FMMI Twr/App/Center (Archives)
Antananarivo, Madagascar

Feed Status: UP
Listen in your browser - HTML5 player(in browser, HTML5)
Click here to listen with your own player(launches your MP3 player)

FMMI 181200Z 14010KT 110V170 9999 FEW020 BKN023 20/14 Q1022 NOSIG


Listeners: 0 out of 1496 total

Ivato Approach: 125.700
Ivato Tower: 120.100
Tana Control: 128.900

GOBD Gnd/Twr/App (Archives)
Dakar, Senegal

Feed Status: UP
Listen in your browser - HTML5 player(in browser, HTML5)
Click here to listen with your own player(launches your MP3 player)

GOBD 181200Z 06012KT CAVOK 32/11 Q1012 NOSIG


Listeners: 0 out of 1496 total

Dakar Approach/Departure: 120.500
Dakar Ground: 121.800
Dakar Tower: 118.800

HAAB Approach
Addis Ababa, Ethiopia

Feed Status: DOWN
Offline since: 2021-04-17 15:00:22 UTC


Bole Approach: 119.700

HAAB Ground
Addis Ababa, Ethiopia

Feed Status: DOWN
Offline since: 2021-04-17 15:00:22 UTC


Bole Ground: 121.900

HAAB Tower
Addis Ababa, Ethiopia

Feed Status: DOWN
Offline since: 2021-04-08 11:39:21 UTC


Bole Tower: 118.100

LBBG Twr/App (Archives)
Burgas, Bulgaria

Feed Status: UP
Listen in your browser - HTML5 player(in browser, HTML5)
Click here to listen with your own player(launches your MP3 player)

LBBG 181230Z 08008KT 9999 BKN008 12/10 Q1014 NOSIG

LBBG Flight Activity (Flightaware)

Listeners: 1 out of 1496 total

Burgas Approach: 125.100
Burgas Tower: 118.000

LBLS Tower/FIC
Lesnovo, Bulgaria

Feed Status: DOWN
Offline since: 2021-01-03 03:01:06 UTC

LBSF 181200Z 27005KT 240V310 7000 BKN019 OVC025 09/04 Q1013 NOSIG

Lesnovo FIC: 130.600
Lesnovo Tower: 122.250

LBPD Tower (Archives)
Plovdiv, Bulgaria

Feed Status: UP
Listen in your browser - HTML5 player(in browser, HTML5)
Click here to listen with your own player(launches your MP3 player)

LBSF 181200Z 27005KT 240V310 7000 BKN019 OVC025 09/04 Q1013 NOSIG

LBSF Flight Activity (Flightaware)

Listeners: 0 out of 1496 total

Plovdiv Tower: 125.500
Plovdiv Tower: 133.600

LBSF ATIS (Archives)
Sofia, Bulgaria

Feed Status: UP
Listen in your browser - HTML5 player(in browser, HTML5)
Click here to listen with your own player(launches your MP3 player)

LBSF 181200Z 27005KT 240V310 7000 BKN019 OVC025 09/04 Q1013 NOSIG

LBSF Flight Activity (Flightaware)

Listeners: 0 out of 1496 total

Sofia ATIS: 126.680

LBSF Sofia Control East (Archives)
Sofia, Bulgaria

Feed Status: UP
Listen in your browser - HTML5 player(in browser, HTML5)
Click here to listen with your own player(launches your MP3 player)

LBSF 181200Z 27005KT 240V310 7000 BKN019 OVC025 09/04 Q1013 NOSIG

LBSF Flight Activity (Flightaware)

Listeners: 3 out of 1496 total

Sofia Control (East/Middle Sector): 129.100
Sofia Control (Varna Sector): 134.700

LBSF Twr/App #1 (Archives)
Sofia, Bulgaria

Feed Status: UP
Listen in your browser - HTML5 player(in browser, HTML5)
Click here to listen with your own player(launches your MP3 player)

LBSF 181200Z 27005KT 240V310 7000 BKN019 OVC025 09/04 Q1013 NOSIG

LBSF Flight Activity (Flightaware)

Listeners: 5 out of 1496 total

Sofia Approach: 123.700
Sofia Approach: 129.900
Sofia Tower: 118.100
Sofia Tower: 120.200

LBSF Twr/App #2 (Archives)
Sofia, Bulgaria

Feed Status: UP
Listen in your browser - HTML5 player(in browser, HTML5)
Click here to listen with your own player(launches your MP3 player)

LBSF 181200Z 27005KT 240V310 7000 BKN019 OVC025 09/04 Q1013 NOSIG

LBSF Flight Activity (Flightaware)

Listeners: 0 out of 1496 total

Sofia Approach: 123.700
Sofia Tower: 118.100

LBWN Tower/Approach (Archives)
Varna, Bulgaria

Feed Status: UP
Listen in your browser - HTML5 player(in browser, HTML5)
Click here to listen with your own player(launches your MP3 player)

LBWN 181200Z 09010KT 9999 OVC015 10/07 Q1014 NOSIG

LBWN Flight Activity (Flightaware)

Listeners: 0 out of 1496 total

Varna Approach: 121.000
Varna Tower: 119.500

Bordeaux Control (Archives)
Bordeaux, France

Feed Status: UP
Listen in your browser - HTML5 player(in browser, HTML5)
Click here to listen with your own player(launches your MP3 player)

LFBD 181200Z AUTO 30008KT 260V030 CAVOK 16/02 Q1022 NOSIG

LFBD Flight Activity (Flightaware)

Listeners: 5 out of 1496 total

Air to Air: 123.450
Bordeaux Control BN FL<300: 127.675
Bordeaux Control L3 FL>300: 134.250
Bordeaux Control R2 FL>300: 133.575
Emergency/Guard: 121.500

LFBD Aquitane Approach (Archives)
Bordeaux, France

Feed Status: UP
Listen in your browser - HTML5 player(in browser, HTML5)
Click here to listen with your own player(launches your MP3 player)

LFBD 181200Z AUTO 30008KT 260V030 CAVOK 16/02 Q1022 NOSIG

LFBD Flight Activity (Flightaware)

Listeners: 2 out of 1496 total

Aquitane Approach: 129.875

LFBD Bordeaux Control Sector X1 (Archives)
Bordeaux, France

Feed Status: UP
Listen in your browser - HTML5 player(in browser, HTML5)
Click here to listen with your own player(launches your MP3 player)

LFBD 181200Z AUTO 30008KT 260V030 CAVOK 16/02 Q1022 NOSIG

LFBD Flight Activity (Flightaware)

Listeners: 0 out of 1496 total

Bordeaux Control (Sector X1): 118.425

LFBD Ground (Archives)
Bordeaux, France

Feed Status: UP
Listen in your browser - HTML5 player(in browser, HTML5)
Click here to listen with your own player(launches your MP3 player)

LFBD 181200Z AUTO 30008KT 260V030 CAVOK 16/02 Q1022 NOSIG

LFBD Flight Activity (Flightaware)

Listeners: 0 out of 1496 total

Merignac Ground: 121.900

LFBD Tower (Archives)
Bordeaux, France

Feed Status: UP
Listen in your browser - HTML5 player(in browser, HTML5)
Click here to listen with your own player(launches your MP3 player)

LFBD 181200Z AUTO 30008KT 260V030 CAVOK 16/02 Q1022 NOSIG

LFBD Flight Activity (Flightaware)

Listeners: 4 out of 1496 total

Merignac Tower: 118.300

LFBU/LFBL Tower (Archives)
Limoges, France

Feed Status: UP
Listen in your browser - HTML5 player(in browser, HTML5)
Click here to listen with your own player(launches your MP3 player)

LFBU 181200Z AUTO 34006KT 280V070 CAVOK 14/02 Q1022 NOSIG

LFBU Flight Activity (Flightaware)

Listeners: 0 out of 1496 total

LFBL Limoges Tower: 124.055
LFBU Angouleme Tower: 123.150
Medoc: 124.325

Bordeaux Control (Archives)
Angouleme, France

Feed Status: UP
Listen in your browser - HTML5 player(in browser, HTML5)
Click here to listen with your own player(launches your MP3 player)

LFBD 181200Z AUTO 30008KT 260V030 CAVOK 16/02 Q1022 NOSIG

LFBD Flight Activity (Flightaware)

Listeners: 5 out of 1496 total

Air to Air: 123.450
Bordeaux Control BN FL<300: 127.675
Bordeaux Control L3 FL>300: 134.250
Bordeaux Control R2 FL>300: 133.575
Emergency/Guard: 121.500

LFBU/LFBL Tower (Archives)
Angouleme, France

Feed Status: UP
Listen in your browser - HTML5 player(in browser, HTML5)
Click here to listen with your own player(launches your MP3 player)

LFBU 181200Z AUTO 34006KT 280V070 CAVOK 14/02 Q1022 NOSIG

LFBU Flight Activity (Flightaware)

Listeners: 0 out of 1496 total

LFBL Limoges Tower: 124.055
LFBU Angouleme Tower: 123.150
Medoc: 124.325

LFLL Tower (Archives)
Lyon, France

Feed Status: UP
Listen in your browser - HTML5 player(in browser, HTML5)
Click here to listen with your own player(launches your MP3 player)

LFLL 181200Z 34013KT 9999 SCT046 SCT053 12/01 Q1018 NOSIG

LFLL Flight Activity (Flightaware)

Listeners: 2 out of 1496 total

Lyon Tower: 120.450

Lyon FIS (Archives)
Lyon, France

Feed Status: UP
Listen in your browser - HTML5 player(in browser, HTML5)
Click here to listen with your own player(launches your MP3 player)

LFLL 181200Z 34013KT 9999 SCT046 SCT053 12/01 Q1018 NOSIG

LFLL Flight Activity (Flightaware)

Listeners: 0 out of 1496 total

Lyon FIS: 135.200

LFLP Twr/LFLB App (Archives)
Annecy, France

Feed Status: UP
Listen in your browser - HTML5 player(in browser, HTML5)
Click here to listen with your own player(launches your MP3 player)

LFLP 181200Z AUTO 35009KT 9999 OVC062 11/01 Q1017 TEMPO FEW050TCU BKN065

LFLP Flight Activity (Flightaware)

Listeners: 1 out of 1496 total

Annecy Tower: 118.200
Chambery Approach: 121.205
Chambery Info: 123.700

LFLY Tower (Archives)
Bron, France

Feed Status: UP
Listen in your browser - HTML5 player(in browser, HTML5)
Click here to listen with your own player(launches your MP3 player)

LFLY 181200Z AUTO 34010KT 310V010 9999 FEW047 SCT054 OVC088 13/01 Q1019 NOSIG

LFLY Flight Activity (Flightaware)

Listeners: 0 out of 1496 total

Lyon-Bron Tower: 118.100

Lyon FIS (Archives)
Bron, France

Feed Status: UP
Listen in your browser - HTML5 player(in browser, HTML5)
Click here to listen with your own player(launches your MP3 player)

LFLL 181200Z 34013KT 9999 SCT046 SCT053 12/01 Q1018 NOSIG

LFLL Flight Activity (Flightaware)

Listeners: 0 out of 1496 total

Lyon FIS: 135.200

LFMD Ground/Tower (Archives)
Cannes, France

Feed Status: UP
Listen in your browser - HTML5 player(in browser, HTML5)
Click here to listen with your own player(launches your MP3 player)

LFMD 181200Z AUTO 18008KT 120V220 9999 SCT062/// ///TCU 15/06 Q1015 TEMPO VRB15G25KT 4000 TSRA SCT010 SCT030CB

LFMD Flight Activity (Flightaware)

Listeners: 1 out of 1496 total

Cannes Ground: 121.805
Cannes Tower: 118.625

LFMN Approach (Archives)
Nice, France

Feed Status: UP
Listen in your browser - HTML5 player(in browser, HTML5)
Click here to listen with your own player(launches your MP3 player)

LFMN 181200Z 16007KT 9999 FEW033TCU SCT130 15/06 Q1015 NOSIG

LFMN Flight Activity (Flightaware)

Listeners: 3 out of 1496 total

Nice Approach: 128.205

LFMN Control (High) (Archives)
Nice, France

Feed Status: UP
Listen in your browser - HTML5 player(in browser, HTML5)
Click here to listen with your own player(launches your MP3 player)

LFMN 181200Z 16007KT 9999 FEW033TCU SCT130 15/06 Q1015 NOSIG

LFMN Flight Activity (Flightaware)

Listeners: 5 out of 1496 total

Marseille Control Sector K1 (FL245-FL305): 126.780

LFMN FIS/Approach (Archives)
Nice, France

Feed Status: UP
Listen in your browser - HTML5 player(in browser, HTML5)
Click here to listen with your own player(launches your MP3 player)

LFMN 181200Z 16007KT 9999 FEW033TCU SCT130 15/06 Q1015 NOSIG

LFMN Flight Activity (Flightaware)

Listeners: 0 out of 1496 total

Nice FIS/Approach (TMA4 NICE 2500ft - FL115): 120.850

LFMN Ground/Tower (Archives)
Nice, France

Feed Status: UP
Listen in your browser - HTML5 player(in browser, HTML5)
Click here to listen with your own player(launches your MP3 player)

LFMN 181200Z 16007KT 9999 FEW033TCU SCT130 15/06 Q1015 NOSIG

LFMN Flight Activity (Flightaware)

Listeners: 1 out of 1496 total

Nice Ground: 121.700
Nice Tower: 118.700

LFPG Tower (Archives)
Paris, France

Feed Status: UP
Listen in your browser - HTML5 player(in browser, HTML5)
Click here to listen with your own player(launches your MP3 player)

LFPG 181200Z 35007KT 320V020 9999 SCT041 SCT210 13/03 Q1022 NOSIG

LFPG Flight Activity (Flightaware)

Listeners: 13 out of 1496 total

De Gaulle Tower: 120.900
De Gaulle Tower: 119.250

LFPO Approach (Archives)
Paris, France

Feed Status: UP
Listen in your browser - HTML5 player(in browser, HTML5)
Click here to listen with your own player(launches your MP3 player)

LFPO 181130Z 04006KT 360V070 9999 FEW041 BKN200 13/04 Q1022 NOSIG

LFPO Flight Activity (Flightaware)

Listeners: 3 out of 1496 total

Orly Approach: 124.450
Orly Approach: 118.850
Orly Approach: 120.850
Orly Approach: 123.875

LFPO Departure (Archives)
Paris, France

Feed Status: UP
Listen in your browser - HTML5 player(in browser, HTML5)
Click here to listen with your own player(launches your MP3 player)

LFPO 181130Z 04006KT 360V070 9999 FEW041 BKN200 13/04 Q1022 NOSIG

LFPO Flight Activity (Flightaware)

Listeners: 2 out of 1496 total

Orly Departure: 127.750

LFPO Tower (Archives)
Paris, France

Feed Status: UP
Listen in your browser - HTML5 player(in browser, HTML5)
Click here to listen with your own player(launches your MP3 player)

LFPO 181130Z 04006KT 360V070 9999 FEW041 BKN200 13/04 Q1022 NOSIG

LFPO Flight Activity (Flightaware)

Listeners: 10 out of 1496 total

Orly Tower: 120.500
Orly Tower: 118.700

LFPZ ATIS (Archives)
Villacoublay, France

Feed Status: UP
Listen in your browser - HTML5 player(in browser, HTML5)
Click here to listen with your own player(launches your MP3 player)

LFPZ Flight Activity (Flightaware)

Listeners: 0 out of 1496 total

St. Cyr-L'Ecole ATIS: 131.025

LFPZ Tower (Archives)
Villacoublay, France

Feed Status: UP
Listen in your browser - HTML5 player(in browser, HTML5)
Click here to listen with your own player(launches your MP3 player)

LFPZ Flight Activity (Flightaware)

Listeners: 1 out of 1496 total

St. Cyr-L'Ecole Tower: 118.000

LFSB Tower (Archives)
Basel, Switzerland

Feed Status: UP
Listen in your browser - HTML5 player(in browser, HTML5)
Click here to listen with your own player(launches your MP3 player)

LFSB 181200Z 32007KT 280V350 9999 BKN033 BKN053 09/02 Q1019 NOSIG

LFSB Flight Activity (Flightaware)

Listeners: 3 out of 1496 total

Mulhouse Tower: 118.300

LGAV App/Radar (Archives)
Athens, Greece

Feed Status: UP
Listen in your browser - HTML5 player(in browser, HTML5)
Click here to listen with your own player(launches your MP3 player)


LGAV Flight Activity (Flightaware)

Listeners: 1 out of 1496 total

Athens Approach: 132.975
Athens Information: 130.925
Athens Information: 119.750
Athens Radar (Kerkira-Kefalinia-Paleohora Sectors FL460-FL345): 134.325
Athens Radar (Milos/Sitia Sectors FL460-FL345): 125.200
Athens Radar (Paleohora /Kerkira Sectors FL460-FL345): 133.725
Athens Radar (Paleohora Sector FL460-FL345): 124.625
Athens Radar (Rhodos/Kavos Sector FL460-FL345): 133.325
Emergency/Guard: 121.500
Makedonia Radar (Thessaloniki/Skopelos/Limnos/Kavala Sectors FL460-FL345): 133.575

LGAV Approach (Arrival)
Athens, Greece

Feed Status: DOWN
Offline since: 2021-02-16 07:39:22 UTC


Athens Approach (Arrival): 132.975

LGAV Clearance Delivery
Athens, Greece

Feed Status: DOWN
Offline since: 2021-04-15 10:00:39 UTC


Athens Clearance Delivery: 118.675

LGAV Director
Athens, Greece

Feed Status: DOWN
Offline since: 2021-04-15 10:00:39 UTC


Athens Director: 121.400

LGAV Ground (North)
Athens, Greece

Feed Status: DOWN
Offline since: 2021-04-15 10:00:39 UTC


Athens Ground (North): 121.750

LGAV Ground (South)
Athens, Greece

Feed Status: DOWN
Offline since: 2021-04-15 10:00:39 UTC


Athens Ground (South): 121.950

LGAV Tower (Rwy 3L/21R)
Athens, Greece

Feed Status: DOWN
Offline since: 2021-04-15 10:00:39 UTC


Athens Tower (Rwy 03L/21R): 136.275

LGAV Tower (Rwy 3R/21L)
Athens, Greece

Feed Status: DOWN
Offline since: 2021-04-15 10:00:39 UTC


Athens Tower (Rwy 03R/21L): 118.625

LHBP Approach (Archives)
Budapest, Hungary

Feed Status: UP
Listen in your browser - HTML5 player(in browser, HTML5)
Click here to listen with your own player(launches your MP3 player)

LHBP 181230Z 05008KT 020V080 9999 -RA BKN034 OVC087 11/04 Q1016 NOSIG

LHBP Flight Activity (Flightaware)

Listeners: 2 out of 1496 total

Budapest Approach: 122.975
Budapest Approach (Upper): 123.860

LHBP Approach (Director) (Archives)
Budapest, Hungary

Feed Status: UP
Listen in your browser - HTML5 player(in browser, HTML5)
Click here to listen with your own player(launches your MP3 player)

LHBP 181230Z 05008KT 020V080 9999 -RA BKN034 OVC087 11/04 Q1016 NOSIG

LHBP Flight Activity (Flightaware)

Listeners: 0 out of 1496 total

Budapest Director: 119.510

LHBP ATIS (Archives)
Budapest, Hungary

Feed Status: UP
Listen in your browser - HTML5 player(in browser, HTML5)
Click here to listen with your own player(launches your MP3 player)

LHBP 181230Z 05008KT 020V080 9999 -RA BKN034 OVC087 11/04 Q1016 NOSIG

LHBP Flight Activity (Flightaware)

Listeners: 0 out of 1496 total

Budapest ATIS: 132.380

LHBP Clearance Delivery (Archives)
Budapest, Hungary

Feed Status: UP
Listen in your browser - HTML5 player(in browser, HTML5)
Click here to listen with your own player(launches your MP3 player)

LHBP 181230Z 05008KT 020V080 9999 -RA BKN034 OVC087 11/04 Q1016 NOSIG

LHBP Flight Activity (Flightaware)

Listeners: 0 out of 1496 total

Budapest Clearance Delivery: 134.540

LHBP Ground (Archives)
Budapest, Hungary

Feed Status: UP
Listen in your browser - HTML5 player(in browser, HTML5)
Click here to listen with your own player(launches your MP3 player)

LHBP 181230Z 05008KT 020V080 9999 -RA BKN034 OVC087 11/04 Q1016 NOSIG

LHBP Flight Activity (Flightaware)

Listeners: 0 out of 1496 total

Budapest Ground: 121.910

LHBP Info (Archives)
Budapest, Hungary

Feed Status: UP
Listen in your browser - HTML5 player(in browser, HTML5)
Click here to listen with your own player(launches your MP3 player)

LHBP 181230Z 05008KT 020V080 9999 -RA BKN034 OVC087 11/04 Q1016 NOSIG

LHBP Flight Activity (Flightaware)

Listeners: 3 out of 1496 total

Budapest Info: 119.350

LHBP Tower (Archives)
Budapest, Hungary

Feed Status: UP
Listen in your browser - HTML5 player(in browser, HTML5)
Click here to listen with your own player(launches your MP3 player)

LHBP 181230Z 05008KT 020V080 9999 -RA BKN034 OVC087 11/04 Q1016 NOSIG

LHBP Flight Activity (Flightaware)

Listeners: 7 out of 1496 total

Budapest Tower: 118.100

LHBP Twr/Info (Archives)
Budapest, Hungary

Feed Status: UP
Listen in your browser - HTML5 player(in browser, HTML5)
Click here to listen with your own player(launches your MP3 player)

LHBP 181230Z 05008KT 020V080 9999 -RA BKN034 OVC087 11/04 Q1016 NOSIG

LHBP Flight Activity (Flightaware)

Listeners: 0 out of 1496 total

Budapest Info: 119.350
Budapest Tower: 118.100

LHCC Control (East/West) (Archives)
Budapest, Hungary

Feed Status: UP
Listen in your browser - HTML5 player(in browser, HTML5)
Click here to listen with your own player(launches your MP3 player)

LHBP 181230Z 05008KT 020V080 9999 -RA BKN034 OVC087 11/04 Q1016 NOSIG

LHBP Flight Activity (Flightaware)

Listeners: 0 out of 1496 total

Budapest Control (East Low Sector): 120.375
Budapest Control (West Low Sector): 133.200

LHDC Info/Tower (Archives)
Debrecen, Hungary

Feed Status: UP
Listen in your browser - HTML5 player(in browser, HTML5)
Click here to listen with your own player(launches your MP3 player)

LHDC 181145Z AUTO 10005KT 060V120 9999 BKN033 11/05 Q1016

LHDC Flight Activity (Flightaware)

Listeners: 0 out of 1496 total

Debrecen Info/Tower: 125.900

LHEM CTAF (Archives)
Esztergom, Hungary

Feed Status: UP
Listen in your browser - HTML5 player(in browser, HTML5)
Click here to listen with your own player(launches your MP3 player)

LHEM Flight Activity (Flightaware)

Listeners: 0 out of 1496 total

Esztergom CTAF: 126.850

LHOY CTAF (Archives)
Ocseny, Hungary

Feed Status: UP
Listen in your browser - HTML5 player(in browser, HTML5)
Click here to listen with your own player(launches your MP3 player)

LHOY Flight Activity (Flightaware)

Listeners: 0 out of 1496 total

Ocseny CTAF: 122.830

LHPR Info/AFIS (Archives)
Gyor, Hungary

Feed Status: UP
Listen in your browser - HTML5 player(in browser, HTML5)
Click here to listen with your own player(launches your MP3 player)

LHPR 181145Z AUTO 33009KT 300V010 9999 FEW026 BKN115 11/05 Q1017 NOSIG

LHPR Flight Activity (Flightaware)

Listeners: 1 out of 1496 total

Gyor AFIS: 129.910

LJLJ Info (Archives)
Ljubljana, Slovenia

Feed Status: UP
Listen in your browser - HTML5 player(in browser, HTML5)
Click here to listen with your own player(launches your MP3 player)

LJLJ 181200Z 11005KT 060V190 9999 SCT030 BKN050 10/02 Q1016 NOSIG

LJLJ Flight Activity (Flightaware)

Listeners: 0 out of 1496 total

Ljubljana Info: 118.475

LJLJ Radar (Archives)
Ljubljana, Slovenia

Feed Status: UP
Listen in your browser - HTML5 player(in browser, HTML5)
Click here to listen with your own player(launches your MP3 player)

LJLJ 181200Z 11005KT 060V190 9999 SCT030 BKN050 10/02 Q1016 NOSIG

LJLJ Flight Activity (Flightaware)

Listeners: 1 out of 1496 total

Ljubljana Approach: 135.275

LJLJ Tower (Archives)
Ljubljana, Slovenia

Feed Status: UP
Listen in your browser - HTML5 player(in browser, HTML5)
Click here to listen with your own player(launches your MP3 player)

LJLJ 181200Z 11005KT 060V190 9999 SCT030 BKN050 10/02 Q1016 NOSIG

LJLJ Flight Activity (Flightaware)

Listeners: 0 out of 1496 total

Ljubljana Tower: 118.000

LJMB Tower (Archives)
Maribor, Slovenia

Feed Status: UP
Listen in your browser - HTML5 player(in browser, HTML5)
Click here to listen with your own player(launches your MP3 player)

LJMB 181200Z 08003KT 010V120 9999 BKN040 OVC100 10/04 Q1016

LJMB Flight Activity (Flightaware)

Listeners: 0 out of 1496 total

Maribor Tower/Approach: 119.200

LJMS CTAF (Archives)
Murska Sobota, Slovenia

Feed Status: UP
Listen in your browser - HTML5 player(in browser, HTML5)
Click here to listen with your own player(launches your MP3 player)

LJMS Flight Activity (Flightaware)

Listeners: 0 out of 1496 total

Murska Sobota Aerodrome Radio: 123.500

LJPZ Tower (Archives)
Secovlje, Slovenia

Feed Status: UP
Listen in your browser - HTML5 player(in browser, HTML5)
Click here to listen with your own player(launches your MP3 player)

LJPZ 181200Z 05005KT 020V090 9999 FEW050 BKN075 13/01 Q1016

LJPZ Flight Activity (Flightaware)

Listeners: 0 out of 1496 total

Portoroz Tower: 124.875

LKKV Tower (Archives)
Karlovy Vary, Czech Republic

Feed Status: UP
Listen in your browser - HTML5 player(in browser, HTML5)
Click here to listen with your own player(launches your MP3 player)

LKKV 181200Z 31004KT 280V360 9999 SCT020 07/02 Q1018

LKKV Flight Activity (Flightaware)

Listeners: 1 out of 1496 total

Vary Tower: 121.230

LKPM Tower (Archives)
Pribram, Czech Republic

Feed Status: UP
Listen in your browser - HTML5 player(in browser, HTML5)
Click here to listen with your own player(launches your MP3 player)

LKPM Flight Activity (Flightaware)

Listeners: 0 out of 1496 total

Pribram Tower: 118.755

LKAA FIR (High) (Archives)
Prague, Czech Republic

Feed Status: UP
Listen in your browser - HTML5 player(in browser, HTML5)
Click here to listen with your own player(launches your MP3 player)

LKAA Flight Activity (Flightaware)

Listeners: 0 out of 1496 total

LKAA FIR Sector West High / Praha Radar : 132.065

LKAA FIR (Low) (Archives)
Prague, Czech Republic

Feed Status: UP
Listen in your browser - HTML5 player(in browser, HTML5)
Click here to listen with your own player(launches your MP3 player)

LKAA Flight Activity (Flightaware)

Listeners: 0 out of 1496 total

LKAA FIR Sector West Low / Praha Radar: 120.275

LKPR Approach (Archives)
Prague, Czech Republic

Feed Status: UP
Listen in your browser - HTML5 player(in browser, HTML5)
Click here to listen with your own player(launches your MP3 player)

LKPR 181200Z 31004KT 240V030 9999 BKN028 10/04 Q1018 NOSIG

LKPR Flight Activity (Flightaware)

Listeners: 2 out of 1496 total

Prague Approach/Radar: 127.580

LKPR Clearance Del (Archives)
Prague, Czech Republic

Feed Status: UP
Listen in your browser - HTML5 player(in browser, HTML5)
Click here to listen with your own player(launches your MP3 player)

LKPR 181200Z 31004KT 240V030 9999 BKN028 10/04 Q1018 NOSIG

LKPR Flight Activity (Flightaware)

Listeners: 0 out of 1496 total

Prague/Ruzyne Clearance Delivery: 120.060

LKPR Director/Ruzyne Radar (Archives)
Prague, Czech Republic

Feed Status: UP
Listen in your browser - HTML5 player(in browser, HTML5)
Click here to listen with your own player(launches your MP3 player)

LKPR 181200Z 31004KT 240V030 9999 BKN028 10/04 Q1018 NOSIG

LKPR Flight Activity (Flightaware)

Listeners: 1 out of 1496 total

Prague Director/Ruzyne Radar: 119.010

LKPR Ground (Archives)
Prague, Czech Republic

Feed Status: UP
Listen in your browser - HTML5 player(in browser, HTML5)
Click here to listen with your own player(launches your MP3 player)

LKPR 181200Z 31004KT 240V030 9999 BKN028 10/04 Q1018 NOSIG

LKPR Flight Activity (Flightaware)

Listeners: 0 out of 1496 total

Prague/Ruzyne Ground: 121.910

LKPR Tower (Archives)
Prague, Czech Republic

Feed Status: UP
Listen in your browser - HTML5 player(in browser, HTML5)
Click here to listen with your own player(launches your MP3 player)

LKPR 181200Z 31004KT 240V030 9999 BKN028 10/04 Q1018 NOSIG

LKPR Flight Activity (Flightaware)

Listeners: 3 out of 1496 total

Prague/Ruzyne Tower: 134.560

LKTB Gnd/Twr/Radar (Archives)
Brno, Czech Republic

Feed Status: UP
Listen in your browser - HTML5 player(in browser, HTML5)
Click here to listen with your own player(launches your MP3 player)

LKTB 181200Z 32005KT 240V350 9999 BKN025 10/03 Q1017 NOSIG

LKTB Flight Activity (Flightaware)

Listeners: 1 out of 1496 total

Brno Ground: 125.430
Brno Handling: 131.800
Brno Tower: 119.605
Praha Radar (Approach): 127.350

LMML GndTwr/App/Control (Archives)
Luqa, Malta

Feed Status: UP
Listen in your browser - HTML5 player(in browser, HTML5)
Click here to listen with your own player(launches your MP3 player)

LMML 181215Z 30010KT 260V330 9999 FEW030 19/10 Q1016 NOSIG

LMML Flight Activity (Flightaware)

Listeners: 3 out of 1496 total

Emergency/Guard: 121.500
Luqa Ground: 121.600
Luqa Radar: 128.150
Luqa Tower: 135.100
Malta Radar - East (Primary): 122.775
Malta Radar - East (Secondary): 123.625
Malta Radar - UHF: 284.500
Malta Radar - West (Primary): 130.975
Malta Radar - West (Secondary): 127.525

LPMA App/LPPC Center (Archives)
Madeira, Portugal

Feed Status: UP
Listen in your browser - HTML5 player(in browser, HTML5)
Click here to listen with your own player(launches your MP3 player)

LPPC Flight Activity (Flightaware)

Listeners: 1 out of 1496 total

Lisboa Control (Madeira Sector): 132.255
Madeira Approach: 119.605

LPMA Approach
Madeira, Portugal

Feed Status: DOWN
Offline since: 2021-04-18 03:00:39 UTC

LPMA 181200Z 14005KT 090V170 9999 FEW015 20/14 Q1023

Madeira Approach: 119.605

LPPR Approach #1 (Archives)
Porto, Portugal

Feed Status: UP
Listen in your browser - HTML5 player(in browser, HTML5)
Click here to listen with your own player(launches your MP3 player)

LPPR 181200Z 19004KT 130V290 CAVOK 21/04 Q1020

LPPR Flight Activity (Flightaware)

Listeners: 1 out of 1496 total

Porto Approach: 121.105

LPPT Approach (Archives)
Lisbon, Portugal

Feed Status: UP
Listen in your browser - HTML5 player(in browser, HTML5)
Click here to listen with your own player(launches your MP3 player)

LPPT 181200Z 10006G17KT 030V190 9999 FEW030 21/09 Q1020

LPPT Flight Activity (Flightaware)

Listeners: 7 out of 1496 total

Lisbon Approach: 119.105

LRCL Twr/App #1 (Archives)
Cluj-Napoca, Romania

Feed Status: UP
Listen in your browser - HTML5 player(in browser, HTML5)
Click here to listen with your own player(launches your MP3 player)

LRCL 181200Z 18006KT 140V210 9999 -RA OVC044 11/02 Q1015

LRCL Flight Activity (Flightaware)

Listeners: 1 out of 1496 total

Cluj Approach: 126.425
Cluj Tower: 118.705

LRCL Twr/App/ACC (Archives)
Cluj-Napoca, Romania

Feed Status: UP
Listen in your browser - HTML5 player(in browser, HTML5)
Click here to listen with your own player(launches your MP3 player)

LRCL 181200Z 18006KT 140V210 9999 -RA OVC044 11/02 Q1015

LRCL Flight Activity (Flightaware)

Listeners: 0 out of 1496 total

Cluj Approach: 126.425
Cluj Tower: 118.705
Napoc ACC: 127.075

LROP Ground (Archives)
Bucharest, Romania

Feed Status: UP
Listen in your browser - HTML5 player(in browser, HTML5)
Click here to listen with your own player(launches your MP3 player)

LROP 181200Z 03009KT 9999 -SHRA FEW050CB 09/05 Q1016 R88/29//95 NOSIG

LROP Flight Activity (Flightaware)

Listeners: 0 out of 1496 total

Bucharest Ground: 121.855

LROP Radar (Archives)
Bucharest, Romania

Feed Status: UP
Listen in your browser - HTML5 player(in browser, HTML5)
Click here to listen with your own player(launches your MP3 player)

LROP 181200Z 03009KT 9999 -SHRA FEW050CB 09/05 Q1016 R88/29//95 NOSIG

LROP Flight Activity (Flightaware)

Listeners: 0 out of 1496 total

Bucharest Radar (Arges Mid sector): 121.175
Bucharest Radar (Arges Top Sector): 123.265
Bucharest Radar (Lomos Top Sector): 132.865

LROP Tower/Approach (Archives)
Bucharest, Romania

Feed Status: UP
Listen in your browser - HTML5 player(in browser, HTML5)
Click here to listen with your own player(launches your MP3 player)

LROP 181200Z 03009KT 9999 -SHRA FEW050CB 09/05 Q1016 R88/29//95 NOSIG

LROP Flight Activity (Flightaware)

Listeners: 0 out of 1496 total

Bucharest Approach: 119.415
Bucharest Director: 127.155
Bucharest Tower: 118.805

LROP Twr/App/Radar (Archives)
Bucharest, Romania

Feed Status: UP
Listen in your browser - HTML5 player(in browser, HTML5)
Click here to listen with your own player(launches your MP3 player)

LROP 181200Z 03009KT 9999 -SHRA FEW050CB 09/05 Q1016 R88/29//95 NOSIG

LROP Flight Activity (Flightaware)

Listeners: 10 out of 1496 total

Bucharest Approach: 119.415
Bucharest Director: 127.155
Bucharest Radar (Arges Mid sector): 121.175
Bucharest Radar (Arges Top Sector): 123.265
Bucharest Radar (Lomos Top Sector): 132.865
Bucharest Tower: 118.805

LRSB Tower/CTAF (Archives)
Sibiu, Romania

Feed Status: UP
Listen in your browser - HTML5 player(in browser, HTML5)
Click here to listen with your own player(launches your MP3 player)

LRSB 181200Z 11012KT 9999 -RA FEW017 BKN036 OVC068 10/04 Q1015 NOSIG

LRSB Flight Activity (Flightaware)

Listeners: 0 out of 1496 total

Sibiu Tower: 121.305

LRTR Tower (Archives)
Timisoara, Romania

Feed Status: UP
Listen in your browser - HTML5 player(in browser, HTML5)
Click here to listen with your own player(launches your MP3 player)

LRTR 181200Z 22004KT 180V250 9999 -RA FEW013 SCT025 09/08 Q1016 R11/290095

LRTR Flight Activity (Flightaware)

Listeners: 0 out of 1496 total

ARAD Approach: 127.250
Timisoara Tower: 120.100

LSGS Gnd/Twr/App (Archives)
Sion, Switzerland

Feed Status: UP
Listen in your browser - HTML5 player(in browser, HTML5)
Click here to listen with your own player(launches your MP3 player)

LSGS 181220Z 25011KT 9999 SCT070 BKN100 13/M00 Q1015

LSGS Flight Activity (Flightaware)

Listeners: 1 out of 1496 total

Alpine Jet Service Handling: 131.675
Sion Airport Handling: 131.475
Sion Approach (IFR ARR MIL OFF): 126.825
Sion Ground: 121.700
Sion Tower: 118.275

LSMD Tower (Archives)
Dubendorf, Switzerland

Feed Status: UP
Listen in your browser - HTML5 player(in browser, HTML5)
Click here to listen with your own player(launches your MP3 player)

LSZH 181220Z VRB03KT 9999 SCT035 BKN052 08/01 Q1019 NOSIG

LSZH Flight Activity (Flightaware)

Listeners: 1 out of 1496 total

Dubendorf Tower: 118.975

LSPM AFIS (Archives)
Ambri, Switzerland

Feed Status: UP
Listen in your browser - HTML5 player(in browser, HTML5)
Click here to listen with your own player(launches your MP3 player)

LSPM Flight Activity (Flightaware)

Listeners: 0 out of 1496 total

Ambri AFIS: 118.525

LSZA Tower (Archives)
Agno, Switzerland

Feed Status: UP
Listen in your browser - HTML5 player(in browser, HTML5)
Click here to listen with your own player(launches your MP3 player)

LSZA 181220Z 16006KT 090V210 9999 BKN095 13/00 Q1015

LSZA Flight Activity (Flightaware)

Listeners: 0 out of 1496 total

Lugano Tower: 120.250

LSZB Twr/App/Dep (Archives)
Bern, Switzerland

Feed Status: UP
Listen in your browser - HTML5 player(in browser, HTML5)
Click here to listen with your own player(launches your MP3 player)

LSZB 181220Z 31005KT 270V350 9999 BKN039 10/01 Q1017 NOSIG

LSZB Flight Activity (Flightaware)

Listeners: 2 out of 1496 total

LSZB Arrival/Departure: 127.325
LSZB Tower: 121.025

LSZG Tower (Archives)
Grenchen, Switzerland

Feed Status: UP
Listen in your browser - HTML5 player(in browser, HTML5)
Click here to listen with your own player(launches your MP3 player)

LSZG 181220Z 06003KT 9999 SCT030 BKN044 08/01 Q1019 NOSIG

LSZG Flight Activity (Flightaware)

Listeners: 0 out of 1496 total

Grenchen Tower: 120.100

LSZH Approach (East) (Archives)
Zurich, Switzerland

Feed Status: UP
Listen in your browser - HTML5 player(in browser, HTML5)
Click here to listen with your own player(launches your MP3 player)

LSZH 181220Z VRB03KT 9999 SCT035 BKN052 08/01 Q1019 NOSIG

LSZH Flight Activity (Flightaware)

Listeners: 1 out of 1496 total

Zurich Approach (East): 135.225

LSZH Approach (West) (Archives)
Zurich, Switzerland

Feed Status: UP
Listen in your browser - HTML5 player(in browser, HTML5)
Click here to listen with your own player(launches your MP3 player)

LSZH 181220Z VRB03KT 9999 SCT035 BKN052 08/01 Q1019 NOSIG

LSZH Flight Activity (Flightaware)

Listeners: 0 out of 1496 total

Zurich Approach (West): 118.000

LSZH Apron (South) (Archives)
Zurich, Switzerland

Feed Status: UP
Listen in your browser - HTML5 player(in browser, HTML5)
Click here to listen with your own player(launches your MP3 player)

LSZH 181220Z VRB03KT 9999 SCT035 BKN052 08/01 Q1019 NOSIG

LSZH Flight Activity (Flightaware)

Listeners: 3 out of 1496 total

Zurich Apron (South): 121.755

LSZH Apron (West) (Archives)
Zurich, Switzerland

Feed Status: UP
Listen in your browser - HTML5 player(in browser, HTML5)
Click here to listen with your own player(launches your MP3 player)

LSZH 181220Z VRB03KT 9999 SCT035 BKN052 08/01 Q1019 NOSIG

LSZH Flight Activity (Flightaware)

Listeners: 1 out of 1496 total

Zurich Apron (West): 121.855

LSZH Clearance Delivery (Archives)
Zurich, Switzerland

Feed Status: UP
Listen in your browser - HTML5 player(in browser, HTML5)
Click here to listen with your own player(launches your MP3 player)

LSZH 181220Z VRB03KT 9999 SCT035 BKN052 08/01 Q1019 NOSIG

LSZH Flight Activity (Flightaware)

Listeners: 1 out of 1496 total

Zurich Clearance Delivery: 121.925

LSZH Ground (Archives)
Zurich, Switzerland

Feed Status: UP
Listen in your browser - HTML5 player(in browser, HTML5)
Click here to listen with your own player(launches your MP3 player)

LSZH 181220Z VRB03KT 9999 SCT035 BKN052 08/01 Q1019 NOSIG

LSZH Flight Activity (Flightaware)

Listeners: 0 out of 1496 total

Zurich Ground: 121.905

LSZH Radar 132.815 (Archives)
Zurich, Switzerland

Feed Status: UP
Listen in your browser - HTML5 player(in browser, HTML5)
Click here to listen with your own player(launches your MP3 player)

LSZH 181220Z VRB03KT 9999 SCT035 BKN052 08/01 Q1019 NOSIG

LSZH Flight Activity (Flightaware)

Listeners: 4 out of 1496 total

Zurich Radar: 132.815

LSZH Radar 133.050 (Archives)
Zurich, Switzerland

Feed Status: UP
Listen in your browser - HTML5 player(in browser, HTML5)
Click here to listen with your own player(launches your MP3 player)

LSZH 181220Z VRB03KT 9999 SCT035 BKN052 08/01 Q1019 NOSIG

LSZH Flight Activity (Flightaware)

Listeners: 0 out of 1496 total

Zurich Radar: 133.050

LSZH Radar 133.405 (Archives)
Zurich, Switzerland

Feed Status: UP
Listen in your browser - HTML5 player(in browser, HTML5)
Click here to listen with your own player(launches your MP3 player)

LSZH 181220Z VRB03KT 9999 SCT035 BKN052 08/01 Q1019 NOSIG

LSZH Flight Activity (Flightaware)

Listeners: 0 out of 1496 total

Zurich Radar: 133.405

LSZH Radar 133.690 (Archives)
Zurich, Switzerland

Feed Status: UP
Listen in your browser - HTML5 player(in browser, HTML5)
Click here to listen with your own player(launches your MP3 player)

LSZH 181220Z VRB03KT 9999 SCT035 BKN052 08/01 Q1019 NOSIG

LSZH Flight Activity (Flightaware)

Listeners: 0 out of 1496 total

Zurich Radar: 133.690

LSZH Radar 133.905 (Archives)
Zurich, Switzerland

Feed Status: UP
Listen in your browser - HTML5 player(in browser, HTML5)
Click here to listen with your own player(launches your MP3 player)

LSZH 181220Z VRB03KT 9999 SCT035 BKN052 08/01 Q1019 NOSIG

LSZH Flight Activity (Flightaware)

Listeners: 2 out of 1496 total

Zurich Radar (Below FL240 East): 133.905

LSZH Radar 134.605 (Archives)
Zurich, Switzerland

Feed Status: UP
Listen in your browser - HTML5 player(in browser, HTML5)
Click here to listen with your own player(launches your MP3 player)

LSZH 181220Z VRB03KT 9999 SCT035 BKN052 08/01 Q1019 NOSIG

LSZH Flight Activity (Flightaware)

Listeners: 0 out of 1496 total

Zurich Radar (FL330-350): 134.605

LSZH Radar 135.680 (Archives)
Zurich, Switzerland

Feed Status: UP
Listen in your browser - HTML5 player(in browser, HTML5)
Click here to listen with your own player(launches your MP3 player)

LSZH 181220Z VRB03KT 9999 SCT035 BKN052 08/01 Q1019 NOSIG

LSZH Flight Activity (Flightaware)

Listeners: 0 out of 1496 total


LSZH Radar 136.155 (Archives)
Zurich, Switzerland

Feed Status: UP
Listen in your browser - HTML5 player(in browser, HTML5)
Click here to listen with your own player(launches your MP3 player)

LSZH 181220Z VRB03KT 9999 SCT035 BKN052 08/01 Q1019 NOSIG

LSZH Flight Activity (Flightaware)

Listeners: 0 out of 1496 total

Zurich Radar (Below FL240 North): 136.155

LSZH Tower (Archives)
Zurich, Switzerland

Feed Status: UP
Listen in your browser - HTML5 player(in browser, HTML5)
Click here to listen with your own player(launches your MP3 player)

LSZH 181220Z VRB03KT 9999 SCT035 BKN052 08/01 Q1019 NOSIG

LSZH Flight Activity (Flightaware)

Listeners: 15 out of 1496 total

Zurich Tower: 118.100

LSZH Tower (14/32) (Archives)
Zurich, Switzerland

Feed Status: UP
Listen in your browser - HTML5 player(in browser, HTML5)
Click here to listen with your own player(launches your MP3 player)

LSZH 181220Z VRB03KT 9999 SCT035 BKN052 08/01 Q1019 NOSIG

LSZH Flight Activity (Flightaware)

Listeners: 0 out of 1496 total

Zurich Tower (Rwy 14 App/32 Takeoff): 120.225

LSZH Twr/Gnd (backup) (Archives)
Zurich, Switzerland

Feed Status: UP
Listen in your browser - HTML5 player(in browser, HTML5)
Click here to listen with your own player(launches your MP3 player)

LSZH 181220Z VRB03KT 9999 SCT035 BKN052 08/01 Q1019 NOSIG

LSZH Flight Activity (Flightaware)

Listeners: 0 out of 1496 total

Zurich Twr/Gnd (backup): 119.700

LSZL Tower (Archives)
Locarno, Switzerland

Feed Status: UP
Listen in your browser - HTML5 player(in browser, HTML5)
Click here to listen with your own player(launches your MP3 player)

LSZL 181220Z AUTO 25006KT 210V280 9999NDV SCT095 14/02 Q1014 RMK

LSZL Flight Activity (Flightaware)

Listeners: 1 out of 1496 total


LSZN CTAF (Archives)
Zurich, Switzerland

Feed Status: UP
Listen in your browser - HTML5 player(in browser, HTML5)
Click here to listen with your own player(launches your MP3 player)

LSZN Flight Activity (Flightaware)

Listeners: 0 out of 1496 total

Hausen am Albis CTAF: 130.755

LSZR Tower (Archives)
Altenrhein, Switzerland

Feed Status: UP
Listen in your browser - HTML5 player(in browser, HTML5)
Click here to listen with your own player(launches your MP3 player)

LSZR 181220Z 28006KT 8000 FEW020 SCT038 BKN085 08/03 Q1019 NOSIG RMK F

LSZR Flight Activity (Flightaware)

Listeners: 0 out of 1496 total

Altenrhein Tower: 135.425

LSZW CTAF (Archives)
Thun, Switzerland

Feed Status: UP
Listen in your browser - HTML5 player(in browser, HTML5)
Click here to listen with your own player(launches your MP3 player)

LSZW Flight Activity (Flightaware)

Listeners: 0 out of 1496 total

Thun CTAF/Info: 123.250

LTBA Gnd/Twr/App (Archives)
Istanbul, Turkey

Feed Status: UP
Listen in your browser - HTML5 player(in browser, HTML5)
Click here to listen with your own player(launches your MP3 player)

LTBA 181220Z 35008KT 9999 SCT025 BKN100 13/10 Q1013 NOSIG RMK RWY23 34008KT

LTBA Flight Activity (Flightaware)

Listeners: 3 out of 1496 total

Istanbul Approach: 126.425
Istanbul Ground: 121.800
Istanbul Tower: 118.100

LTFJ Del/Gnd/Twr (Archives)
Istanbul, Turkey

Feed Status: UP
Listen in your browser - HTML5 player(in browser, HTML5)
Click here to listen with your own player(launches your MP3 player)

LTFJ 181220Z 21005KT 9999 FEW010 BKN100 14/10 Q1013 NOSIG RMK RWY24 VRB03KT

LTFJ Flight Activity (Flightaware)

Listeners: 3 out of 1496 total

Pegasus Dispatch: 131.750

LUKK ACC #1 (Archives)
Chisinau, Moldova

Feed Status: UP
Listen in your browser - HTML5 player(in browser, HTML5)
Click here to listen with your own player(launches your MP3 player)

LUKK 181230Z 10005KT 060V160 CAVOK 15/03 Q1016 R08/CLRD// NOSIG

LUKK Flight Activity (Flightaware)

Listeners: 0 out of 1496 total

Chisinau ACC: 130.975

LUKK ACC #2 (Archives)
Chisinau, Moldova

Feed Status: UP
Listen in your browser - HTML5 player(in browser, HTML5)
Click here to listen with your own player(launches your MP3 player)

LUKK 181230Z 10005KT 060V160 CAVOK 15/03 Q1016 R08/CLRD// NOSIG

LUKK Flight Activity (Flightaware)

Listeners: 0 out of 1496 total

Chisinau ACC: 128.975

LUKK Air to Air (Archives)
Chisinau, Moldova

Feed Status: UP
Listen in your browser - HTML5 player(in browser, HTML5)
Click here to listen with your own player(launches your MP3 player)

LUKK 181230Z 10005KT 060V160 CAVOK 15/03 Q1016 R08/CLRD// NOSIG

LUKK Flight Activity (Flightaware)

Listeners: 0 out of 1496 total

Chisinau Air to Air: 123.450

LUKK Alternate (Archives)
Chisinau, Moldova

Feed Status: UP
Listen in your browser - HTML5 player(in browser, HTML5)
Click here to listen with your own player(launches your MP3 player)

LUKK 181230Z 10005KT 060V160 CAVOK 15/03 Q1016 R08/CLRD// NOSIG

LUKK Flight Activity (Flightaware)

Listeners: 0 out of 1496 total

Chisinau Alternate: 129.725

LUKK Approach #1 (Archives)
Chisinau, Moldova

Feed Status: UP
Listen in your browser - HTML5 player(in browser, HTML5)
Click here to listen with your own player(launches your MP3 player)

LUKK 181230Z 10005KT 060V160 CAVOK 15/03 Q1016 R08/CLRD// NOSIG

LUKK Flight Activity (Flightaware)

Listeners: 0 out of 1496 total

Chisinau Approach: 133.300

LUKK Approach #2 (Archives)
Chisinau, Moldova

Feed Status: UP
Listen in your browser - HTML5 player(in browser, HTML5)
Click here to listen with your own player(launches your MP3 player)

LUKK 181230Z 10005KT 060V160 CAVOK 15/03 Q1016 R08/CLRD// NOSIG

LUKK Flight Activity (Flightaware)

Listeners: 0 out of 1496 total

Chisinau Approach: 133.300

LUKK Emergency/Guard (Archives)
Chisinau, Moldova

Feed Status: UP
Listen in your browser - HTML5 player(in browser, HTML5)
Click here to listen with your own player(launches your MP3 player)

LUKK 181230Z 10005KT 060V160 CAVOK 15/03 Q1016 R08/CLRD// NOSIG

LUKK Flight Activity (Flightaware)

Listeners: 0 out of 1496 total

Emergency/Guard: 121.500

LUKK Ground #2 (Archives)
Chisinau, Moldova

Feed Status: UP
Listen in your browser - HTML5 player(in browser, HTML5)
Click here to listen with your own player(launches your MP3 player)

LUKK 181230Z 10005KT 060V160 CAVOK 15/03 Q1016 R08/CLRD// NOSIG

LUKK Flight Activity (Flightaware)

Listeners: 0 out of 1496 total

Chisinau Ground: 121.800

LUKK Handling (Archives)
Chisinau, Moldova

Feed Status: UP
Listen in your browser - HTML5 player(in browser, HTML5)
Click here to listen with your own player(launches your MP3 player)

LUKK 181230Z 10005KT 060V160 CAVOK 15/03 Q1016 R08/CLRD// NOSIG

LUKK Flight Activity (Flightaware)

Listeners: 0 out of 1496 total

Chisinau Handling: 131.700

LUKK Tower #2 (Archives)
Chisinau, Moldova

Feed Status: UP
Listen in your browser - HTML5 player(in browser, HTML5)
Click here to listen with your own player(launches your MP3 player)

LUKK 181230Z 10005KT 060V160 CAVOK 15/03 Q1016 R08/CLRD// NOSIG

LUKK Flight Activity (Flightaware)

Listeners: 0 out of 1496 total

Chisinau Tower: 118.100

LWSK ACC (Lower) (Archives)
Petrovec, North Macedonia, Republic of

Feed Status: UP
Listen in your browser - HTML5 player(in browser, HTML5)
Click here to listen with your own player(launches your MP3 player)

LWSK 181230Z 01006KT 350V050 9999 SCT023 OVC040 11/07 Q1014 NOSIG

LWSK Flight Activity (Flightaware)

Listeners: 0 out of 1496 total

Skopje Control (Lower): 119.375

LWSK ACC (Upper) (Archives)
Petrovec, North Macedonia, Republic of

Feed Status: UP
Listen in your browser - HTML5 player(in browser, HTML5)
Click here to listen with your own player(launches your MP3 player)

LWSK 181230Z 01006KT 350V050 9999 SCT023 OVC040 11/07 Q1014 NOSIG

LWSK Flight Activity (Flightaware)

Listeners: 0 out of 1496 total

Skopje Control (Upper): 120.015

LWSK Approach (Archives)
Petrovec, North Macedonia, Republic of

Feed Status: UP
Listen in your browser - HTML5 player(in browser, HTML5)
Click here to listen with your own player(launches your MP3 player)

LWSK 181230Z 01006KT 350V050 9999 SCT023 OVC040 11/07 Q1014 NOSIG

LWSK Flight Activity (Flightaware)

Listeners: 0 out of 1496 total

Skopje Approach/Departure: 120.300

LWSK ATIS (Archives)
Petrovec, North Macedonia, Republic of

Feed Status: UP
Listen in your browser - HTML5 player(in browser, HTML5)
Click here to listen with your own player(launches your MP3 player)

LWSK 181230Z 01006KT 350V050 9999 SCT023 OVC040 11/07 Q1014 NOSIG

LWSK Flight Activity (Flightaware)

Listeners: 0 out of 1496 total

Skopje ATIS: 130.125

LWSK Tower (Archives)
Petrovec, North Macedonia, Republic of

Feed Status: UP
Listen in your browser - HTML5 player(in browser, HTML5)
Click here to listen with your own player(launches your MP3 player)

LWSK 181230Z 01006KT 350V050 9999 SCT023 OVC040 11/07 Q1014 NOSIG

LWSK Flight Activity (Flightaware)

Listeners: 0 out of 1496 total

Skopje Tower: 118.500

LYNI Twr/App (Archives)
Nis, Serbia

Feed Status: UP
Listen in your browser - HTML5 player(in browser, HTML5)
Click here to listen with your own player(launches your MP3 player)

LYNI 181200Z VRB03KT 9999 SCT017 BKN030 07/03 Q1016 NOSIG

LYNI Flight Activity (Flightaware)

Listeners: 0 out of 1496 total

Nis Approach: 119.525
Nis Approach/Tower (Alternate): 136.075
Nis Tower: 118.950

LZIB Gnd/Twr/App (Archives)
Bratislava, Slovakia

Feed Status: UP
Listen in your browser - HTML5 player(in browser, HTML5)
Click here to listen with your own player(launches your MP3 player)

LZIB 181230Z 31010KT 9999 FEW018 09/04 Q1017 NOSIG

LZIB Flight Activity (Flightaware)

Listeners: 0 out of 1496 total

BTS Handling: 131.850
Stefanik Ground: 120.900
Stefanik Ground: 121.700
Stefanik Radar: 134.925
Stefanik Tower: 118.300

LZKZ Gnd/Twr/App (Archives)
Kosice, Slovakia

Feed Status: UP
Listen in your browser - HTML5 player(in browser, HTML5)
Click here to listen with your own player(launches your MP3 player)

LZKZ 181230Z 05005KT CAVOK 12/03 Q1016 NOSIG

LZKZ Flight Activity (Flightaware)

Listeners: 0 out of 1496 total

Kosice Approach: 129.350
Kosice Approach (backup): 119.850
Kosice Ground: 121.700
Kosice Handling: 131.850
Kosice Tower: 120.400

LZNI CTAF (Archives)
Nitra, Slovakia

Feed Status: UP
Listen in your browser - HTML5 player(in browser, HTML5)
Click here to listen with your own player(launches your MP3 player)

LZNI Flight Activity (Flightaware)

Listeners: 0 out of 1496 total

Nitra Traffic Radio: 123.405

LZPE CTAF/UNICOM (Archives)
Prievidza, Slovakia

Feed Status: UP
Listen in your browser - HTML5 player(in browser, HTML5)
Click here to listen with your own player(launches your MP3 player)

LZPE Flight Activity (Flightaware)

Listeners: 1 out of 1496 total

Prievidza CTAF/UNICOM: 123.055

LZPP Ground/Tower (Archives)
Piestany, Slovakia

Feed Status: UP
Listen in your browser - HTML5 player(in browser, HTML5)
Click here to listen with your own player(launches your MP3 player)

LZPP 181200Z 30008KT 9999 FEW032 11/04 Q1016

LZPP Flight Activity (Flightaware)

Listeners: 0 out of 1496 total

Piestany Ground: 121.700
Piestany Tower: 118.575

LZPT CTAF (Archives)
Partizanske, Slovakia

Feed Status: UP
Listen in your browser - HTML5 player(in browser, HTML5)
Click here to listen with your own player(launches your MP3 player)

LZPT Flight Activity (Flightaware)

Listeners: 0 out of 1496 total

Male Bielice CTAF: 123.500

MDPP App/Dep (Archives)
Puerto Plata, Dominican Republic

Feed Status: UP
Listen in your browser - HTML5 player(in browser, HTML5)
Click here to listen with your own player(launches your MP3 player)

MDPP 181200Z 00000KT 9999 FEW018 22/21 Q1015

MDPP Flight Activity (Flightaware)

Listeners: 0 out of 1496 total

Puerto Plata Approach/Departure: 119.000

MDPP Ground/Center (Archives)
Puerto Plata, Dominican Republic

Feed Status: UP
Listen in your browser - HTML5 player(in browser, HTML5)
Click here to listen with your own player(launches your MP3 player)

MDPP 181200Z 00000KT 9999 FEW018 22/21 Q1015

MDPP Flight Activity (Flightaware)

Listeners: 0 out of 1496 total

Puerto Plata Ground: 121.900
Santo Domingo Center: 124.300

MDPP Ground/Tower/Center (Archives)
Puerto Plata, Dominican Republic

Feed Status: UP
Listen in your browser - HTML5 player(in browser, HTML5)
Click here to listen with your own player(launches your MP3 player)

MDPP 181200Z 00000KT 9999 FEW018 22/21 Q1015

MDPP Flight Activity (Flightaware)

Listeners: 0 out of 1496 total

Puerto Plata Ground: 121.900
Puerto Plata Tower: 118.000
Santo Domingo Center: 124.300

MDPP Tower (Archives)
Puerto Plata, Dominican Republic

Feed Status: UP
Listen in your browser - HTML5 player(in browser, HTML5)
Click here to listen with your own player(launches your MP3 player)

MDPP 181200Z 00000KT 9999 FEW018 22/21 Q1015

MDPP Flight Activity (Flightaware)

Listeners: 0 out of 1496 total

Puerto Plata Tower: 118.000

MHLC Gnd/Twr/Center (Archives)
La Ceiba, Honduras

Feed Status: UP
Listen in your browser - HTML5 player(in browser, HTML5)
Click here to listen with your own player(launches your MP3 player)

MHLC 181200Z 14003KT 9999 FEW028 BKN200 25/24 Q1008 A2977 NOSIG

MHLC Flight Activity (Flightaware)

Listeners: 0 out of 1496 total

CENAMER: 123.900
CENAMER: 124.300
Goloson Ground: 121.900
Goloson Tower: 118.500
La Ceiba Radio: 128.900

MHLM Gnd/Twr/App (Archives)
San Pedro Sula, Honduras

Feed Status: UP
Listen in your browser - HTML5 player(in browser, HTML5)
Click here to listen with your own player(launches your MP3 player)

MHLM 181200Z 21010KT 9999 FEW026 BKN250 29/21 Q1009 A2980 NOSIG

MHLM Flight Activity (Flightaware)

Listeners: 0 out of 1496 total

La Mesa Ground: 121.900
La Mesa Tower: 118.200
San Pedro Sula Approach: 119.700

MHRO Gnd/Twr/App/Center (Archives)
Roatan, Honduras

Feed Status: UP
Listen in your browser - HTML5 player(in browser, HTML5)
Click here to listen with your own player(launches your MP3 player)

MHRO 181200Z 07007KT 9999 FEW026 BKN220 28/26 Q1009 A2980 NOSIG

MHRO Flight Activity (Flightaware)

Listeners: 0 out of 1496 total

CENAMER (Center): 124.300
La Ceiba Radio: 128.900
Roatan Ground: 121.600
Roatan Tower: 118.100

MHTG ATIS
Tegucigalpa, Honduras

Feed Status: DOWN
Offline since: 2021-03-26 06:57:05 UTC

MHTG 181200Z 14004KT 110V170 6000 3000SW RA FEW006 BKN026 OVC070 20/20 Q1017 A3003 TEMPO 6000 -RA

Toncontin ATIS: 127.750

MHTG Gnd/Twr/App/Ctr/Ops (Archives)
Tegucigalpa, Honduras

Feed Status: UP
Listen in your browser - HTML5 player(in browser, HTML5)
Click here to listen with your own player(launches your MP3 player)

MHTG 181200Z 14004KT 110V170 6000 3000SW RA FEW006 BKN026 OVC070 20/20 Q1017 A3003 TEMPO 6000 -RA

MHTG Flight Activity (Flightaware)

Listeners: 0 out of 1496 total

American Airlines Ops: 130.700
ARINC ACARS: 131.550
Cenamer Center: 123.900
Cenamer Center: 124.300
Cenamer Center: 124.100
CMP Ops: 129.925
Continental Airlines Ops: 129.925
FAH Ground: 122.900
Taca Ops: 131.300
Taca Ops Sal: 130.300
Tecnologias Unidas: 133.000
Tegucigalpa RDO: 126.700
Toncontin Approach: 119.100
Toncontin Ground: 121.900
Toncontin Tower: 118.700

MMCU Twr/App (Archives)
Chihuahua, Mexico

Feed Status: UP
Listen in your browser - HTML5 player(in browser, HTML5)
Click here to listen with your own player(launches your MP3 player)

MMCU 181140Z 00000KT 10SM SKC 08/M01 A3008 RMK SLP128 5//// 930 RTS

MMCU Flight Activity (Flightaware)

Listeners: 0 out of 1496 total

Chihuahua Approach: 121.000
Chihuahua Tower: 118.400

MMGL Twr/App (Archives)
Guadalajara, Mexico

Feed Status: UP
Listen in your browser - HTML5 player(in browser, HTML5)
Click here to listen with your own player(launches your MP3 player)

MMGL 181142Z 27004KT 10SM SCT300 11/00 A3009 RMK SLP078 52003 903 8/001

MMGL Flight Activity (Flightaware)

Listeners: 5 out of 1496 total

Guadalajara Approach: 120.800
Guadalajara Tower: 118.100

MMHO App/Dep (Archives)
Hermosillo, Mexico

Feed Status: UP
Listen in your browser - HTML5 player(in browser, HTML5)
Click here to listen with your own player(launches your MP3 player)


MMHO Flight Activity (Flightaware)

Listeners: 0 out of 1496 total

Hermosillo Approach/Departure: 121.400

MMHO Info (Archives)
Hermosillo, Mexico

Feed Status: UP
Listen in your browser - HTML5 player(in browser, HTML5)
Click here to listen with your own player(launches your MP3 player)


MMHO Flight Activity (Flightaware)

Listeners: 0 out of 1496 total

Hermosillo Info: 122.300

MMHO Tower (Archives)
Hermosillo, Mexico

Feed Status: UP
Listen in your browser - HTML5 player(in browser, HTML5)
Click here to listen with your own player(launches your MP3 player)


MMHO Flight Activity (Flightaware)

Listeners: 0 out of 1496 total

Hermosillo Tower: 118.700

MMHO Twr/App (Archives)
Hermosillo, Mexico

Feed Status: UP
Listen in your browser - HTML5 player(in browser, HTML5)
Click here to listen with your own player(launches your MP3 player)


MMHO Flight Activity (Flightaware)

Listeners: 0 out of 1496 total

Hermosillo Approach/Departure: 121.400
Hermosillo Info: 122.300
Hermosillo Tower: 118.700

MMLP Twr/App (Archives)
La Paz, Mexico

Feed Status: UP
Listen in your browser - HTML5 player(in browser, HTML5)
Click here to listen with your own player(launches your MP3 player)


MMLP Flight Activity (Flightaware)

Listeners: 0 out of 1496 total

La Paz Approach: 120.600
La Paz Tower: 118.100

MMMD App/Dep (Archives)
Merida, Mexico

Feed Status: UP
Listen in your browser - HTML5 player(in browser, HTML5)
Click here to listen with your own player(launches your MP3 player)

MMMD 181147Z 18006KT 6SM BKN020 27/23 A2982 RMK SLP105 52006 916 8/500 HZY

MMMD Flight Activity (Flightaware)

Listeners: 0 out of 1496 total

Merida Approach: 121.200

MMMD Merida Center 125.2/128.2 (Archives)
Merida, Mexico

Feed Status: UP
Listen in your browser - HTML5 player(in browser, HTML5)
Click here to listen with your own player(launches your MP3 player)

MMMD 181147Z 18006KT 6SM BKN020 27/23 A2982 RMK SLP105 52006 916 8/500 HZY

MMMD Flight Activity (Flightaware)

Listeners: 0 out of 1496 total

Merida Center: 125.200
Merida Center: 128.200

MMMD Merida Center 125.8/123.75 (Archives)
Merida, Mexico

Feed Status: UP
Listen in your browser - HTML5 player(in browser, HTML5)
Click here to listen with your own player(launches your MP3 player)

MMMD 181147Z 18006KT 6SM BKN020 27/23 A2982 RMK SLP105 52006 916 8/500 HZY

MMMD Flight Activity (Flightaware)

Listeners: 0 out of 1496 total

Merida Center: 125.800
Merida Center: 123.750

MMMD Tower (Archives)
Merida, Mexico

Feed Status: UP
Listen in your browser - HTML5 player(in browser, HTML5)
Click here to listen with your own player(launches your MP3 player)

MMMD 181147Z 18006KT 6SM BKN020 27/23 A2982 RMK SLP105 52006 916 8/500 HZY

MMMD Flight Activity (Flightaware)

Listeners: 0 out of 1496 total

Merida Tower: 118.300

MMMM Tower (Archives)
Morelia, Mexico

Feed Status: UP
Listen in your browser - HTML5 player(in browser, HTML5)
Click here to listen with your own player(launches your MP3 player)

MMMM 181143Z 00000KT 7SM SKC 07/M02 A3014 RMK SLP087 57003 916 HZY CI

MMMM Flight Activity (Flightaware)

Listeners: 0 out of 1496 total

Morelia Tower: 118.500

MMMX Approach (Archives)
Mexico City, Mexico

Feed Status: UP
Listen in your browser - HTML5 player(in browser, HTML5)
Click here to listen with your own player(launches your MP3 player)

MMMX 181145Z 05002KT 6SM SKC 15/M01 A3021 NOSIG RMK SLP039 52003 902 HZY

MMMX Flight Activity (Flightaware)

Listeners: 3 out of 1496 total

Mexico City Approach: 121.200

MMMX Twr/App (Archives)
Mexico City, Mexico

Feed Status: UP
Listen in your browser - HTML5 player(in browser, HTML5)
Click here to listen with your own player(launches your MP3 player)

MMMX 181145Z 05002KT 6SM SKC 15/M01 A3021 NOSIG RMK SLP039 52003 902 HZY

MMMX Flight Activity (Flightaware)

Listeners: 5 out of 1496 total

Mexico City Approach: 121.200
Mexico City Arrival (North): 129.650
Mexico City Arrival (South): 119.100
Mexico City Final Approach: 119.750
Mexico City Helicopters: 118.150
Mexico City Tower: 118.550

MMMY Tower/Approach
Monterrey, Mexico

Feed Status: DOWN
Offline since: 2020-12-01 01:21:23 UTC

MMMY 181144Z 12003KT 6SM OVC030 15/13 A3009 RMK SLP/// 5//// 9// 8/5//

Monterrey Approach/Departure: 119.750
Monterrey Tower: 118.100

MMSP Gnd/Twr/App/Center (Archives)
San Luis Potosi, Mexico

Feed Status: UP
Listen in your browser - HTML5 player(in browser, HTML5)
Click here to listen with your own player(launches your MP3 player)

MMSP 181153Z 00000KT 4SM SCT010 BKN015 12/11 A3013 RMK SLP050 52007 909 8/500 LWR SC

MMSP Flight Activity (Flightaware)

Listeners: 0 out of 1496 total

AMX Ground Ops: 131.000
Mexico Center (North, Sector 6): 126.000
Mexico Center (Northwest, Sector 7): 123.900
Mexico Center (West, Sector 5): 125.100
Potosi Approach: 127.500
Potosi Tower: 118.900
TAO Ground Ops: 133.600

MMTC Twr/App/Center (Archives)
Torreon, Mexico

Feed Status: UP
Listen in your browser - HTML5 player(in browser, HTML5)
Click here to listen with your own player(launches your MP3 player)

MMTC 181140Z 00000KT 10SM SCT200 15/08 A3005 RMK SLP064 5//// 941 8/002 HZY RTS

MMTC Flight Activity (Flightaware)

Listeners: 0 out of 1496 total

Mazatlan Center: 124.200
Mazatlan Center: 124.400
Mazatlan Center: 128.000
Mexico Center: 123.900
Monterrey Center: 125.600
Monterrey Center: 125.425
Monterrey Center: 127.400
Torreon Approach: 119.500
Torreon Tower: 118.500

MMTJ Approach (Archives)
Tijuana, Mexico

Feed Status: UP
Listen in your browser - HTML5 player(in browser, HTML5)
Click here to listen with your own player(launches your MP3 player)

MMTJ 181144Z 00000KT 6SM SKC 11/09 A3000 RMK SLP/// 5//// 9// HZY MSGTX MMMX

MMTJ Flight Activity (Flightaware)

Listeners: 0 out of 1496 total

Tijuana Approach: 120.300

MMTJ Twr/Ramp (Archives)
Tijuana, Mexico

Feed Status: UP
Listen in your browser - HTML5 player(in browser, HTML5)
Click here to listen with your own player(launches your MP3 player)

MMTJ 181144Z 00000KT 6SM SKC 11/09 A3000 RMK SLP/// 5//// 9// HZY MSGTX MMMX

MMTJ Flight Activity (Flightaware)

Listeners: 0 out of 1496 total

Tijuana Ramp: 126.100
Tijuana Tower: 118.100

CENAMER/Panama ACC (Archives)
San Jose, Costa Rica

Feed Status: UP
Listen in your browser - HTML5 player(in browser, HTML5)
Click here to listen with your own player(launches your MP3 player)

MROC 181200Z 07005KT CAVOK 18/18 A2999 NOSIG

MROC Flight Activity (Flightaware)

Listeners: 0 out of 1496 total

Central American Center (CENAMER Control): 124.100
Central American Center (CENAMER Control): 123.900
Panama Center: 133.000

MROC Del/Gnd/Twr (Archives)
San Jose, Costa Rica

Feed Status: UP
Listen in your browser - HTML5 player(in browser, HTML5)
Click here to listen with your own player(launches your MP3 player)

MROC 181200Z 07005KT CAVOK 18/18 A2999 NOSIG

MROC Flight Activity (Flightaware)

Listeners: 1 out of 1496 total

Coco Clearance Delivery/Ground: 121.900
Coco Tower: 118.600

MROC Del/Gnd/Twr/App/Center/Misc (Archives)
San Jose, Costa Rica

Feed Status: UP
Listen in your browser - HTML5 player(in browser, HTML5)
Click here to listen with your own player(launches your MP3 player)

MROC 181200Z 07005KT CAVOK 18/18 A2999 NOSIG

MROC Flight Activity (Flightaware)

Listeners: 1 out of 1496 total

Coco Center (Control over CR Airspace): 119.600
Coco Clearance Delivery: 121.300
Coco Ground: 121.900
Coco Terminal Control: 120.500
Coco Tower: 118.600
Coco UNICOM: 126.800

MRPV Ground/Tower (Archives)
San Jose, Costa Rica

Feed Status: UP
Listen in your browser - HTML5 player(in browser, HTML5)
Click here to listen with your own player(launches your MP3 player)

MRPV 181200Z 10004KT CAVOK 17/17 A3001 NOSIG

MRPV Flight Activity (Flightaware)

Listeners: 0 out of 1496 total

Pavas Ground: 121.700
Pavas Tower: 118.300

MSLP Gnd/Twr/App (Archives)
San Salvador, El Salvador

Feed Status: UP
Listen in your browser - HTML5 player(in browser, HTML5)
Click here to listen with your own player(launches your MP3 player)

MSLP 181150Z VRB02KT 9999 FEW023 25/22 Q1011 A2986 NOSIG

MSLP Flight Activity (Flightaware)

Listeners: 0 out of 1496 total

Comalapa Ground: 121.700
Comalapa Tower: 118.000
Compalapa Approach: 119.900

MSLP Gnd/Twr/App/Center
San Salvador, El Salvador

Feed Status: DOWN
Offline since: 2021-04-14 22:57:23 UTC

MSLP 181150Z VRB02KT 9999 FEW023 25/22 Q1011 A2986 NOSIG

Avianca Ops: 123.500
CCA: 119.300
CENAMER: 124.100
Comalapa Authorizations: 121.250
Comalapa Departure: 123.900
Comalapa Ground: 121.700
Comalapa Tower: 118.000
Compalapa Approach: 119.900
Ilopango Tower: 118.300
TACA Ops: 130.500

MSSS Tower
San Salvador, El Salvador

Feed Status: DOWN
Offline since: 2021-04-10 14:34:39 UTC


Ilopango Tower: 118.300

MUFH Havana FIR (App/Center) (Archives)
Havana, Cuba

Feed Status: UP
Listen in your browser - HTML5 player(in browser, HTML5)
Click here to listen with your own player(launches your MP3 player)

MUFH Flight Activity (Flightaware)

Listeners: 0 out of 1496 total

Hava Approach: 120.300
Havana Center: 120.250
Havana Center: 123.700
Havana Center: 124.550
Havana Center: 133.700
Havana Center: 135.100

Miami Center (Bahamas Area) (Archives)
Deadman's Cay, Bahamas

Feed Status: UP
Listen in your browser - HTML5 player(in browser, HTML5)
Click here to listen with your own player(launches your MP3 player)


MYLD Flight Activity (Flightaware)

Listeners: 0 out of 1496 total

Miami Center (TBD/Misc):

MYLD Emergency/Guard (Archives)
Deadman's Cay, Bahamas

Feed Status: UP
Listen in your browser - HTML5 player(in browser, HTML5)
Click here to listen with your own player(launches your MP3 player)


MYLD Flight Activity (Flightaware)

Listeners: 0 out of 1496 total

Emergency/Guard: 121.500

MYLD/MYLS CTAF (Archives)
Deadman's Cay, Bahamas

Feed Status: UP
Listen in your browser - HTML5 player(in browser, HTML5)
Click here to listen with your own player(launches your MP3 player)


MYLD Flight Activity (Flightaware)

Listeners: 0 out of 1496 total

Deadmans Cay CTAF: 122.800

MYLD/MYLS CTAF (Archives)
Stella Maris, Bahamas

Feed Status: UP
Listen in your browser - HTML5 player(in browser, HTML5)
Click here to listen with your own player(launches your MP3 player)


MYLD Flight Activity (Flightaware)

Listeners: 0 out of 1496 total

Deadmans Cay CTAF: 122.800

OBBI Gnd/Twr/App (Archives)
Muharraq, Bahrain

Feed Status: UP
Listen in your browser - HTML5 player(in browser, HTML5)
Click here to listen with your own player(launches your MP3 player)

OBBI 181200Z 01005KT 330V030 CAVOK 32/10 Q1011 NOSIG


Listeners: 2 out of 1496 total

Bahrain Arrival: 127.850
Bahrain Control (Low Central): 124.300
Bahrain Control (Low East): 125.700
Bahrain Control (Low North): 126.700
Bahrain Departure: 119.100
Bahrain Ground: 121.850
Bahrain Tower: 118.500

OKBK Gnd/Twr/App/Radar (Archives)
Kuwait City, Kuwait

Feed Status: UP
Listen in your browser - HTML5 player(in browser, HTML5)
Click here to listen with your own player(launches your MP3 player)

OKBK 181200Z 36020KT 7000 -BLDU SKC 38/01 Q1010 NOSIG


Listeners: 1 out of 1496 total

Kuwait Approach: 121.300
Kuwait Approach: 124.800
Kuwait Ground: 121.700
Kuwait Radar (Center): 125.300
Kuwait Tower: 118.300

OPKC Gnd/Twr/Radar (Archives)
Karachi, Pakistan

Feed Status: UP
Listen in your browser - HTML5 player(in browser, HTML5)
Click here to listen with your own player(launches your MP3 player)

OPKC 181225Z 23012KT 7000 NSC 33/20 Q1009 NOSIG


Listeners: 4 out of 1496 total

Karachi Ground: 121.600
Karachi Radar: 125.500
Karachi Tower: 118.300

OPLA ATIS (Archives)
Lahore, Pakistan

Feed Status: UP
Listen in your browser - HTML5 player(in browser, HTML5)
Click here to listen with your own player(launches your MP3 player)

OPLA 181225Z 35003KT 7000 30/11 Q1010 RMK QFE983 RMK A29.83


Listeners: 0 out of 1496 total

Lahore ATIS: 126.300

OPLA/OPLH Gnd/Twr/App (Archives)
Lahore, Pakistan

Feed Status: UP
Listen in your browser - HTML5 player(in browser, HTML5)
Click here to listen with your own player(launches your MP3 player)

OPLA 181225Z 35003KT 7000 30/11 Q1010 RMK QFE983 RMK A29.83


Listeners: 7 out of 1496 total

Lahore Approach: 121.300
Lahore Approach: 125.300
Lahore Control: 127.500
Lahore Ground: 118.400
Lahore Tower: 118.100
Lahore Tower: 121.800
Walton (OPLH) Tower: 119.400

RCTP Approach
Taipei, Taiwan

Feed Status: DOWN
Offline since: 2021-04-16 15:14:06 UTC

RCTP 181200Z 05019KT 9999 FEW012 BKN080 BKN180 20/11 Q1016 NOSIG RMK A3003

Emergency/Guard: 121.500
Taipei Approach: 125.100
Taipei Approach: 125.600
Taipei Approach: 128.500

RCTP Tower
Taipei, Taiwan

Feed Status: DOWN
Offline since: 2021-04-16 15:14:06 UTC

RCTP 181200Z 05019KT 9999 FEW012 BKN080 BKN180 20/11 Q1016 NOSIG RMK A3003

Taipei Tower: 118.700

RJAA Approach (Archives)
Tokyo, Japan

Feed Status: UP
Listen in your browser - HTML5 player(in browser, HTML5)
Click here to listen with your own player(launches your MP3 player)

RJAA 181200Z 30011KT 260V340 9999 FEW030 SCT/// 13/M01 Q1002 NOSIG RMK 1CU030 A2959

RJAA Flight Activity (Flightaware)

Listeners: 7 out of 1496 total

Tokyo Approach: 124.400
Tokyo Approach: 127.700

RJAA ATIS (Archives)
Tokyo, Japan

Feed Status: UP
Listen in your browser - HTML5 player(in browser, HTML5)
Click here to listen with your own player(launches your MP3 player)

RJAA 181200Z 30011KT 260V340 9999 FEW030 SCT/// 13/M01 Q1002 NOSIG RMK 1CU030 A2959

RJAA Flight Activity (Flightaware)

Listeners: 0 out of 1496 total

Narita ATIS: 128.250

RJAA Clearance Delivery (Archives)
Tokyo, Japan

Feed Status: UP
Listen in your browser - HTML5 player(in browser, HTML5)
Click here to listen with your own player(launches your MP3 player)

RJAA 181200Z 30011KT 260V340 9999 FEW030 SCT/// 13/M01 Q1002 NOSIG RMK 1CU030 A2959

RJAA Flight Activity (Flightaware)

Listeners: 1 out of 1496 total

Narita Clearance Delivery (Asia/Pacific): 121.650
Narita Clearance Delivery (US/Europe): 121.900

RJAA Clearance Delivery #1 (Archives)
Tokyo, Japan

Feed Status: UP
Listen in your browser - HTML5 player(in browser, HTML5)
Click here to listen with your own player(launches your MP3 player)

RJAA 181200Z 30011KT 260V340 9999 FEW030 SCT/// 13/M01 Q1002 NOSIG RMK 1CU030 A2959

RJAA Flight Activity (Flightaware)

Listeners: 1 out of 1496 total

Narita Clearance Delivery (Asia/Pacific): 121.650

RJAA Clearance Delivery #2 (Archives)
Tokyo, Japan

Feed Status: UP
Listen in your browser - HTML5 player(in browser, HTML5)
Click here to listen with your own player(launches your MP3 player)

RJAA 181200Z 30011KT 260V340 9999 FEW030 SCT/// 13/M01 Q1002 NOSIG RMK 1CU030 A2959

RJAA Flight Activity (Flightaware)

Listeners: 0 out of 1496 total

Narita Clearance Delivery (US/Europe): 121.900

RJAA Company Channels (Archives)
Tokyo, Japan

Feed Status: UP
Listen in your browser - HTML5 player(in browser, HTML5)
Click here to listen with your own player(launches your MP3 player)

RJAA 181200Z 30011KT 260V340 9999 FEW030 SCT/// 13/M01 Q1002 NOSIG RMK 1CU030 A2959

RJAA Flight Activity (Flightaware)

Listeners: 1 out of 1496 total

Ops: 130.450
Ops: 130.550
Ops: 130.900
Ops: 131.025
Ops: 131.100
Ops: 131.200
Ops: 131.700
Ops: 131.750

RJAA Departure (Archives)
Tokyo, Japan

Feed Status: UP
Listen in your browser - HTML5 player(in browser, HTML5)
Click here to listen with your own player(launches your MP3 player)

RJAA 181200Z 30011KT 260V340 9999 FEW030 SCT/// 13/M01 Q1002 NOSIG RMK 1CU030 A2959

RJAA Flight Activity (Flightaware)

Listeners: 5 out of 1496 total

Tokyo Departure: 119.600
Tokyo Departure: 124.200

RJAA Departure #1 (Archives)
Tokyo, Japan

Feed Status: UP
Listen in your browser - HTML5 player(in browser, HTML5)
Click here to listen with your own player(launches your MP3 player)

RJAA 181200Z 30011KT 260V340 9999 FEW030 SCT/// 13/M01 Q1002 NOSIG RMK 1CU030 A2959

RJAA Flight Activity (Flightaware)

Listeners: 2 out of 1496 total

Tokyo Departure: 124.200

RJAA Departure #2 (Archives)
Tokyo, Japan

Feed Status: UP
Listen in your browser - HTML5 player(in browser, HTML5)
Click here to listen with your own player(launches your MP3 player)

RJAA 181200Z 30011KT 260V340 9999 FEW030 SCT/// 13/M01 Q1002 NOSIG RMK 1CU030 A2959

RJAA Flight Activity (Flightaware)

Listeners: 0 out of 1496 total

Tokyo Departure: 119.600

RJAA Emergency/Guard (Archives)
Tokyo, Japan

Feed Status: UP
Listen in your browser - HTML5 player(in browser, HTML5)
Click here to listen with your own player(launches your MP3 player)

RJAA 181200Z 30011KT 260V340 9999 FEW030 SCT/// 13/M01 Q1002 NOSIG RMK 1CU030 A2959

RJAA Flight Activity (Flightaware)

Listeners: 0 out of 1496 total

Emergency/Guard: 121.500

RJAA Ground #1 (Archives)
Tokyo, Japan

Feed Status: UP
Listen in your browser - HTML5 player(in browser, HTML5)
Click here to listen with your own player(launches your MP3 player)

RJAA 181200Z 30011KT 260V340 9999 FEW030 SCT/// 13/M01 Q1002 NOSIG RMK 1CU030 A2959

RJAA Flight Activity (Flightaware)

Listeners: 2 out of 1496 total

Narita Ground: 121.850

RJAA Ground #2 (Archives)
Tokyo, Japan

Feed Status: UP
Listen in your browser - HTML5 player(in browser, HTML5)
Click here to listen with your own player(launches your MP3 player)

RJAA 181200Z 30011KT 260V340 9999 FEW030 SCT/// 13/M01 Q1002 NOSIG RMK 1CU030 A2959

RJAA Flight Activity (Flightaware)

Listeners: 2 out of 1496 total

Narita Ground: 121.950

RJAA Radar 119.025 (Archives)
Tokyo, Japan

Feed Status: UP
Listen in your browser - HTML5 player(in browser, HTML5)
Click here to listen with your own player(launches your MP3 player)

RJAA 181200Z 30011KT 260V340 9999 FEW030 SCT/// 13/M01 Q1002 NOSIG RMK 1CU030 A2959

RJAA Flight Activity (Flightaware)

Listeners: 1 out of 1496 total

Tokyo Radar: 119.025

RJAA Radar 120.2 (Archives)
Tokyo, Japan

Feed Status: UP
Listen in your browser - HTML5 player(in browser, HTML5)
Click here to listen with your own player(launches your MP3 player)

RJAA 181200Z 30011KT 260V340 9999 FEW030 SCT/// 13/M01 Q1002 NOSIG RMK 1CU030 A2959

RJAA Flight Activity (Flightaware)

Listeners: 1 out of 1496 total

Tokyo Radar: 120.200

RJAA Radar 120.6 (Archives)
Tokyo, Japan

Feed Status: UP
Listen in your browser - HTML5 player(in browser, HTML5)
Click here to listen with your own player(launches your MP3 player)

RJAA 181200Z 30011KT 260V340 9999 FEW030 SCT/// 13/M01 Q1002 NOSIG RMK 1CU030 A2959

RJAA Flight Activity (Flightaware)

Listeners: 1 out of 1496 total

Tokyo Radar: 120.600

RJAA Radar 132.1 (Archives)
Tokyo, Japan

Feed Status: UP
Listen in your browser - HTML5 player(in browser, HTML5)
Click here to listen with your own player(launches your MP3 player)

RJAA 181200Z 30011KT 260V340 9999 FEW030 SCT/// 13/M01 Q1002 NOSIG RMK 1CU030 A2959

RJAA Flight Activity (Flightaware)

Listeners: 1 out of 1496 total

Tokyo Radar: 132.100

RJAA Radar 133.35 (Archives)
Tokyo, Japan

Feed Status: UP
Listen in your browser - HTML5 player(in browser, HTML5)
Click here to listen with your own player(launches your MP3 player)

RJAA 181200Z 30011KT 260V340 9999 FEW030 SCT/// 13/M01 Q1002 NOSIG RMK 1CU030 A2959

RJAA Flight Activity (Flightaware)

Listeners: 1 out of 1496 total

Tokyo Radar: 133.350

RJAA Ramp #1 (Archives)
Tokyo, Japan

Feed Status: UP
Listen in your browser - HTML5 player(in browser, HTML5)
Click here to listen with your own player(launches your MP3 player)

RJAA 181200Z 30011KT 260V340 9999 FEW030 SCT/// 13/M01 Q1002 NOSIG RMK 1CU030 A2959

RJAA Flight Activity (Flightaware)

Listeners: 2 out of 1496 total

Narita Ramp: 121.600

RJAA Ramp #2 (Archives)
Tokyo, Japan

Feed Status: UP
Listen in your browser - HTML5 player(in browser, HTML5)
Click here to listen with your own player(launches your MP3 player)

RJAA 181200Z 30011KT 260V340 9999 FEW030 SCT/// 13/M01 Q1002 NOSIG RMK 1CU030 A2959

RJAA Flight Activity (Flightaware)

Listeners: 0 out of 1496 total

Narita Ramp: 121.750

RJAA TCA (Archives)
Tokyo, Japan

Feed Status: UP
Listen in your browser - HTML5 player(in browser, HTML5)
Click here to listen with your own player(launches your MP3 player)

RJAA 181200Z 30011KT 260V340 9999 FEW030 SCT/// 13/M01 Q1002 NOSIG RMK 1CU030 A2959

RJAA Flight Activity (Flightaware)

Listeners: 1 out of 1496 total

Tokyo TCA (Terminal Control Area): 119.450

RJAA Tokyo Control (Archives)
Tokyo, Japan

Feed Status: UP
Listen in your browser - HTML5 player(in browser, HTML5)
Click here to listen with your own player(launches your MP3 player)

RJAA 181200Z 30011KT 260V340 9999 FEW030 SCT/// 13/M01 Q1002 NOSIG RMK 1CU030 A2959

RJAA Flight Activity (Flightaware)

Listeners: 0 out of 1496 total

Tokyo Control: 125.900

RJAA Tower #1 (Archives)
Tokyo, Japan

Feed Status: UP
Listen in your browser - HTML5 player(in browser, HTML5)
Click here to listen with your own player(launches your MP3 player)

RJAA 181200Z 30011KT 260V340 9999 FEW030 SCT/// 13/M01 Q1002 NOSIG RMK 1CU030 A2959

RJAA Flight Activity (Flightaware)

Listeners: 5 out of 1496 total

Narita Tower (Rwy 16R/34L): 118.200

RJAA Tower #2 (Archives)
Tokyo, Japan

Feed Status: UP
Listen in your browser - HTML5 player(in browser, HTML5)
Click here to listen with your own player(launches your MP3 player)

RJAA 181200Z 30011KT 260V340 9999 FEW030 SCT/// 13/M01 Q1002 NOSIG RMK 1CU030 A2959

RJAA Flight Activity (Flightaware)

Listeners: 1 out of 1496 total

Narita Tower (Rwy 16L/34R): 118.350

RJAA Tower (Both) (Archives)
Tokyo, Japan

Feed Status: UP
Listen in your browser - HTML5 player(in browser, HTML5)
Click here to listen with your own player(launches your MP3 player)

RJAA 181200Z 30011KT 260V340 9999 FEW030 SCT/// 13/M01 Q1002 NOSIG RMK 1CU030 A2959

RJAA Flight Activity (Flightaware)

Listeners: 3 out of 1496 total

Narita Tower (Rwy 16L/34R): 118.350
Narita Tower (Rwy 16R/34L): 118.200

RJFF Approach (119.65) (Archives)
Fukuoka, Japan

Feed Status: UP
Listen in your browser - HTML5 player(in browser, HTML5)
Click here to listen with your own player(launches your MP3 player)

RJFF 181200Z 19006KT CAVOK 10/03 Q1017 NOSIG RMK A3005

RJFF Flight Activity (Flightaware)

Listeners: 1 out of 1496 total

Fukuoka Approach: 119.650

RJFF ATIS (Archives)
Fukuoka, Japan

Feed Status: UP
Listen in your browser - HTML5 player(in browser, HTML5)
Click here to listen with your own player(launches your MP3 player)

RJFF 181200Z 19006KT CAVOK 10/03 Q1017 NOSIG RMK A3005

RJFF Flight Activity (Flightaware)

Listeners: 0 out of 1496 total

Fukuoka ATIS: 127.200

RJFF Clearance Delivery (Archives)
Fukuoka, Japan

Feed Status: UP
Listen in your browser - HTML5 player(in browser, HTML5)
Click here to listen with your own player(launches your MP3 player)

RJFF 181200Z 19006KT CAVOK 10/03 Q1017 NOSIG RMK A3005

RJFF Flight Activity (Flightaware)

Listeners: 0 out of 1496 total

Fukuoka Clearance Delivery: 121.925

RJFF Del/Gnd/Twr (Archives)
Fukuoka, Japan

Feed Status: UP
Listen in your browser - HTML5 player(in browser, HTML5)
Click here to listen with your own player(launches your MP3 player)

RJFF 181200Z 19006KT CAVOK 10/03 Q1017 NOSIG RMK A3005

RJFF Flight Activity (Flightaware)

Listeners: 0 out of 1496 total

Fukuoka Clearance Delivery: 121.925
Fukuoka Ground: 121.700
Fukuoka Tower: 118.400

RJFF Departure (Archives)
Fukuoka, Japan

Feed Status: UP
Listen in your browser - HTML5 player(in browser, HTML5)
Click here to listen with your own player(launches your MP3 player)

RJFF 181200Z 19006KT CAVOK 10/03 Q1017 NOSIG RMK A3005

RJFF Flight Activity (Flightaware)

Listeners: 0 out of 1496 total

Fukuoka Departure: 127.900

RJFF Ground (Archives)
Fukuoka, Japan

Feed Status: UP
Listen in your browser - HTML5 player(in browser, HTML5)
Click here to listen with your own player(launches your MP3 player)

RJFF 181200Z 19006KT CAVOK 10/03 Q1017 NOSIG RMK A3005

RJFF Flight Activity (Flightaware)

Listeners: 0 out of 1496 total

Fukuoka Ground: 121.700

RJFF Radar (119.7) (Archives)
Fukuoka, Japan

Feed Status: UP
Listen in your browser - HTML5 player(in browser, HTML5)
Click here to listen with your own player(launches your MP3 player)

RJFF 181200Z 19006KT CAVOK 10/03 Q1017 NOSIG RMK A3005

RJFF Flight Activity (Flightaware)

Listeners: 1 out of 1496 total

Fukuoka Radar: 119.700

RJFF Radar (121.25) (Archives)
Fukuoka, Japan

Feed Status: UP
Listen in your browser - HTML5 player(in browser, HTML5)
Click here to listen with your own player(launches your MP3 player)

RJFF 181200Z 19006KT CAVOK 10/03 Q1017 NOSIG RMK A3005

RJFF Flight Activity (Flightaware)

Listeners: 1 out of 1496 total

Fukuoka Radar: 121.125

RJFF Radar/TCA (Archives)
Fukuoka, Japan

Feed Status: UP
Listen in your browser - HTML5 player(in browser, HTML5)
Click here to listen with your own player(launches your MP3 player)

RJFF 181200Z 19006KT CAVOK 10/03 Q1017 NOSIG RMK A3005

RJFF Flight Activity (Flightaware)

Listeners: 0 out of 1496 total

Fukuoka Radar: 119.700
Fukuoka Terminal Control Area: 121.275

RJFF TCA (Archives)
Fukuoka, Japan

Feed Status: UP
Listen in your browser - HTML5 player(in browser, HTML5)
Click here to listen with your own player(launches your MP3 player)

RJFF 181200Z 19006KT CAVOK 10/03 Q1017 NOSIG RMK A3005

RJFF Flight Activity (Flightaware)

Listeners: 0 out of 1496 total

Fukuoka Terminal Control Area: 121.275

RJFF Tower (Archives)
Fukuoka, Japan

Feed Status: UP
Listen in your browser - HTML5 player(in browser, HTML5)
Click here to listen with your own player(launches your MP3 player)

RJFF 181200Z 19006KT CAVOK 10/03 Q1017 NOSIG RMK A3005

RJFF Flight Activity (Flightaware)

Listeners: 0 out of 1496 total

Fukuoka Tower: 118.400

RJFF Twr/App/Dep (Archives)
Fukuoka, Japan

Feed Status: UP
Listen in your browser - HTML5 player(in browser, HTML5)
Click here to listen with your own player(launches your MP3 player)

RJFF 181200Z 19006KT CAVOK 10/03 Q1017 NOSIG RMK A3005

RJFF Flight Activity (Flightaware)

Listeners: 1 out of 1496 total

Fukuoka Approach: 119.650
Fukuoka Departure: 127.900
Fukuoka Radar: 121.125
Fukuoka Tower: 118.400

RJOO Tower (Archives)
Osaka, Japan

Feed Status: UP
Listen in your browser - HTML5 player(in browser, HTML5)
Click here to listen with your own player(launches your MP3 player)


RJOO Flight Activity (Flightaware)

Listeners: 2 out of 1496 total

Osaka Tower: 118.100

RJSF RDO (Archives)
Sukagawa, Japan

Feed Status: UP
Listen in your browser - HTML5 player(in browser, HTML5)
Click here to listen with your own player(launches your MP3 player)


RJSF Flight Activity (Flightaware)

Listeners: 1 out of 1496 total

Fukushima Radio: 118.050

RJTT App/Dep (Archives)
Tokyo, Japan

Feed Status: UP
Listen in your browser - HTML5 player(in browser, HTML5)
Click here to listen with your own player(launches your MP3 player)

RJTT 181200Z 33010KT 9999 FEW030 14/M02 Q1002 NOSIG RMK 1CU030 A2960

RJTT Flight Activity (Flightaware)

Listeners: 27 out of 1496 total

Tokyo Approach: 119.100
Tokyo Approach: 119.400
Tokyo Departure: 120.800
Tokyo Departure: 126.000

RJTT Approach (Archives)
Tokyo, Japan

Feed Status: UP
Listen in your browser - HTML5 player(in browser, HTML5)
Click here to listen with your own player(launches your MP3 player)

RJTT 181200Z 33010KT 9999 FEW030 14/M02 Q1002 NOSIG RMK 1CU030 A2960

RJTT Flight Activity (Flightaware)

Listeners: 12 out of 1496 total

Tokyo Approach: 119.100
Tokyo Approach: 119.400

RJTT ATIS (Archives)
Tokyo, Japan

Feed Status: UP
Listen in your browser - HTML5 player(in browser, HTML5)
Click here to listen with your own player(launches your MP3 player)

RJTT 181200Z 33010KT 9999 FEW030 14/M02 Q1002 NOSIG RMK 1CU030 A2960

RJTT Flight Activity (Flightaware)

Listeners: 0 out of 1496 total

Tokyo ATIS: 128.800

RJTT Company Channels (Archives)
Tokyo, Japan

Feed Status: UP
Listen in your browser - HTML5 player(in browser, HTML5)
Click here to listen with your own player(launches your MP3 player)

RJTT 181200Z 33010KT 9999 FEW030 14/M02 Q1002 NOSIG RMK 1CU030 A2960

RJTT Flight Activity (Flightaware)

Listeners: 19 out of 1496 total

Company TBD: 128.500
Company TBD: 131.850
Company TBD: 129.725
Company TBD: 129.700
Company TBD: 131.900
Company TBD: 129.850
Company TBD: 128.975
Company TBD: 123.675
Company TBD: 132.075

RJTT Del/Ground (Archives)
Tokyo, Japan

Feed Status: UP
Listen in your browser - HTML5 player(in browser, HTML5)
Click here to listen with your own player(launches your MP3 player)

RJTT 181200Z 33010KT 9999 FEW030 14/M02 Q1002 NOSIG RMK 1CU030 A2960

RJTT Flight Activity (Flightaware)

Listeners: 0 out of 1496 total

Tokyo Clearance Delivery: 121.825
Tokyo Ground: 121.700
Tokyo Ground: 118.225
Tokyo Ground: 121.625
Tokyo Ground: 121.975

RJTT Del/Twr/TCA/Gnd (Archives)
Tokyo, Japan

Feed Status: UP
Listen in your browser - HTML5 player(in browser, HTML5)
Click here to listen with your own player(launches your MP3 player)

RJTT 181200Z 33010KT 9999 FEW030 14/M02 Q1002 NOSIG RMK 1CU030 A2960

RJTT Flight Activity (Flightaware)

Listeners: 13 out of 1496 total

Tokyo Clearance Delivery: 121.825
Tokyo Ground: 121.975
Tokyo Ground: 121.625
Tokyo Ground: 121.700
Tokyo Ground: 118.225
Tokyo TCA: 124.750
Tokyo Tower: 118.100
Tokyo Tower: 118.575
Tokyo Tower: 118.725
Tokyo Tower: 124.350

RJTT Departure (Archives)
Tokyo, Japan

Feed Status: UP
Listen in your browser - HTML5 player(in browser, HTML5)
Click here to listen with your own player(launches your MP3 player)

RJTT 181200Z 33010KT 9999 FEW030 14/M02 Q1002 NOSIG RMK 1CU030 A2960

RJTT Flight Activity (Flightaware)

Listeners: 2 out of 1496 total

Tokyo Departure: 120.800
Tokyo Departure: 126.000

RJTT Tokyo Control (Archives)
Tokyo, Japan

Feed Status: UP
Listen in your browser - HTML5 player(in browser, HTML5)
Click here to listen with your own player(launches your MP3 player)

RJTT 181200Z 33010KT 9999 FEW030 14/M02 Q1002 NOSIG RMK 1CU030 A2960

RJTT Flight Activity (Flightaware)

Listeners: 32 out of 1496 total

Tokyo Control: 133.700
Tokyo Control: 125.900
Tokyo Control: 120.500

RJTT Twr/TCA (Archives)
Tokyo, Japan

Feed Status: UP
Listen in your browser - HTML5 player(in browser, HTML5)
Click here to listen with your own player(launches your MP3 player)

RJTT 181200Z 33010KT 9999 FEW030 14/M02 Q1002 NOSIG RMK 1CU030 A2960

RJTT Flight Activity (Flightaware)

Listeners: 9 out of 1496 total

Tokyo TCA: 124.750
Tokyo Tower: 118.100
Tokyo Tower: 118.575
Tokyo Tower: 118.725
Tokyo Tower: 124.350

RJTY Approach (Archives)
Tokyo, Japan

Feed Status: UP
Listen in your browser - HTML5 player(in browser, HTML5)
Click here to listen with your own player(launches your MP3 player)

RJTY 181156Z AUTO 00000KT 10SM CLR 11/M03 A2965 RMK AO2 SLP043 T01061035 10193 20106 52039 FZRANO $

RJTY Flight Activity (Flightaware)

Listeners: 10 out of 1496 total

Yokota Approach: 118.300
Yokota APproach: 123.800
Yokota Approach: 120.700

RJTY ATIS (Archives)
Tokyo, Japan

Feed Status: UP
Listen in your browser - HTML5 player(in browser, HTML5)
Click here to listen with your own player(launches your MP3 player)

RJTY 181156Z AUTO 00000KT 10SM CLR 11/M03 A2965 RMK AO2 SLP043 T01061035 10193 20106 52039 FZRANO $

RJTY Flight Activity (Flightaware)

Listeners: 0 out of 1496 total

Yokota ATIS: 126.400

RJTY Ground (Archives)
Tokyo, Japan

Feed Status: UP
Listen in your browser - HTML5 player(in browser, HTML5)
Click here to listen with your own player(launches your MP3 player)

RJTY 181156Z AUTO 00000KT 10SM CLR 11/M03 A2965 RMK AO2 SLP043 T01061035 10193 20106 52039 FZRANO $

RJTY Flight Activity (Flightaware)

Listeners: 1 out of 1496 total

Yokota Ground: 133.200

RJTY Ground/Tower (Archives)
Tokyo, Japan

Feed Status: UP
Listen in your browser - HTML5 player(in browser, HTML5)
Click here to listen with your own player(launches your MP3 player)

RJTY 181156Z AUTO 00000KT 10SM CLR 11/M03 A2965 RMK AO2 SLP043 T01061035 10193 20106 52039 FZRANO $

RJTY Flight Activity (Flightaware)

Listeners: 2 out of 1496 total

Yokota Ground: 133.200
Yokota Tower: 134.300

RJTY Tower (Archives)
Tokyo, Japan

Feed Status: UP
Listen in your browser - HTML5 player(in browser, HTML5)
Click here to listen with your own player(launches your MP3 player)

RJTY 181156Z AUTO 00000KT 10SM CLR 11/M03 A2965 RMK AO2 SLP043 T01061035 10193 20106 52039 FZRANO $

RJTY Flight Activity (Flightaware)

Listeners: 3 out of 1496 total

Yokota Tower: 134.300

ROAH Gnd/Twr/App
Okinawa, Japan

Feed Status: DOWN
Offline since: 2021-03-01 08:55:08 UTC

RODN 181156Z AUTO 03008KT 10SM CLR 16/09 A3006 RMK AO2 SLP186 T01600094 10222 20160 52023 $


ROAH Naha ACC
Okinawa, Japan

Feed Status: DOWN
Offline since: 2021-03-01 08:55:08 UTC

RODN 181156Z AUTO 03008KT 10SM CLR 16/09 A3006 RMK AO2 SLP186 T01600094 10222 20160 52023 $


RODN Gnd/Twr/App
Okinawa, Japan

Feed Status: DOWN
Offline since: 2021-03-01 08:55:08 UTC

RODN 181156Z AUTO 03008KT 10SM CLR 16/09 A3006 RMK AO2 SLP186 T01600094 10222 20160 52023 $


ROTM Gnd/Twr
Okinawa, Japan

Feed Status: DOWN
Offline since: 2021-03-01 08:55:08 UTC

RODN 181156Z AUTO 03008KT 10SM CLR 16/09 A3006 RMK AO2 SLP186 T01600094 10222 20160 52023 $


SABE Gnd/Twr/App
Buenos Aires, Argentina

Feed Status: DOWN
Offline since: 2021-03-19 01:39:39 UTC

SABE 181209Z 36012KT 330V030 9999 BKN010 20/17 Q1020 NOSIG

Aerolineas Argentinas Ops: 131.950
Aerolineas Argentinas Ops: 131.100
Aeroparque Ground: 121.900
Aeroparque Tower: 120.600
Aeroparque Tower: 118.250
Aeroparque Tower: 128.850
Aeroparque Tower: 118.850
Aeroparque Tower: 129.300
Air to Air: 123.450
Baires: 125.900
Baires: 125.300
Baires: 124.900
Cordoba South: 126.500
Ezeiza Ground: 121.750
Ezeiza North: 133.350
Ezeiza North: 124.500
Ezeiza North: 125.600
Ezeiza North: 135.500
Ezeiza South: 124.100
Ezeiza South: 125.200
LAN Ops: 131.700

SAEZ Gnd/Twr/Control
Buenos Aires, Argentina

Feed Status: DOWN
Offline since: 2021-04-18 05:12:06 UTC

SAEZ 181221Z 04003KT 5000 BR NSC 17/17 Q1020 NOSIG

Baires Control: 125.900
Baires Control: 125.300
Baires Control: 124.900
Baires Control: 133.350
Ezeiza Approach (North): 135.500
Ezeiza Approach (South): 125.200
Ezeiza Ground: 121.750
Ezeiza Tower: 118.600
Ezeiza Tower: 118.050

SANT Tower/Apps (Archives)
Tucuman, Argentina

Feed Status: UP
Listen in your browser - HTML5 player(in browser, HTML5)
Click here to listen with your own player(launches your MP3 player)

SANT 181200Z 00000KT 6000 FEW040 SCT100 20/20 Q1015

SANT Flight Activity (Flightaware)

Listeners: 1 out of 1496 total

Aeroclub Tucuman: 119.000
Aerolineas Argentinas SOC Salta: 131.100
Aerolineas Argentinas SOC Tucuman: 131.950
Air To Air: 123.450
Andes Lineas Aereas: 132.000
Campo Arenal: 130.950
Catamarca Tower: 118.150
Copa Airlines: 129.400
Cordoba Centro Norte: 125.100
Cordoba Centro Sur: 126.500
Emergency/Guard: 121.500
Lan Argentina Operaciones: 131.700
Lan Peru: 131.300
Salta Tower: 128.850
Santiago del Estero Tower: 118.700
Taca Peru: 126.450
Termas de Rio Hondo: 118.200
Termas de Rio Hondo: 119.850
Tucuman Ground: 121.750
Tucuman Ground: 121.750
Tucuman Tower: 118.350
Tucuman Tower: 119.500

SASA Twr/App (Archives)
Salta, Argentina

Feed Status: UP
Listen in your browser - HTML5 player(in browser, HTML5)
Click here to listen with your own player(launches your MP3 player)

SASA 181200Z 00000KT 9999 FEW020 17/16 Q1019

SASA Flight Activity (Flightaware)

Listeners: 0 out of 1496 total

Cordoba Approach (North): 125.100
Salta Approach: 124.600
Salta Tower: 126.000
Salta Tower/Ground: 128.850

SAZN Tower (Archives)
Neuquen, Argentina

Feed Status: UP
Listen in your browser - HTML5 player(in browser, HTML5)
Click here to listen with your own player(launches your MP3 player)

SAZN 181200Z 00000KT 9999 SCT040 BKN100 16/14 Q1014

SAZN Flight Activity (Flightaware)

Listeners: 0 out of 1496 total

Neuquen Tower/Approach: 119.800

SAZS Gnd/Twr/App (Archives)
Rio Negro, Argentina

Feed Status: UP
Listen in your browser - HTML5 player(in browser, HTML5)
Click here to listen with your own player(launches your MP3 player)

SAZS 181200Z 00000KT 9999 BKN050 06/01 Q1014

SAZS Flight Activity (Flightaware)

Listeners: 0 out of 1496 total

Bariloche Twr/App: 119.100
Comodoro Rivadavia Control: 125.500
Ezeiza South: 125.200

SBBR Approach (Archives)
Brasilia, Brazil

Feed Status: UP
Listen in your browser - HTML5 player(in browser, HTML5)
Click here to listen with your own player(launches your MP3 player)

SBBR 181200Z 08003KT 9999 FEW035 BKN080 23/15 Q1019

SBBR Flight Activity (Flightaware)

Listeners: 0 out of 1496 total

Brasilia Approach: 120.650
Brasilia Approach: 129.150
Brasilia Approach: 129.600
Brasilia Approach (Final): 119.200
Brasilia Departure: 119.500
Brasilia Departure: 119.700

SBBR Ground (Archives)
Brasilia, Brazil

Feed Status: UP
Listen in your browser - HTML5 player(in browser, HTML5)
Click here to listen with your own player(launches your MP3 player)

SBBR 181200Z 08003KT 9999 FEW035 BKN080 23/15 Q1019

SBBR Flight Activity (Flightaware)

Listeners: 0 out of 1496 total

Brasilia Ground: 121.950
Brasilia Ground: 121.800

SBBR Tower (Archives)
Brasilia, Brazil

Feed Status: UP
Listen in your browser - HTML5 player(in browser, HTML5)
Click here to listen with your own player(launches your MP3 player)

SBBR 181200Z 08003KT 9999 FEW035 BKN080 23/15 Q1019

SBBR Flight Activity (Flightaware)

Listeners: 0 out of 1496 total

Brasilia Tower: 118.100
Brasilia Tower: 181.750
Brasilia Tower: 118.450

SBCT Gnd/Twr/App (Archives)
Curitiba, Brazil

Feed Status: UP
Listen in your browser - HTML5 player(in browser, HTML5)
Click here to listen with your own player(launches your MP3 player)

SBCT 181200Z 17005KT 9999 BKN006 OVC014 17/15 Q1019

SBCT Flight Activity (Flightaware)

Listeners: 2 out of 1496 total

Curitiba Approach: 119.950
Curitiba Ground: 121.900
Curitiba Tower: 118.150
Curitiba Tower: 118.900

SBDN Twr/App (Archives)
Presidente Prudente/Sao Paulo, Brazil

Feed Status: UP
Listen in your browser - HTML5 player(in browser, HTML5)
Click here to listen with your own player(launches your MP3 player)

SBDN 181200Z 14005KT 9999 BKN012 22/19 Q1015

SBDN Flight Activity (Flightaware)

Listeners: 1 out of 1496 total

Air-to-Air: 123.450
Curitiba Sector 13: 133.595
Prudente Approach: 118.450
Prudente Tower: 125.450

SBEG Tower/App (Archives)
Manaus, Brazil

Feed Status: UP
Listen in your browser - HTML5 player(in browser, HTML5)
Click here to listen with your own player(launches your MP3 player)

SBEG 181200Z 06004KT 9999 SCT005 BKN010 OVC080 25/25 Q1013

SBEG Flight Activity (Flightaware)

Listeners: 1 out of 1496 total

Emergency/Guard: 121.500
Manaus Approach : 119.250
Manaus Approach: 120.400
Manaus Approach: 119.700
Manaus Tower: 118.300

SBFI Twr/App/Ctr/Misc (Archives)
Foz do Iguacu, Brazil

Feed Status: UP
Listen in your browser - HTML5 player(in browser, HTML5)
Click here to listen with your own player(launches your MP3 player)

SBFI 181200Z 09008KT CAVOK 21/18 Q1015

SBFI Flight Activity (Flightaware)

Listeners: 3 out of 1496 total

Asuncion Center (Paraguay): 126.900
Asuncion Center (Paraguay): 128.400
Curitiba Center: 127.200
Curitiba Center: 125.800
Emergency/Guard: 121.500
Foz do Iguacu Approach/Departure: 120.300
Foz do Iguacu Approach/Departure: 119.150
Foz do Iguacu Tower: 118.800
Guarani Approach (Paraguay): 119.300
Puerto Iguazu - Cataratas Tower (Argentina) : 120.700
Resistencia Center (Argentina): 124.300
UNICOM: 123.450

SBFZ ACC/Misc (Archives)
Fortaleza, Brazil

Feed Status: UP
Listen in your browser - HTML5 player(in browser, HTML5)
Click here to listen with your own player(launches your MP3 player)

SBFZ 181200Z 11011KT 9999 SCT020 29/25 Q1012

SBFZ Flight Activity (Flightaware)

Listeners: 0 out of 1496 total

Ait to Air: 123.450
SBAC: 131.250
SBJE: 131.050
SBJU: 131.750
SBMS: 125.800
SBPB: 126.600
SBRF ACC: 135.250
SBRF ACC: 133.500
SBRF ACC: 126.350
SBRF ACC: 125.150

SBFZ Twr/App/Center
Fortaleza, Brazil

Feed Status: DOWN
Offline since: 2021-04-17 23:58:40 UTC

SBFZ 181200Z 11011KT 9999 SCT020 29/25 Q1012

ACC-RE (Fortaleza Sector): 125.150
ACC-RE (Fortaleza Sector): 126.350
ACC-RE (Fortaleza Sector): 135.250
Fortaleza Approach: 133.000
Fortaleza Tower: 129.000

SBGO Gnd/Twr/App (Archives)
Goiania, Brazil

Feed Status: UP
Listen in your browser - HTML5 player(in browser, HTML5)
Click here to listen with your own player(launches your MP3 player)

SBGO 181200Z 28002KT 9999 FEW030 BKN070 23/19 Q1017

SBGO Flight Activity (Flightaware)

Listeners: 4 out of 1496 total

Anapolis Approach: 119.150
Anapolis Approach: 120.550
Anapolis Approach: 133.000
Anapolis Approach: 129.450
Emergency/Guard: 121.500
Goiania Ground: 121.700
Goiania Tower: 118.700
Goiania Tower: 121.050

SBJP Tower (Archives)
Joao Pessoa, Brazil

Feed Status: UP
Listen in your browser - HTML5 player(in browser, HTML5)
Click here to listen with your own player(launches your MP3 player)

SBJP 181200Z 00000KT 5000 -RA BKN006 BKN010 25/23 Q1014

SBJP Flight Activity (Flightaware)

Listeners: 0 out of 1496 total

Joao Pessoa Tower: 118.300

SBJU Tower/Center (Archives)
Juazeiro do Norte, Brazil

Feed Status: UP
Listen in your browser - HTML5 player(in browser, HTML5)
Click here to listen with your own player(launches your MP3 player)


SBJU Flight Activity (Flightaware)

Listeners: 1 out of 1496 total

Pilot-to-Pilot: 123.450
Radio Juazeiro: 131.750
Recife Center: 135.250
Recife Center: 125.150

SBKP Approach (Archives)
Campinas, Brazil

Feed Status: UP
Listen in your browser - HTML5 player(in browser, HTML5)
Click here to listen with your own player(launches your MP3 player)

SBKP 181200Z 00000KT 8000 SCT008 20/18 Q1016

SBKP Flight Activity (Flightaware)

Listeners: 2 out of 1496 total

Campinas Approach: 132.100
Campinas Approach: 135.750

SBKP Tower #1 (Archives)
Campinas, Brazil

Feed Status: UP
Listen in your browser - HTML5 player(in browser, HTML5)
Click here to listen with your own player(launches your MP3 player)

SBKP 181200Z 00000KT 8000 SCT008 20/18 Q1016

SBKP Flight Activity (Flightaware)

Listeners: 6 out of 1496 total

Campinas Tower: 118.250

SBKP Tower #2 (Archives)
Campinas, Brazil

Feed Status: UP
Listen in your browser - HTML5 player(in browser, HTML5)
Click here to listen with your own player(launches your MP3 player)

SBKP 181200Z 00000KT 8000 SCT008 20/18 Q1016

SBKP Flight Activity (Flightaware)

Listeners: 1 out of 1496 total

Campinas Tower: 118.250

SBMG Twr/App (Archives)
Maringa, Brazil

Feed Status: UP
Listen in your browser - HTML5 player(in browser, HTML5)
Click here to listen with your own player(launches your MP3 player)

SBMG 181200Z 13010KT CAVOK 19/17 Q1016

SBMG Flight Activity (Flightaware)

Listeners: 1 out of 1496 total

Londrina Approach: 129.700
Maringa Tower: 118.750
UNICOM: 123.450

SBMK RDO/Center (Archives)
Montes Claros, Brazil

Feed Status: UP
Listen in your browser - HTML5 player(in browser, HTML5)
Click here to listen with your own player(launches your MP3 player)

SBMK Flight Activity (Flightaware)

Listeners: 0 out of 1496 total

Brasilia Center (Sector 15): 127.300
Montes Claros RDO: 131.700

SBMQ Tower/App/Center (Archives)
Macapa, Brazil

Feed Status: UP
Listen in your browser - HTML5 player(in browser, HTML5)
Click here to listen with your own player(launches your MP3 player)

SBMQ 181200Z 36004KT 9999 -RA FEW006 OVC070 25/24 Q1013

SBMQ Flight Activity (Flightaware)

Listeners: 2 out of 1496 total

Amazonico Center: 123.950
Amazonico Center: 128.000
Macapa Approach: 119.000
Macapa Tower: 118.000

SBNF Tower
Navegantes, Brazil

Feed Status: DOWN
Offline since: 2021-04-18 10:08:39 UTC

SBNF 181200Z 24010KT 9999 FEW030 BKN060 21/19 Q1016

Navegantes Tower: 118.200

SBPA Gnd/Twr/App/Center (Archives)
Porto Alegre, Brazil

Feed Status: UP
Listen in your browser - HTML5 player(in browser, HTML5)
Click here to listen with your own player(launches your MP3 player)

SBPA 181200Z 16009KT 9999 SCT019 23/20 Q1018

SBPA Flight Activity (Flightaware)

Listeners: 2 out of 1496 total

BACO (Canoas) Ground: 121.700
BACO (Canoas) Tower: 118.500
BACO (Canoas) Tower (Mil): 122.800
Curitiba Center (Sector 1/South SBPA): 126.750
Curitiba Center (Sector 1/South SBPA): 127.400
Curitiba Center (Sector 2): 123.725
Curitiba Center (Sector 2): 135.900
Curitiba Center (Sector 3/West SBFL): 127.500
Curitiba Center (Sector 3/West SBFL): 126.100
Curitiba Center (Sector 4/South SBFL): 135.850
Curitiba Center (Sector 4/South SBFL): 128.450
Curitiba Center (Sector 5/East SBCT): 124.400
Curitiba Center (Sector 5/East SBCT): 125.400
Curitiba Center (Sector 6/East SBCT Atlantico): 128.400
Curitiba Center (Sector 6/East SBCT Atlantico): 127.050
Curitiba Center (Sector 9/North SBCT): 132.800
Curitiba Center (Sector 9/North SBCT): 126.500
Emergency/Guard: 121.500
Porto Alegre Approach Sector 1: 120.100
Porto Alegre Approach Sector 2: 120.550
Porto Alegre Approach Sector 3: 128.900
Porto Alegre Approach Sector 4: 119.000
Salgado Filho Ground: 121.900
Salgado Filho Tower: 118.100

SBPL RDO (Archives)
Petrolina, Brazil

Feed Status: UP
Listen in your browser - HTML5 player(in browser, HTML5)
Click here to listen with your own player(launches your MP3 player)

SBPL 181200Z 16009KT 9999 SCT020 BKN070 27/21 Q1015

SBPL Flight Activity (Flightaware)

Listeners: 2 out of 1496 total

Petrolina RDO: 125.700

SBRF App 129.60 (Archives)
Recife, Brazil

Feed Status: UP
Listen in your browser - HTML5 player(in browser, HTML5)
Click here to listen with your own player(launches your MP3 player)

SBRF 181200Z 13004KT 070V160 8000 VCSH FEW008 BKN015 BKN035 23/21 Q1014

SBRF Flight Activity (Flightaware)

Listeners: 2 out of 1496 total

Recife Approach: 129.600

SBRF Gol Ops (Archives)
Recife, Brazil

Feed Status: UP
Listen in your browser - HTML5 player(in browser, HTML5)
Click here to listen with your own player(launches your MP3 player)

SBRF 181200Z 13004KT 070V160 8000 VCSH FEW008 BKN015 BKN035 23/21 Q1014

SBRF Flight Activity (Flightaware)

Listeners: 0 out of 1496 total

Gol Ops: 131.225

SBRF Ground (Archives)
Recife, Brazil

Feed Status: UP
Listen in your browser - HTML5 player(in browser, HTML5)
Click here to listen with your own player(launches your MP3 player)

SBRF 181200Z 13004KT 070V160 8000 VCSH FEW008 BKN015 BKN035 23/21 Q1014

SBRF Flight Activity (Flightaware)

Listeners: 0 out of 1496 total

Recife Ground: 121.850

SBRF LATAM Ops (Archives)
Recife, Brazil

Feed Status: UP
Listen in your browser - HTML5 player(in browser, HTML5)
Click here to listen with your own player(launches your MP3 player)

SBRF 181200Z 13004KT 070V160 8000 VCSH FEW008 BKN015 BKN035 23/21 Q1014

SBRF Flight Activity (Flightaware)

Listeners: 0 out of 1496 total

LATAM Ops: 130.500

SBRF Recife ACC (Archives)
Recife, Brazil

Feed Status: UP
Listen in your browser - HTML5 player(in browser, HTML5)
Click here to listen with your own player(launches your MP3 player)

SBRF 181200Z 13004KT 070V160 8000 VCSH FEW008 BKN015 BKN035 23/21 Q1014

SBRF Flight Activity (Flightaware)

Listeners: 0 out of 1496 total

Recife Center: 128.700
Recife Center: 133.650
Recife Center: 134.800

SBRF Tower (Archives)
Recife, Brazil

Feed Status: UP
Listen in your browser - HTML5 player(in browser, HTML5)
Click here to listen with your own player(launches your MP3 player)

SBRF 181200Z 13004KT 070V160 8000 VCSH FEW008 BKN015 BKN035 23/21 Q1014

SBRF Flight Activity (Flightaware)

Listeners: 3 out of 1496 total

Recife Tower: 125.250
Recife Tower: 118.350
Recife Tower: 118.900

SBRP Tower/Center (Archives)
Ribeirao Preto, Brazil

Feed Status: UP
Listen in your browser - HTML5 player(in browser, HTML5)
Click here to listen with your own player(launches your MP3 player)

SBRP 181200Z 11006KT 9999 FEW013 20/18 Q1015

SBRP Flight Activity (Flightaware)

Listeners: 1 out of 1496 total

Leite Lopes Tower: 118.000
Pirassununga Center (North): 119.550

SBSL Twr/App/FIR (Archives)
Sao Luis, Brazil

Feed Status: UP
Listen in your browser - HTML5 player(in browser, HTML5)
Click here to listen with your own player(launches your MP3 player)

SBSL 181200Z 16002KT 9999 FEW015 25/25 Q1013

SBSL Flight Activity (Flightaware)

Listeners: 0 out of 1496 total

Amazonica Center: 133.700
Sao Luis Approach: 119.100
Sao Luis Tower: 118.900

SBSN Twr/App/ACC (Archives)
Santarem, Brazil

Feed Status: UP
Listen in your browser - HTML5 player(in browser, HTML5)
Click here to listen with your own player(launches your MP3 player)

SBSN 181200Z 20002KT 9999 -RA SCT016 SCT080 BKN100 25/24 Q1013

SBSN Flight Activity (Flightaware)

Listeners: 0 out of 1496 total

Brasilia Center/ACC: 123.650
Brasilia Center/ACC: 125.050
Santarem Approach: 119.300
Santarem Tower: 118.100

SBSR AFIS/App/Center (Archives)
Sao Jose do Rio Preto, Brazil

Feed Status: UP
Listen in your browser - HTML5 player(in browser, HTML5)
Click here to listen with your own player(launches your MP3 player)

SBSR 181200Z 05004KT 9999 SCT020 SCT080 22/17 Q1015

SBSR Flight Activity (Flightaware)

Listeners: 0 out of 1496 total

Academia Approach (North Sector): 119.750
Academia Approach (North Sector): 120.400
Brasilia Center: 135.150
Rio Preto Radio AFIS: 130.850

SBTE Twr/App (Archives)
Teresina, Brazil

Feed Status: UP
Listen in your browser - HTML5 player(in browser, HTML5)
Click here to listen with your own player(launches your MP3 player)

SBTE 181200Z 23001KT 9999 FEW030 29/22 Q1012

SBTE Flight Activity (Flightaware)

Listeners: 0 out of 1496 total

Teresina Approach: 119.600
Teresina Tower: 118.800

SBRE Recife ACC (Archives)
Paulo Afonso, Brazil

Feed Status: UP
Listen in your browser - HTML5 player(in browser, HTML5)
Click here to listen with your own player(launches your MP3 player)

SBRE Flight Activity (Flightaware)

Listeners: 0 out of 1496 total

Recife Center (ACC): 125.400
Recife Center (ACC): 125.450
Recife Center (ACC): 126.850
Recife Center (ACC): 133.650
Recife Center (ACC): 134.500
Recife Center (ACC): 134.900

SBUF AFIS/Center (Archives)
Paulo Afonso, Brazil

Feed Status: UP
Listen in your browser - HTML5 player(in browser, HTML5)
Click here to listen with your own player(launches your MP3 player)


SBUF Flight Activity (Flightaware)

Listeners: 0 out of 1496 total

Paulo Afonso Radio: 125.850
Recife Center: 133.650
Recife Center: 134.500
Recife Center: 125.450

SBQV AFIS
Vitoria da Conquista, Brazil

Feed Status: DOWN
Offline since: 2021-04-18 01:36:39 UTC

Conquista AFIS: 130.850
Despacho Azul: 131.875
Despacho Passaredo: 132.000

SBVT Gnd/Twr/App (Archives)
Vitoria, Brazil

Feed Status: UP
Listen in your browser - HTML5 player(in browser, HTML5)
Click here to listen with your own player(launches your MP3 player)

SBVT 181200Z 34005KT 9999 FEW030 SCT100 27/20 Q1014

SBVT Flight Activity (Flightaware)

Listeners: 3 out of 1496 total

SBVT Approach: 119.850
SBVT Ground: 121.950
SBVT Tower: 118.100

SCEL Gnd/Twr/Radar (Archives)
Santiago, Chile

Feed Status: UP
Listen in your browser - HTML5 player(in browser, HTML5)
Click here to listen with your own player(launches your MP3 player)

SCEL 181200Z 18005KT 140V200 5000 BR OVC005 11/10 Q1016 NOSIG

SCEL Flight Activity (Flightaware)

Listeners: 5 out of 1496 total

Santiago Authorizations: 121.700
Santiago Control (Lat 3323S North): 128.100
Santiago Control (Lat 3323S South): 126.300
Santiago Ground (Primary): 122.200
Santiago Ground (Secondary): 122.500
Santiago Radar: 125.400
Santiago Radar: 135.400
Santiago Radar (Arrival, Primary): 129.700
Santiago Radar (Arrival, Secondary): 119.700
Santiago Radar (Arrival, Secondary): 123.800
Santiago Radar (Departure, Primary): 121.100
Santiago Radar (Departure, Secondary): 123.800
Santiago Radar (Information, Primary): 122.400
Santiago Radar (Information, Secondary): 120.800
Santiago Radar (Information, Secondary): 123.800
Santiago Tower (Primary): 118.100
Santiago Tower (Secondary): 118.350
SCTB Tobalaba Tower: 118.700

SEGU App/Dep/Info (Archives)
Guayaquil, Ecuador

Feed Status: UP
Listen in your browser - HTML5 player(in browser, HTML5)
Click here to listen with your own player(launches your MP3 player)

SEGU 181200Z 06006KT 030V090 9999 -RA FEW010 BKN026 OVC100 24/22 Q1012 NOSIG RMK A2989

SEGU Flight Activity (Flightaware)

Listeners: 0 out of 1496 total

Guayaquil Approach: 120.700
Guayaquil Approach (Secondary): 119.300
Guayaquil Info: 126.900

SEGU Gnd/Twr (Archives)
Guayaquil, Ecuador

Feed Status: UP
Listen in your browser - HTML5 player(in browser, HTML5)
Click here to listen with your own player(launches your MP3 player)

SEGU 181200Z 06006KT 030V090 9999 -RA FEW010 BKN026 OVC100 24/22 Q1012 NOSIG RMK A2989

SEGU Flight Activity (Flightaware)

Listeners: 0 out of 1496 total

Guayaquil Ground: 121.900
Guayaquil Ground (Secondary): 121.700
Guayaquil Tower: 118.300
Guayaquil Tower (Secondary): 118.900

SEGU Gnd/Twr/App (Archives)
Guayaquil, Ecuador

Feed Status: UP
Listen in your browser - HTML5 player(in browser, HTML5)
Click here to listen with your own player(launches your MP3 player)

SEGU 181200Z 06006KT 030V090 9999 -RA FEW010 BKN026 OVC100 24/22 Q1012 NOSIG RMK A2989

SEGU Flight Activity (Flightaware)

Listeners: 1 out of 1496 total

Guayaquil Approach: 120.700
Guayaquil Ground: 121.900
Guayaquil Tower: 118.300

SEGU Guayaquil Center (Archives)
Guayaquil, Ecuador

Feed Status: UP
Listen in your browser - HTML5 player(in browser, HTML5)
Click here to listen with your own player(launches your MP3 player)

SEGU 181200Z 06006KT 030V090 9999 -RA FEW010 BKN026 OVC100 24/22 Q1012 NOSIG RMK A2989

SEGU Flight Activity (Flightaware)

Listeners: 0 out of 1496 total

Guayaquil Center: 127.950
Guayaquil Center: 128.300
Guayaquil Center (Secondary): 128.000
Guayaquil Center (Secondary): 123.900

SEQM ATIS (Archives)
Quito, Ecuador

Feed Status: UP
Listen in your browser - HTML5 player(in browser, HTML5)
Click here to listen with your own player(launches your MP3 player)

SEQM 181223Z VRB02KT 6000 BCFG OVC004 11/09 Q1027 BECMG TL1300 8000 RMK A3035

SEQM Flight Activity (Flightaware)

Listeners: 0 out of 1496 total

Quito ATIS: 118.700

SEQM Gnd/Twr/App (Archives)
Quito, Ecuador

Feed Status: UP
Listen in your browser - HTML5 player(in browser, HTML5)
Click here to listen with your own player(launches your MP3 player)

SEQM 181223Z VRB02KT 6000 BCFG OVC004 11/09 Q1027 BECMG TL1300 8000 RMK A3035

SEQM Flight Activity (Flightaware)

Listeners: 1 out of 1496 total

Quito Approach/Departure: 119.700
Quito Approach/Departure: 121.200
Quito Ground: 121.900
Quito Tower: 118.100
Quito Tower (Secondary): 118.350

SEQM Tower (Archives)
Quito, Ecuador

Feed Status: UP
Listen in your browser - HTML5 player(in browser, HTML5)
Click here to listen with your own player(launches your MP3 player)

SEQM 181223Z VRB02KT 6000 BCFG OVC004 11/09 Q1027 BECMG TL1300 8000 RMK A3035

SEQM Flight Activity (Flightaware)

Listeners: 0 out of 1496 total

Quito Tower: 118.100
Quito Tower (Secondary): 118.350

SJOY CTAF
Palmeira, Brazil

Feed Status: DOWN
Offline since: 2021-02-23 18:22:22 UTC

AUTO METAR SJOY 181230Z 15007KT BKN004 15/14 Q1019


SKBO Del/Gnd/Twr/App
Bogota, Colombia

Feed Status: DOWN
Offline since: 2020-09-01 16:38:05 UTC

SKBO 181230Z 02006KT 9999 SCT020 SCT080 14/12 Q1027 NOSIG RMK A3035

Bogota Approach: 119.500
Bogota Clearance Delivery: 121.600
Bogota Departure (North): 121.300
Bogota Departure (South): 119.650
Bogota Ground (North): 121.800
Bogota Ground (South): 122.750
Bogota Information: 126.900
Bogota Tower (North): 118.100
Bogota Tower (South): 118.250
Guaymaral Ground: 121.700
Guaymaral Tower: 118.800

SKBQ Approach
Barranquilla, Colombia

Feed Status: DOWN
Offline since: 2020-09-27 18:44:40 UTC

SKBQ 181222Z 00000KT 4000 BR BKN007 27/25 Q1011 BECMG SCT012 RMK A2985

Barranquilla Approach/Departure: 119.100

SPJC Approach (Archives)
Lima, Peru

Feed Status: UP
Listen in your browser - HTML5 player(in browser, HTML5)
Click here to listen with your own player(launches your MP3 player)

SPJC 181200Z 32004KT 7000 SCT012 17/16 Q1012 NOSIG RMK FG OVER SEA TN17.3 PP000

SPJC Flight Activity (Flightaware)

Listeners: 0 out of 1496 total

Lima Approach: 119.700

SPJC Ground (Archives)
Lima, Peru

Feed Status: UP
Listen in your browser - HTML5 player(in browser, HTML5)
Click here to listen with your own player(launches your MP3 player)

SPJC 181200Z 32004KT 7000 SCT012 17/16 Q1012 NOSIG RMK FG OVER SEA TN17.3 PP000

SPJC Flight Activity (Flightaware)

Listeners: 0 out of 1496 total

Lima Ground: 121.900

SPJC Tower (Archives)
Lima, Peru

Feed Status: UP
Listen in your browser - HTML5 player(in browser, HTML5)
Click here to listen with your own player(launches your MP3 player)

SPJC 181200Z 32004KT 7000 SCT012 17/16 Q1012 NOSIG RMK FG OVER SEA TN17.3 PP000

SPJC Flight Activity (Flightaware)

Listeners: 1 out of 1496 total

Lima Tower: 118.100

SPQU Gnd/Twr/App (Archives)
Arequipa, Peru

Feed Status: UP
Listen in your browser - HTML5 player(in browser, HTML5)
Click here to listen with your own player(launches your MP3 player)


SPQU Flight Activity (Flightaware)

Listeners: 0 out of 1496 total

Arequipa Ground: 121.900
Arequipa Tower/Approach: 118.700

SPST Tower (Archives)
Tarapoto, Peru

Feed Status: UP
Listen in your browser - HTML5 player(in browser, HTML5)
Click here to listen with your own player(launches your MP3 player)


SPST Flight Activity (Flightaware)

Listeners: 0 out of 1496 total

Tarapoto Tower: 118.400

SSBL Air to Air (Archives)
Blumenau, Brazil

Feed Status: UP
Listen in your browser - HTML5 player(in browser, HTML5)
Click here to listen with your own player(launches your MP3 player)

SSBL Flight Activity (Flightaware)

Listeners: 0 out of 1496 total

Air to Air: 123.450

SUAA Tower (Archives)
Montevideo, Uruguay

Feed Status: UP
Listen in your browser - HTML5 player(in browser, HTML5)
Click here to listen with your own player(launches your MP3 player)

SUAA 181200Z 03009KT CAVOK 18/16 Q1020

SUAA Flight Activity (Flightaware)

Listeners: 0 out of 1496 total

Adami Tower: 118.400
Adami Tower (backup): 122.100
Emergency/Guard: 121.500

SULS Tower (Archives)
Punta del Este, Uruguay

Feed Status: UP
Listen in your browser - HTML5 player(in browser, HTML5)
Click here to listen with your own player(launches your MP3 player)

SULS 181200Z 04003KT 9999 FEW010 18/17 Q1021

SULS Flight Activity (Flightaware)

Listeners: 1 out of 1496 total

Air to Air: 123.450
SULS A/G: 122.100
SULS Tower: 118.300

SUMU Twr/App (Archives)
Montevideo, Uruguay

Feed Status: UP
Listen in your browser - HTML5 player(in browser, HTML5)
Click here to listen with your own player(launches your MP3 player)

SUMU 181200Z 02004KT 9999 FEW020 17/17 Q1021 NOSIG

SUMU Flight Activity (Flightaware)

Listeners: 1 out of 1496 total

SUMU Approach: 119.200
SUMU Tower: 118.100

SUMU Twr/App/Radar (Archives)
Montevideo, Uruguay

Feed Status: UP
Listen in your browser - HTML5 player(in browser, HTML5)
Click here to listen with your own player(launches your MP3 player)

SUMU 181200Z 02004KT 9999 FEW020 17/17 Q1021 NOSIG

SUMU Flight Activity (Flightaware)

Listeners: 5 out of 1496 total

SUMU Approach: 120.200
SUMU Approach: 119.200
SUMU Info: 121.800
SUMU Informacion: 121.800
SUMU Radar Control: 128.500
SUMU Radar Control: 126.300
SUMU Radar Control: 128.000
SUMU Tower: 118.100

SUPE CTAF (Archives)
Punta del Este, Uruguay

Feed Status: UP
Listen in your browser - HTML5 player(in browser, HTML5)
Click here to listen with your own player(launches your MP3 player)

SULS 181200Z 04003KT 9999 FEW010 18/17 Q1021

SULS Flight Activity (Flightaware)

Listeners: 1 out of 1496 total

SUPE CTAF: 118.700

SUPU/SUPC Misc
Paysandu, Uruguay

Feed Status: DOWN
Offline since: 2021-04-18 06:51:39 UTC


Chalkling Tower: 118.700
Paysandu Tower: 118.200

SVBC Gnd/Twr/App
Barcelona, Venezuela

Feed Status: DOWN
Offline since: 2020-08-31 23:31:22 UTC


Barcelona Approach: 121.100
Barcelona Ground: 121.900
Barcelona Tower: 118.700
Emergency/Guard: 121.500
SAR: 123.100

SVPR Twr/App/FIR (Archives)
Ciudad Guayana, Venezuela

Feed Status: UP
Listen in your browser - HTML5 player(in browser, HTML5)
Click here to listen with your own player(launches your MP3 player)

SVPR Flight Activity (Flightaware)

Listeners: 0 out of 1496 total

Emergency/Guard: 121.500
FIR 6: 126.000
Guayana Approach (Primary): 119.500
Guayana Approach (Secondary): 120.300
Guayana Tower (Primary): 118.000
Guayana Tower (Secondary): 123.500
SMC: 121.900

TBPB Gnd/Twr/Radar/Center
Bridgetown, Barbados

Feed Status: DOWN
Offline since: 2021-04-17 23:27:23 UTC

TBPB 181200Z 10022KT 9999 FEW022 28/18 Q1016 NOSIG

Adams Approach/Departure: 129.350
Adams Approach/Departure: 128.850
Adams Ground: 121.900
Adams Tower: 118.700
Piarco Center: 123.700

TNCA Twr/Apron/FIR (Archives)
Oranjestad, Aruba

Feed Status: UP
Listen in your browser - HTML5 player(in browser, HTML5)
Click here to listen with your own player(launches your MP3 player)

TNCA 181200Z 10018KT 9999 FEW020 28/23 Q1013 NOSIG

TNCA Flight Activity (Flightaware)

Listeners: 0 out of 1496 total

Beatrix Ground (Apron): 121.600
Beatrix Tower: 120.900
Beatrix Tower (secondary): 118.000
Curacao Control: 127.100
Emergency/Guard: 121.500
Search/Rescue: 123.100

TNCB ATIS
Kralendijk, Bonaire

Feed Status: DOWN
Offline since: 2021-01-21 13:32:40 UTC

TNCB 181155Z AUTO 09020KT 9999 FEW017/// SCT023/// 28/23 Q1014

Bonaire ATIS: 132.300

TNCB Tower
Kralendijk, Bonaire

Feed Status: DOWN
Offline since: 2021-01-21 13:32:22 UTC

TNCB 181155Z AUTO 09020KT 9999 FEW017/// SCT023/// 28/23 Q1014

Bonaire Tower: 118.700

TNCC Curacao Control (Archives)
Willemstad, Curacao

Feed Status: UP
Listen in your browser - HTML5 player(in browser, HTML5)
Click here to listen with your own player(launches your MP3 player)

TNCC 181200Z 11014G24KT 9999 SCT021 27/22 Q1014 NOSIG

TNCC Flight Activity (Flightaware)

Listeners: 1 out of 1496 total

Curacao Control: 124.100
Curacao Control: 127.100

TNCC Tower/Radar (Archives)
Willemstad, Curacao

Feed Status: UP
Listen in your browser - HTML5 player(in browser, HTML5)
Click here to listen with your own player(launches your MP3 player)

TNCC 181200Z 11014G24KT 9999 SCT021 27/22 Q1014 NOSIG

TNCC Flight Activity (Flightaware)

Listeners: 1 out of 1496 total

Hato Radar: 119.600
Hato Tower: 118.300

TNCC Twr/Radar/Control (Archives)
Willemstad, Curacao

Feed Status: UP
Listen in your browser - HTML5 player(in browser, HTML5)
Click here to listen with your own player(launches your MP3 player)

TNCC 181200Z 11014G24KT 9999 SCT021 27/22 Q1014 NOSIG

TNCC Flight Activity (Flightaware)

Listeners: 3 out of 1496 total

Curacao Control: 127.100
Hato Radar: 119.600
Hato Tower: 118.300

TNCE Info (Archives)
Oranjestad, Sint Eustatius

Feed Status: UP
Listen in your browser - HTML5 player(in browser, HTML5)
Click here to listen with your own player(launches your MP3 player)

TNCE 181155Z AUTO 09011KT 050V130 //// // ///////// 28/21 Q1017 RE//

TNCE Flight Activity (Flightaware)

Listeners: 1 out of 1496 total

Statia Info: 118.100

TNCM App/Dep (Archives)
Philipsburg, Saint Martin

Feed Status: UP
Listen in your browser - HTML5 player(in browser, HTML5)
Click here to listen with your own player(launches your MP3 player)

TNCM 181200Z 11008KT 9999 SCT017 28/23 Q1018 NOSIG

TNCM Flight Activity (Flightaware)

Listeners: 0 out of 1496 total

Juliana Approach (only when busy): 128.950

TNCM Clearance Delivery (Archives)
Philipsburg, Saint Martin

Feed Status: UP
Listen in your browser - HTML5 player(in browser, HTML5)
Click here to listen with your own player(launches your MP3 player)

TNCM 181200Z 11008KT 9999 SCT017 28/23 Q1018 NOSIG

TNCM Flight Activity (Flightaware)

Listeners: 0 out of 1496 total

Juliana Clearance Delivery: 121.650

TNCM Tower (Archives)
Philipsburg, Saint Martin

Feed Status: UP
Listen in your browser - HTML5 player(in browser, HTML5)
Click here to listen with your own player(launches your MP3 player)

TNCM 181200Z 11008KT 9999 SCT017 28/23 Q1018 NOSIG

TNCM Flight Activity (Flightaware)

Listeners: 1 out of 1496 total

Juliana Tower (TNCM): 118.700

TTCP Gnd/Twr/App (Archives)
Scarborough, Trinidad and Tobago

Feed Status: UP
Listen in your browser - HTML5 player(in browser, HTML5)
Click here to listen with your own player(launches your MP3 player)

TTCP 181200Z 07007KT 9999 FEW018 28/22 Q1015 NOSIG

TTCP Flight Activity (Flightaware)

Listeners: 0 out of 1496 total

Piarco Approach: 119.000
Robinson Ground: 121.700
Robinson Tower: 118.400

TTPP Apron/Gnd/Twr (Archives)
Port of Spain, Trinidad and Tobago

Feed Status: UP
Listen in your browser - HTML5 player(in browser, HTML5)
Click here to listen with your own player(launches your MP3 player)

TTPP 181200Z 09010KT 9999 FEW020 28/21 Q1015 NOSIG

TTPP Flight Activity (Flightaware)

Listeners: 0 out of 1496 total

Piarco Apron: 121.750
Piarco Ground: 121.900
Piarco Tower: 118.100

TTPP Piarco Approach (Archives)
Port of Spain, Trinidad and Tobago

Feed Status: UP
Listen in your browser - HTML5 player(in browser, HTML5)
Click here to listen with your own player(launches your MP3 player)

TTPP 181200Z 09010KT 9999 FEW020 28/21 Q1015 NOSIG

TTPP Flight Activity (Flightaware)

Listeners: 1 out of 1496 total

Piarco Approach: 119.550
Piarco Approach: 119.000
Piarco Approach (backup): 124.000

TTPP Piarco Center (Archives)
Port of Spain, Trinidad and Tobago

Feed Status: UP
Listen in your browser - HTML5 player(in browser, HTML5)
Click here to listen with your own player(launches your MP3 player)

TTPP 181200Z 09010KT 9999 FEW020 28/21 Q1015 NOSIG

TTPP Flight Activity (Flightaware)

Listeners: 0 out of 1496 total

Piarco Center: 123.700
Piarco Center (Oceanic): 126.500
Piarco Center (South Sector): 125.400
Piarco Center Oceanic (Backup): 133.100

TXKF Tower/Ground (Archives)
Hamilton, Bermuda

Feed Status: UP
Listen in your browser - HTML5 player(in browser, HTML5)
Click here to listen with your own player(launches your MP3 player)

TXKF 181155Z 27010KT 9999 SCT020 SCT033 SCT190 BKN250 19/15 Q1013

TXKF Flight Activity (Flightaware)

Listeners: 0 out of 1496 total

Bermuda CTAF: 122.800
Bermuda Ground/Clearance: 124.500
Bermuda Tower: 118.100

ZNY Bermuda Sector (Archives)
Hamilton, Bermuda

Feed Status: UP
Listen in your browser - HTML5 player(in browser, HTML5)
Click here to listen with your own player(launches your MP3 player)

TXKF 181155Z 27010KT 9999 SCT020 SCT033 SCT190 BKN250 19/15 Q1013

TXKF Flight Activity (Flightaware)

Listeners: 0 out of 1496 total

New York Approach (Bermuda Sector) : 119.100
New York Center (Bermuda Sector): 128.500

UAAA Approach (Archives)
Almaty, Kazakhstan

Feed Status: UP
Listen in your browser - HTML5 player(in browser, HTML5)
Click here to listen with your own player(launches your MP3 player)

UAAA 181200Z 22003MPS 9999 SCT050CB BKN100 20/01 Q1017 R23L/CLRD65 TEMPO VRB16MPS TSRA

UAAA Flight Activity (Flightaware)

Listeners: 0 out of 1496 total

Almaty Approach: 124.800

UAAA Tower (Archives)
Almaty, Kazakhstan

Feed Status: UP
Listen in your browser - HTML5 player(in browser, HTML5)
Click here to listen with your own player(launches your MP3 player)

UAAA 181200Z 22003MPS 9999 SCT050CB BKN100 20/01 Q1017 R23L/CLRD65 TEMPO VRB16MPS TSRA

UAAA Flight Activity (Flightaware)

Listeners: 0 out of 1496 total

Almaty Tower: 119.400

UAAA Tower/Approach (Archives)
Almaty, Kazakhstan

Feed Status: UP
Listen in your browser - HTML5 player(in browser, HTML5)
Click here to listen with your own player(launches your MP3 player)

UAAA 181200Z 22003MPS 9999 SCT050CB BKN100 20/01 Q1017 R23L/CLRD65 TEMPO VRB16MPS TSRA

UAAA Flight Activity (Flightaware)

Listeners: 3 out of 1496 total

Almaty Approach: 124.800
Almaty Tower: 119.400

UIAA Twr/App/Center
Chita, Russia

Feed Status: DOWN
Offline since: 2021-02-15 23:24:39 UTC

Center: 135.600
Chita Approach: 122.000
Chita Tower: 118.200

UKKK Gnd/Twr/ACC
Kyiv, Ukraine

Feed Status: DOWN
Offline since: 2020-02-16 19:49:23 UTC

UKKK 181200Z VRB01MPS 9999 BKN013 BKN031 09/07 Q1016 R26/190060 NOSIG

Emergency/Guard: 121.500
Kyiv Radar ACC: 122.775
Kyiv Radar ACC: 124.675
Kyiv Radar ACC: 127.725
Kyiv Radar ACC: 128.175
Kyiv Radar ACC: 125.300
Kyiv Zhuliany Ground: 119.000
Kyiv Zhuliany Tower: 120.700

UNNT Gnd/Twr/App/Radar/Misc (Archives)
Novosibirsk, Russia

Feed Status: UP
Listen in your browser - HTML5 player(in browser, HTML5)
Click here to listen with your own player(launches your MP3 player)

UNNT 181200Z 16006MPS 9999 BKN052CB 06/M00 Q1007 R25/290155 R16/290155 NOSIG RMK QFE746/0994

UNNT Flight Activity (Flightaware)

Listeners: 23 out of 1496 total

ACC_Novosibirsk-Control [5th military channel]: 128.500
ACC_Novosibirsk-Control [Southeast]: 126.100
ACC_Novosibirsk-Control [West]: 127.000
GPA_Kristallik [Severniy airfield]: 123.425
GPA_Sernisiy [Chkalovskiy airfield]: 124.750
GPA_Tomsk Information 1: 134.500
MIL_3 [3rd military channel]: 130.750
MIL_Larek [Shilovo facility]: 123.750
MIL_Maneken [Chkalovskiy airfield]: 123.550
MIL_Novosibirsk-1 [1st military channel]: 124.000
MIL_Noyabr' 31: 124.900
MIL_Trimaran: 124.500
SP_Air-to-Air: 123.450
SP_Air-to-Air 2: 123.400
SP_Common backup frequency: 129.000
SP_Emergency: 121.500
SP_Emergency 2: 123.100
SP_Flyoff: 124.375
SURF_Boarding: 163.425
SURF_Duty chart: 163.800
SURF_O&D Service: 163.325
SURF_Search & Rescue: 164.000
SURF_Security: 163.750
SURF_Tower surf: 163.650
SURF_Vehicles: 163.850
UNNT_Backup frequency: 127.100
UNNT_Novosibirsk-Approach: 127.500
UNNT_Novosibirsk-Ground: 121.700
UNNT_Novosibirsk-Radar: 122.000
UNNT_Novosibirsk-Tower: 118.500
UNNT_Novosibirsk-Transit: 131.600
UNNT_S7 FOCC: 131.925

UNOO Gnd/Tower/App (Archives)
Omsk, Russia

Feed Status: UP
Listen in your browser - HTML5 player(in browser, HTML5)
Click here to listen with your own player(launches your MP3 player)

UNOO 181200Z 33010G15MPS 9999 -SHRA BKN011 BKN020CB 04/M01 Q1009 R25/CLRD60 NOSIG RMK QFE749

UNOO Flight Activity (Flightaware)

Listeners: 3 out of 1496 total

Aerodrom Kalachevo: 123.300
Aerodrom Marianovka: 123.000
Emergency/Guard: 121.500
Novosibirsk Control (Sector 7): 132.500
Novosibirsk Control (Sector 8): 132.900
Omsk Approach (FL060-FL265): 131.200
Omsk Apron: 118.800
Omsk Start/Radar: 119.000
Omsk Taxiing: 121.700
Omsk Transit: 131.700
UNOS/OMSK-Severny: 124.000

UNTT Gnd/Info/Radar/Control (Archives)
Tomsk, Russia

Feed Status: UP
Listen in your browser - HTML5 player(in browser, HTML5)
Click here to listen with your own player(launches your MP3 player)

UNTT Flight Activity (Flightaware)

Listeners: 0 out of 1496 total

Common Backup Frequency: 129.000
Emergency/Guard: 121.500
Novosibirsk Control (Sector 2): 126.100
Novosibirsk Control (Sector 3): 129.300
Novosibirsk Control (Sector 5): 132.300
Tomsk Ground: 118.800
Tomsk Information 1: 134.500
Tomsk Krug (Radar): 127.300
Tomsk Transit: 131.875
Troynik (Golovino): 122.400

URKK Gnd/Twr/App (Archives)
Krasnodar, Russia

Feed Status: UP
Listen in your browser - HTML5 player(in browser, HTML5)
Click here to listen with your own player(launches your MP3 player)

URKK 181200Z 05002MPS 010V080 9999 SCT009 BKN060CB 13/11 Q1015 R05R/290060 NOSIG RMK QFE758

URKK Flight Activity (Flightaware)

Listeners: 18 out of 1496 total

Krasnodar Approach: 129.600
Krasnodar Ground: 119.000
Krasnodar Radar: 121.300
Krasnodar Tower: 118.200

URMT Twr/App/Control (Archives)
Stavropol, Russia

Feed Status: UP
Listen in your browser - HTML5 player(in browser, HTML5)
Click here to listen with your own player(launches your MP3 player)

URMT 181200Z 26004MPS 9999 -SHRA BKN030CB 13/12 Q1016 R25/290150 TEMPO 0800 +TSRA BKN002 BKN020CB RMK QFE724

URMT Flight Activity (Flightaware)

Listeners: 2 out of 1496 total

Stavropol Approach: 120.300
Stavropol Control: 118.250
Stavropol Tower: 120.900

URSS Gnd/Twr/App (Archives)
Sochi, Russia

Feed Status: UP
Listen in your browser - HTML5 player(in browser, HTML5)
Click here to listen with your own player(launches your MP3 player)

URSS 181200Z 22004MPS 9999 SCT060CB OVC110 19/11 Q1015 R02/010070 R06/010070 NOSIG RMK R06/25003MPS QFE759

URSS Flight Activity (Flightaware)

Listeners: 14 out of 1496 total

Sochi Approach: 118.300
Sochi Approach: 119.700
Sochi District (Small Aircraft): 118.500
Sochi Start: 121.200
Sochi Taxi: 119.000
Sochi Tower: 124.600

USDD Gnd/Twr/App/Control (Archives)
Salekhard, Russia

Feed Status: UP
Listen in your browser - HTML5 player(in browser, HTML5)
Click here to listen with your own player(launches your MP3 player)


USDD Flight Activity (Flightaware)

Listeners: 0 out of 1496 total

Salekhard Control: 132.300
Salekhard Ground: 118.800
Salekhard Info: 125.200
Salekhard Krug: 120.800
Salekhard Tower: 118.600
Salekhard Transit: 131.700

USTR Gnd/Twr/App (Archives)
Tyumen, Russia

Feed Status: UP
Listen in your browser - HTML5 player(in browser, HTML5)
Click here to listen with your own player(launches your MP3 player)

USTR 181200Z 36009G14MPS CAVOK 02/M18 Q1025 R03/CLRD65 R30/CLRD65 TEMPO 01015G20MPS

USTR Flight Activity (Flightaware)

Listeners: 0 out of 1496 total

Tyumen Approach: 126.100
Tyumen Control: 132.600
Tyumen Control: 133.600
Tyumen Info (Regional): 133.400
Tyumen Start: 118.200
Tyumen Transit: 131.800

USUU Twr/App/Control (Archives)
Kurgan, Russia

Feed Status: UP
Listen in your browser - HTML5 player(in browser, HTML5)
Click here to listen with your own player(launches your MP3 player)

USUU Flight Activity (Flightaware)

Listeners: 0 out of 1496 total

Aerodromnaya 50: 164.100
Baggage Handling: 164.025
Kurgan Approach: 120.300
Kurgan Tower: 134.300
Kurgan/USUU Transit: 131.700
Kurtamysh: 122.450
Ural Control Sector 4: 119.700
USUL Tower: 129.600

UUEE Twr/App/Radar (Archives)
Moscow, Russia

Feed Status: UP
Listen in your browser - HTML5 player(in browser, HTML5)
Click here to listen with your own player(launches your MP3 player)

UUEE 181200Z 07009MPS CAVOK 14/M05 Q1020 R06C/CLRD62 R06L/CLRD62 NOSIG

UUEE Flight Activity (Flightaware)

Listeners: 5 out of 1496 total

Sheremetyevo Radar: 118.100
Sheremetyevo Radar/Departure: 126.600
Sheremetyevo Tower: 131.500
Sheremetyevo Tower (Rwy 24R/06L): 118.700

VCBI Director
Colombo, Sri Lanka

Feed Status: DOWN
Offline since: 2021-04-13 00:55:06 UTC

VCBI 181210Z 24010KT 200V280 9999 SCT018 30/25 Q1010 NOSIG

Colombo Director: 132.400

VGHS Tower
Dhaka, Bangladesh

Feed Status: DOWN
Offline since: 2021-04-15 09:42:40 UTC

VGHS 181200Z 21008KT 4000 HZ FEW015 SCT100 32/20 Q1006 NOSIG

Bangladesh Tower: 118.300

VHHH ATIS
Hong Kong, Hong Kong

Feed Status: DOWN
Offline since: 2020-04-09 19:09:06 UTC

VHHH 181200Z 10016KT 9000 FEW030 SCT045 23/16 Q1014 NOSIG

Hong Kong Arrival ATIS: 128.200

VHHH Clearance Delivery
Hong Kong, Hong Kong

Feed Status: DOWN
Offline since: 2020-04-09 19:09:06 UTC

VHHH 181200Z 10016KT 9000 FEW030 SCT045 23/16 Q1014 NOSIG

Hong Kong Clearance Delivery: 129.900

VHHH Ground
Hong Kong, Hong Kong

Feed Status: DOWN
Offline since: 2020-04-09 19:08:40 UTC

VHHH 181200Z 10016KT 9000 FEW030 SCT045 23/16 Q1014 NOSIG

Hong Kong Ground (North): 121.600
Hong Kong Ground (South): 122.550

VHHH Ground (North)
Hong Kong, Hong Kong

Feed Status: DOWN
Offline since: 2020-04-09 19:09:06 UTC

VHHH 181200Z 10016KT 9000 FEW030 SCT045 23/16 Q1014 NOSIG

Hong Kong Ground (North): 121.600

VHHH Ground (South)
Hong Kong, Hong Kong

Feed Status: DOWN
Offline since: 2020-04-09 19:09:06 UTC

VHHH 181200Z 10016KT 9000 FEW030 SCT045 23/16 Q1014 NOSIG

Hong Kong Ground (South): 122.550

VMMC Tower (Archives)
Taipa, China

Feed Status: UP
Listen in your browser - HTML5 player(in browser, HTML5)
Click here to listen with your own player(launches your MP3 player)

VMMC 181200Z 10015KT 070V150 9999 FEW025 SCT040 23/19 Q1014 NOSIG

VMMC Flight Activity (Flightaware)

Listeners: 4 out of 1496 total

Macau Tower: 118.000

VTBS Approach (East) (Archives)
Bangkok, Thailand

Feed Status: UP
Listen in your browser - HTML5 player(in browser, HTML5)
Click here to listen with your own player(launches your MP3 player)

VTBS 181200Z 22004KT 9999 FEW020 30/24 Q1008 NOSIG

VTBS Flight Activity (Flightaware)

Listeners: 0 out of 1496 total

Bangkok Approach (East): 122.350

VTBS Approach (North) (Archives)
Bangkok, Thailand

Feed Status: UP
Listen in your browser - HTML5 player(in browser, HTML5)
Click here to listen with your own player(launches your MP3 player)

VTBS 181200Z 22004KT 9999 FEW020 30/24 Q1008 NOSIG

VTBS Flight Activity (Flightaware)

Listeners: 0 out of 1496 total

Bangkok Approach (North): 121.700

VTBS Approach 119.1 (Archives)
Bangkok, Thailand

Feed Status: UP
Listen in your browser - HTML5 player(in browser, HTML5)
Click here to listen with your own player(launches your MP3 player)

VTBS 181200Z 22004KT 9999 FEW020 30/24 Q1008 NOSIG

VTBS Flight Activity (Flightaware)

Listeners: 0 out of 1496 total

Bangkok Approach: 119.100

VTBS Approach 119.4 (Archives)
Bangkok, Thailand

Feed Status: UP
Listen in your browser - HTML5 player(in browser, HTML5)
Click here to listen with your own player(launches your MP3 player)

VTBS 181200Z 22004KT 9999 FEW020 30/24 Q1008 NOSIG

VTBS Flight Activity (Flightaware)

Listeners: 0 out of 1496 total

Bangkok Approach: 119.400

VTBS Approach 120.3 (Archives)
Bangkok, Thailand

Feed Status: UP
Listen in your browser - HTML5 player(in browser, HTML5)
Click here to listen with your own player(launches your MP3 player)

VTBS 181200Z 22004KT 9999 FEW020 30/24 Q1008 NOSIG

VTBS Flight Activity (Flightaware)

Listeners: 0 out of 1496 total

Bangkok Approach: 120.300

VTBS Approach/Arrival (Archives)
Bangkok, Thailand

Feed Status: UP
Listen in your browser - HTML5 player(in browser, HTML5)
Click here to listen with your own player(launches your MP3 player)

VTBS 181200Z 22004KT 9999 FEW020 30/24 Q1008 NOSIG

VTBS Flight Activity (Flightaware)

Listeners: 1 out of 1496 total

Bangkok Approach: 124.350
Bangkok Approach: 125.200
Bangkok Approach: 124.700
Bangkok Approach: 126.300
Bangkok Approach: 133.400
Bangkok Arrival (VTBD): 125.500

VTBS Arrival 121.1 (Archives)
Bangkok, Thailand

Feed Status: UP
Listen in your browser - HTML5 player(in browser, HTML5)
Click here to listen with your own player(launches your MP3 player)

VTBS 181200Z 22004KT 9999 FEW020 30/24 Q1008 NOSIG

VTBS Flight Activity (Flightaware)

Listeners: 0 out of 1496 total

Bangkok Arrival: 121.100

VTBS ATIS (Archives)
Bangkok, Thailand

Feed Status: UP
Listen in your browser - HTML5 player(in browser, HTML5)
Click here to listen with your own player(launches your MP3 player)

VTBS 181200Z 22004KT 9999 FEW020 30/24 Q1008 NOSIG

VTBS Flight Activity (Flightaware)

Listeners: 0 out of 1496 total

Bangkok D-ATIS: 127.650

VTBS Departure (Archives)
Bangkok, Thailand

Feed Status: UP
Listen in your browser - HTML5 player(in browser, HTML5)
Click here to listen with your own player(launches your MP3 player)

VTBS 181200Z 22004KT 9999 FEW020 30/24 Q1008 NOSIG

VTBS Flight Activity (Flightaware)

Listeners: 0 out of 1496 total

Bangkok Departure: 119.250

VTBS Ground (All) (Archives)
Bangkok, Thailand

Feed Status: UP
Listen in your browser - HTML5 player(in browser, HTML5)
Click here to listen with your own player(launches your MP3 player)

VTBS 181200Z 22004KT 9999 FEW020 30/24 Q1008 NOSIG

VTBS Flight Activity (Flightaware)

Listeners: 0 out of 1496 total

Bangkok Ground (East): 121.650
Bangkok Ground (Main): 121.750
Bangkok Ground (West): 121.950

VTBS Ground (East) (Archives)
Bangkok, Thailand

Feed Status: UP
Listen in your browser - HTML5 player(in browser, HTML5)
Click here to listen with your own player(launches your MP3 player)

VTBS 181200Z 22004KT 9999 FEW020 30/24 Q1008 NOSIG

VTBS Flight Activity (Flightaware)

Listeners: 0 out of 1496 total

Bangkok Ground (East): 121.650

VTBS Ground (Main) (Archives)
Bangkok, Thailand

Feed Status: UP
Listen in your browser - HTML5 player(in browser, HTML5)
Click here to listen with your own player(launches your MP3 player)

VTBS 181200Z 22004KT 9999 FEW020 30/24 Q1008 NOSIG

VTBS Flight Activity (Flightaware)

Listeners: 0 out of 1496 total

Bangkok Ground (Main): 121.750

VTBS Ground (West) (Archives)
Bangkok, Thailand

Feed Status: UP
Listen in your browser - HTML5 player(in browser, HTML5)
Click here to listen with your own player(launches your MP3 player)

VTBS 181200Z 22004KT 9999 FEW020 30/24 Q1008 NOSIG

VTBS Flight Activity (Flightaware)

Listeners: 0 out of 1496 total

Bangkok Ground (West): 121.950

VTBS Tower (Archives)
Bangkok, Thailand

Feed Status: UP
Listen in your browser - HTML5 player(in browser, HTML5)
Click here to listen with your own player(launches your MP3 player)

VTBS 181200Z 22004KT 9999 FEW020 30/24 Q1008 NOSIG

VTBS Flight Activity (Flightaware)

Listeners: 1 out of 1496 total

Bangkok Tower (Rwy 01L/19R): 119.000
Bangkok Tower (Rwy 01R/19L): 118.200

VTBS Tower (Rwy 01L/19R) (Archives)
Bangkok, Thailand

Feed Status: UP
Listen in your browser - HTML5 player(in browser, HTML5)
Click here to listen with your own player(launches your MP3 player)

VTBS 181200Z 22004KT 9999 FEW020 30/24 Q1008 NOSIG

VTBS Flight Activity (Flightaware)

Listeners: 0 out of 1496 total

Bangkok Tower (Rwy 01L/19R): 119.000

VTBS Tower (Rwy 01R/19L) (Archives)
Bangkok, Thailand

Feed Status: UP
Listen in your browser - HTML5 player(in browser, HTML5)
Click here to listen with your own player(launches your MP3 player)

VTBS 181200Z 22004KT 9999 FEW020 30/24 Q1008 NOSIG

VTBS Flight Activity (Flightaware)

Listeners: 0 out of 1496 total

Bangkok Tower (Rwy 01R/19L): 118.200

VTSS Approach (Archives)
Songkhla, Thailand

Feed Status: UP
Listen in your browser - HTML5 player(in browser, HTML5)
Click here to listen with your own player(launches your MP3 player)

VTSS 181200Z 23004KT 090V260 9999 FEW020 SCT100 29/25 Q1009 NOSIG

VTSS Flight Activity (Flightaware)

Listeners: 0 out of 1496 total

Hat Yai Approach: 126.700

WAHH Approach
Yogyakarta, Indonesia

Feed Status: DOWN
Offline since: 2019-01-09 17:03:03 UTC

Adisutjipto Approach: 123.400

WBKK Gnd/Twr/App
Kota Kinabalu, Malaysia

Feed Status: DOWN
Offline since: 2020-09-16 00:42:06 UTC

WBKK 181200Z VRB04KT 9999 FEW014 29/24 Q1010 NOSIG

Kinabalu Director: 119.100
Kinabalu Ground: 121.600
Kinabalu Radar: 126.100
Kinabalu Radar: 132.450
Kinabalu Tower: 118.300

WBKK Gnd/Twr/Radar/Control (Archives)
Kota Kinabalu, Malaysia

Feed Status: UP
Listen in your browser - HTML5 player(in browser, HTML5)
Click here to listen with your own player(launches your MP3 player)

WBKK 181200Z VRB04KT 9999 FEW014 29/24 Q1010 NOSIG


Listeners: 4 out of 1496 total

Kinabalu Director: 119.100
Kinabalu Ground: 121.600
Kinabalu Radar: 126.100
Kinabalu Radar: 132.450
Kinabalu Radar: 128.300
Kinabalu Tower: 118.300

WBKS Approach (Archives)
Sandakan, Malaysia

Feed Status: UP
Listen in your browser - HTML5 player(in browser, HTML5)
Click here to listen with your own player(launches your MP3 player)

WBKS 181200Z 35003KT 320V020 9999 FEW016 29/24 Q1008


Listeners: 4 out of 1496 total

Sandakan Approach/Departure: 123.200

WBKS ATIS (Archives)
Sandakan, Malaysia

Feed Status: UP
Listen in your browser - HTML5 player(in browser, HTML5)
Click here to listen with your own player(launches your MP3 player)

WBKS 181200Z 35003KT 320V020 9999 FEW016 29/24 Q1008


Listeners: 2 out of 1496 total

Sandakan ATIS: 128.200

WBKS Emergency/Guard (Archives)
Sandakan, Malaysia

Feed Status: UP
Listen in your browser - HTML5 player(in browser, HTML5)
Click here to listen with your own player(launches your MP3 player)

WBKS 181200Z 35003KT 320V020 9999 FEW016 29/24 Q1008


Listeners: 2 out of 1496 total

Emergency/Guard: 121.500

WBKS Gnd/Twr/App/Guard (Archives)
Sandakan, Malaysia

Feed Status: UP
Listen in your browser - HTML5 player(in browser, HTML5)
Click here to listen with your own player(launches your MP3 player)

WBKS 181200Z 35003KT 320V020 9999 FEW016 29/24 Q1008


Listeners: 2 out of 1496 total

Emergency/Guard: 121.500
Sandakan Approach/Departure: 123.200
Sandakan Ground: 121.900
Sandakan Tower: 122.050

WBKS Ground (Archives)
Sandakan, Malaysia

Feed Status: UP
Listen in your browser - HTML5 player(in browser, HTML5)
Click here to listen with your own player(launches your MP3 player)

WBKS 181200Z 35003KT 320V020 9999 FEW016 29/24 Q1008


Listeners: 2 out of 1496 total

Sandakan Ground: 121.900

WBKS Tower (Archives)
Sandakan, Malaysia

Feed Status: UP
Listen in your browser - HTML5 player(in browser, HTML5)
Click here to listen with your own player(launches your MP3 player)

WBKS 181200Z 35003KT 320V020 9999 FEW016 29/24 Q1008


Listeners: 2 out of 1496 total

Sandakan Tower: 122.050

WMKB Radar (Archives)
Penang, Malaysia

Feed Status: UP
Listen in your browser - HTML5 player(in browser, HTML5)
Click here to listen with your own player(launches your MP3 player)

WMKB 181200Z 29006KT 250V330 9999 SCT024 30/24 Q1009 NOSIG


Listeners: 0 out of 1496 total

Butterworth Radar: 125.800

WMKK Control/Info/Radar (Archives)
Sepang, Malaysia

Feed Status: UP
Listen in your browser - HTML5 player(in browser, HTML5)
Click here to listen with your own player(launches your MP3 player)

WMKK 181200Z 04008KT 350V080 9999 FEW017CB 28/21 Q1010 RETS NOSIG


Listeners: 1 out of 1496 total

Lumpur Departure: 120.350
Lumpur Departure: 124.650
Lumpur Departure: 125.100
Lumpur Departure: 135.250
Lumpur Departure: 135.750
Lumpur Information (North): 134.650
Lumpur Information (South): 126.100
Lumpur Radar: 133.700
Lumpur Radar: 132.600
Lumpur Radar: 133.400
Lumpur Radar: 119.450
Lumpur Radar: 125.850
Lumpur Radar: 118.650
Lumpur Radar: 124.200
Lumpur Radar: 121.250
Lumpur Radar: 128.350
Lumpur Radar (East): 134.250
Lumpur Radar (North): 132.800
Lumpur Radar (South): 123.750

WMSA Del/Gnd/Twr/App (Archives)
Subang, Malaysia

Feed Status: UP
Listen in your browser - HTML5 player(in browser, HTML5)
Click here to listen with your own player(launches your MP3 player)

WMSA 181200Z VRB03KT 1000 R15/2000N FEW017CB 29/24 Q1010


Listeners: 0 out of 1496 total

Lumpur Approach: 119.450
Lumpur Director: 124.200
Subang Clearance Delivery: 126.000
Subang Ground: 121.900
Subang Tower: 118.200

YADG CTAF (Archives)
Sellicks Hill, South Australia, Australia

Feed Status: UP
Listen in your browser - HTML5 player(in browser, HTML5)
Click here to listen with your own player(launches your MP3 player)

YADG Flight Activity (Flightaware)

Listeners: 0 out of 1496 total

Aldinga CTAF: 127.150

YBAF Gnd/Twr #2 (Archives)
Brisbane, Queensland, Australia

Feed Status: UP
Listen in your browser - HTML5 player(in browser, HTML5)
Click here to listen with your own player(launches your MP3 player)

YBAF Flight Activity (Flightaware)

Listeners: 0 out of 1496 total

Brisbane Ground: 119.900
Brisbane Tower (North): 123.600
Brisbane Tower/CTAF (South): 118.100

YBAS Tower/Center (Archives)
Alice Springs, Northern Territory, Australia

Feed Status: UP
Listen in your browser - HTML5 player(in browser, HTML5)
Click here to listen with your own player(launches your MP3 player)

YBAS 181200Z AUTO 16007KT 9999 // NCD 13/00 Q1021

YBAS Flight Activity (Flightaware)

Listeners: 1 out of 1496 total

Alice Tower/CTAF: 118.300
Melbourne Center (above FL280): 128.850
Melbourne Center (below FL280): 119.800

YBBN Center (Archives)
Brisbane, Queensland, Australia

Feed Status: UP
Listen in your browser - HTML5 player(in browser, HTML5)
Click here to listen with your own player(launches your MP3 player)

YBBN 181200Z 15006KT 9999 FEW040 18/13 Q1018

YBBN Flight Activity (Flightaware)

Listeners: 1 out of 1496 total

Brisbane Center (East): 132.850
Brisbane Center (North): 123.000
Brisbane Center (South): 128.150
Brisbane Center (West): 134.300

YBBN Gnd/Twr/App/Dep (Archives)
Brisbane, Queensland, Australia

Feed Status: UP
Listen in your browser - HTML5 player(in browser, HTML5)
Click here to listen with your own player(launches your MP3 player)

YBBN 181200Z 15006KT 9999 FEW040 18/13 Q1018

YBBN Flight Activity (Flightaware)

Listeners: 0 out of 1496 total

Brisbane Approach: 123.500
Brisbane Approach/Departure (North): 124.700
Brisbane Approach/Departure (South): 125.600
Brisbane Departure: 128.300
Brisbane Departure: 133.450
Brisbane Ground: 121.700
Brisbane Tower: 120.500

YBBN Twr/App/Dep (Archives)
Brisbane, Queensland, Australia

Feed Status: UP
Listen in your browser - HTML5 player(in browser, HTML5)
Click here to listen with your own player(launches your MP3 player)

YBBN 181200Z 15006KT 9999 FEW040 18/13 Q1018

YBBN Flight Activity (Flightaware)

Listeners: 1 out of 1496 total

Brisbane Approach: 123.500
Brisbane Approach/Departure (North): 124.700
Brisbane Approach/Departure (South): 125.600
Brisbane Departure: 128.300
Brisbane Departure: 133.450
Brisbane Tower: 120.500

YBBN Twr/App/Dep/Center (Archives)
Brisbane, Queensland, Australia

Feed Status: UP
Listen in your browser - HTML5 player(in browser, HTML5)
Click here to listen with your own player(launches your MP3 player)

YBBN 181200Z 15006KT 9999 FEW040 18/13 Q1018

YBBN Flight Activity (Flightaware)

Listeners: 1 out of 1496 total

Brisbane Approach: 123.500
Brisbane Approach/Departure (North): 124.700
Brisbane Approach/Departure (South): 125.600
Brisbane Center (North): 123.000
Brisbane Departure: 128.300
Brisbane Tower: 120.500

YBCG Approach (Archives)
Gold Coast City, Queensland, Australia

Feed Status: UP
Listen in your browser - HTML5 player(in browser, HTML5)
Click here to listen with your own player(launches your MP3 player)

YBCG 181200Z AUTO 21006KT 9999 // NCD 18/13 Q1018

YBCG Flight Activity (Flightaware)

Listeners: 1 out of 1496 total

Brisbane Approach: 123.500

YBCG Area CTAF (Archives)
Gold Coast City, Queensland, Australia

Feed Status: UP
Listen in your browser - HTML5 player(in browser, HTML5)
Click here to listen with your own player(launches your MP3 player)

YBCG 181200Z AUTO 21006KT 9999 // NCD 18/13 Q1018

YBCG Flight Activity (Flightaware)

Listeners: 0 out of 1496 total

Gold Coast Area CTAF: 126.700

YBCG Brisbane Centre (Archives)
Gold Coast City, Queensland, Australia

Feed Status: UP
Listen in your browser - HTML5 player(in browser, HTML5)
Click here to listen with your own player(launches your MP3 player)

YBCG 181200Z AUTO 21006KT 9999 // NCD 18/13 Q1018

YBCG Flight Activity (Flightaware)

Listeners: 1 out of 1496 total

Brisbane Centre/Radar: 119.500

YBCG Ground (Archives)
Gold Coast City, Queensland, Australia

Feed Status: UP
Listen in your browser - HTML5 player(in browser, HTML5)
Click here to listen with your own player(launches your MP3 player)

YBCG 181200Z AUTO 21006KT 9999 // NCD 18/13 Q1018

YBCG Flight Activity (Flightaware)

Listeners: 0 out of 1496 total

Gold Coast Ground: 121.800

YBCG Ground/Tower (Archives)
Gold Coast City, Queensland, Australia

Feed Status: UP
Listen in your browser - HTML5 player(in browser, HTML5)
Click here to listen with your own player(launches your MP3 player)

YBCG 181200Z AUTO 21006KT 9999 // NCD 18/13 Q1018

YBCG Flight Activity (Flightaware)

Listeners: 0 out of 1496 total

Gold Coast Ground: 121.800
Gold Coast Tower: 118.700

YBCG Tower (Archives)
Gold Coast City, Queensland, Australia

Feed Status: UP
Listen in your browser - HTML5 player(in browser, HTML5)
Click here to listen with your own player(launches your MP3 player)

YBCG 181200Z AUTO 21006KT 9999 // NCD 18/13 Q1018

YBCG Flight Activity (Flightaware)

Listeners: 0 out of 1496 total

Gold Coast Tower: 118.700

YBCS App/Dep #1 (Archives)
Cairns, Queensland, Australia

Feed Status: UP
Listen in your browser - HTML5 player(in browser, HTML5)
Click here to listen with your own player(launches your MP3 player)

YBCS 181230Z AUTO 15009KT 8000 RA SCT018 BKN026 BKN036 24/23 Q1011

YBCS Flight Activity (Flightaware)

Listeners: 0 out of 1496 total

Cairns Approach/Departure: 118.400

YBCS App/Dep #2 (Archives)
Cairns, Queensland, Australia

Feed Status: UP
Listen in your browser - HTML5 player(in browser, HTML5)
Click here to listen with your own player(launches your MP3 player)

YBCS 181230Z AUTO 15009KT 8000 RA SCT018 BKN026 BKN036 24/23 Q1011

YBCS Flight Activity (Flightaware)

Listeners: 0 out of 1496 total

Cairns Approach/Departure: 126.100

YBCS App/Dep (all) (Archives)
Cairns, Queensland, Australia

Feed Status: UP
Listen in your browser - HTML5 player(in browser, HTML5)
Click here to listen with your own player(launches your MP3 player)

YBCS 181230Z AUTO 15009KT 8000 RA SCT018 BKN026 BKN036 24/23 Q1011

YBCS Flight Activity (Flightaware)

Listeners: 0 out of 1496 total

Cairns Approach/Departure: 126.100
Cairns Approach/Departure: 118.400

YBCS Brisbane Centre (Archives)
Cairns, Queensland, Australia

Feed Status: UP
Listen in your browser - HTML5 player(in browser, HTML5)
Click here to listen with your own player(launches your MP3 player)

YBCS 181230Z AUTO 15009KT 8000 RA SCT018 BKN026 BKN036 24/23 Q1011

YBCS Flight Activity (Flightaware)

Listeners: 1 out of 1496 total

Brisbane Centre: 121.200

YBCS Emergency/Guard (Archives)
Cairns, Queensland, Australia

Feed Status: UP
Listen in your browser - HTML5 player(in browser, HTML5)
Click here to listen with your own player(launches your MP3 player)

YBCS 181230Z AUTO 15009KT 8000 RA SCT018 BKN026 BKN036 24/23 Q1011

YBCS Flight Activity (Flightaware)

Listeners: 0 out of 1496 total

Emergency/Guard: 121.500

YBCS Ground (Archives)
Cairns, Queensland, Australia

Feed Status: UP
Listen in your browser - HTML5 player(in browser, HTML5)
Click here to listen with your own player(launches your MP3 player)

YBCS 181230Z AUTO 15009KT 8000 RA SCT018 BKN026 BKN036 24/23 Q1011

YBCS Flight Activity (Flightaware)

Listeners: 0 out of 1496 total

Cairns Ground: 121.700

YBCS Ground/Tower (Archives)
Cairns, Queensland, Australia

Feed Status: UP
Listen in your browser - HTML5 player(in browser, HTML5)
Click here to listen with your own player(launches your MP3 player)

YBCS 181230Z AUTO 15009KT 8000 RA SCT018 BKN026 BKN036 24/23 Q1011

YBCS Flight Activity (Flightaware)

Listeners: 0 out of 1496 total

Cairns Ground: 121.700
Cairns Tower: 124.900

YBCS Tower (Archives)
Cairns, Queensland, Australia

Feed Status: UP
Listen in your browser - HTML5 player(in browser, HTML5)
Click here to listen with your own player(launches your MP3 player)

YBCS 181230Z AUTO 15009KT 8000 RA SCT018 BKN026 BKN036 24/23 Q1011

YBCS Flight Activity (Flightaware)

Listeners: 0 out of 1496 total

Cairns Tower: 124.900

YBCV CTAF/Brisbane Center (Archives)
Charleville, Queensland, Australia

Feed Status: UP
Listen in your browser - HTML5 player(in browser, HTML5)
Click here to listen with your own player(launches your MP3 player)

YBCV 181200Z AUTO 14005KT 9999 // NCD 15/04 Q1019

YBCV Flight Activity (Flightaware)

Listeners: 1 out of 1496 total

Brisbane Center: 124.800
Charleville CTAF/UNICOM: 126.700

YBDG CTAF (Archives)
Bendigo, Victoria, Australia

Feed Status: UP
Listen in your browser - HTML5 player(in browser, HTML5)
Click here to listen with your own player(launches your MP3 player)

YBDG Flight Activity (Flightaware)

Listeners: 0 out of 1496 total

Bendigo CTAF: 119.300

YBOK Del/Gnd/Twr/App (Archives)
Oakey, Queensland, Australia

Feed Status: UP
Listen in your browser - HTML5 player(in browser, HTML5)
Click here to listen with your own player(launches your MP3 player)

YBOK Flight Activity (Flightaware)

Listeners: 0 out of 1496 total

Brisbane Center/FSS: 121.200
Oakey Approach: 125.400
Oakey Approach: 123.700
Oakey Approach (Final): 135.850
Oakey Clearance Delivery: 133.350
Oakey CTAF (+YTWB/YBWW): 127.650
Oakey Ground: 121.900
Oakey Tower: 120.100

YBSS CTAF (Archives)
Bacchus Marsh, Victoria, Australia

Feed Status: UP
Listen in your browser - HTML5 player(in browser, HTML5)
Click here to listen with your own player(launches your MP3 player)

YBSS Flight Activity (Flightaware)

Listeners: 0 out of 1496 total

Bacchus Marsh CTAF: 118.800

YBSS Glider 122.5 (Archives)
Bacchus Marsh, Victoria, Australia

Feed Status: UP
Listen in your browser - HTML5 player(in browser, HTML5)
Click here to listen with your own player(launches your MP3 player)

YBSS Flight Activity (Flightaware)

Listeners: 0 out of 1496 total

Bacchus Marsh Glider Chat: 122.500

YBSS Glider 122.7 (Archives)
Bacchus Marsh, Victoria, Australia

Feed Status: UP
Listen in your browser - HTML5 player(in browser, HTML5)
Click here to listen with your own player(launches your MP3 player)

YBSS Flight Activity (Flightaware)

Listeners: 0 out of 1496 total

Bacchus Marsh Glider Chat: 122.700

YBSS Glider 122.9 (Archives)
Bacchus Marsh, Victoria, Australia

Feed Status: UP
Listen in your browser - HTML5 player(in browser, HTML5)
Click here to listen with your own player(launches your MP3 player)

YBSS Flight Activity (Flightaware)

Listeners: 0 out of 1496 total

Bacchus Marsh Glider Chat: 122.900

YBTL Approach/Departure (Archives)
Townsville, Queensland, Australia

Feed Status: UP
Listen in your browser - HTML5 player(in browser, HTML5)
Click here to listen with your own player(launches your MP3 player)

YBTL 181200Z AUTO 17005KT 9999 // OVC069 25/20 Q1013

YBTL Flight Activity (Flightaware)

Listeners: 0 out of 1496 total

Townsville Approach/Departure: 126.800

YBTL ATIS (Archives)
Townsville, Queensland, Australia

Feed Status: UP
Listen in your browser - HTML5 player(in browser, HTML5)
Click here to listen with your own player(launches your MP3 player)

YBTL 181200Z AUTO 17005KT 9999 // OVC069 25/20 Q1013

YBTL Flight Activity (Flightaware)

Listeners: 0 out of 1496 total

Townsville ATIS: 133.500

YBTL Brisbane Center (Archives)
Townsville, Queensland, Australia

Feed Status: UP
Listen in your browser - HTML5 player(in browser, HTML5)
Click here to listen with your own player(launches your MP3 player)

YBTL 181200Z AUTO 17005KT 9999 // OVC069 25/20 Q1013

YBTL Flight Activity (Flightaware)

Listeners: 2 out of 1496 total

Brisbane Center: 120.550

YBTL Clearance Delivery (Archives)
Townsville, Queensland, Australia

Feed Status: UP
Listen in your browser - HTML5 player(in browser, HTML5)
Click here to listen with your own player(launches your MP3 player)

YBTL 181200Z AUTO 17005KT 9999 // OVC069 25/20 Q1013

YBTL Flight Activity (Flightaware)

Listeners: 0 out of 1496 total

Townsville Clearance Delivery: 128.100

YBTL Ground (Archives)
Townsville, Queensland, Australia

Feed Status: UP
Listen in your browser - HTML5 player(in browser, HTML5)
Click here to listen with your own player(launches your MP3 player)

YBTL 181200Z AUTO 17005KT 9999 // OVC069 25/20 Q1013

YBTL Flight Activity (Flightaware)

Listeners: 0 out of 1496 total

Townsville Ground: 119.450

YBTL Tower (Archives)
Townsville, Queensland, Australia

Feed Status: UP
Listen in your browser - HTML5 player(in browser, HTML5)
Click here to listen with your own player(launches your MP3 player)

YBTL 181200Z AUTO 17005KT 9999 // OVC069 25/20 Q1013

YBTL Flight Activity (Flightaware)

Listeners: 0 out of 1496 total

Townsville Tower: 118.300

YGAW CTAF (Archives)
Gawler, South Australia, Australia

Feed Status: UP
Listen in your browser - HTML5 player(in browser, HTML5)
Click here to listen with your own player(launches your MP3 player)


YGAW Flight Activity (Flightaware)

Listeners: 0 out of 1496 total

Gawler CTAF: 126.550

YGLA CTAF (Archives)
Gladstone, Queensland, Australia

Feed Status: UP
Listen in your browser - HTML5 player(in browser, HTML5)
Click here to listen with your own player(launches your MP3 player)

YGLA 181200Z AUTO 16004KT 9999 // BKN061 OVC082 22/19 Q1017

YGLA Flight Activity (Flightaware)

Listeners: 0 out of 1496 total

Gladstone CTF/Multicom: 118.800

YGTH AWIS (Archives)
Griffith, New South Wales, Australia

Feed Status: UP
Listen in your browser - HTML5 player(in browser, HTML5)
Click here to listen with your own player(launches your MP3 player)

YGTH 181200Z AUTO 01003KT 9999 // NCD 09/05 Q1021

YGTH Flight Activity (Flightaware)

Listeners: 0 out of 1496 total

Griffith AWIS Weather: 132.950

YGTH CTAF (Archives)
Griffith, New South Wales, Australia

Feed Status: UP
Listen in your browser - HTML5 player(in browser, HTML5)
Click here to listen with your own player(launches your MP3 player)

YGTH 181200Z AUTO 01003KT 9999 // NCD 09/05 Q1021

YGTH Flight Activity (Flightaware)

Listeners: 0 out of 1496 total

Griffith CTAF: 126.550

YIVL CTAF/Center (Archives)
Inverell, New South Wales, Australia

Feed Status: UP
Listen in your browser - HTML5 player(in browser, HTML5)
Click here to listen with your own player(launches your MP3 player)

YIVL Flight Activity (Flightaware)

Listeners: 0 out of 1496 total

Brisbane Center: 132.350
Brisbane Center: 127.100
Brisbane Center: 130.900
Brisbane Center (high alt SE Inverell): 130.100
Brisbane Center (high alt): 133.000
Brisbane Center (NE Inverell): 134.200
Brisbane Center (North and East Inverell): 127.200
Brisbane Center (North Inverell high alt): 135.600
Brisbane Center (North Inverell): 121.200
Brisbane Center (SE Inverell): 125.750
Inverell CTAF: 126.700
Tamworth Tower: 119.400

YMAV Del/App (Archives)
Avalon, Victoria, Australia

Feed Status: UP
Listen in your browser - HTML5 player(in browser, HTML5)
Click here to listen with your own player(launches your MP3 player)

YMAV 181200Z AUTO 30006KT 9999 // BKN048 13/11 Q1020

YMAV Flight Activity (Flightaware)

Listeners: 0 out of 1496 total

Avalon Clearance Delivery: 120.100
Melbourne Approach/Departure: 133.550

YMIA CTAF/Melbourne Center
Mildura, Victoria, Australia

Feed Status: DOWN
Offline since: 2020-08-15 09:25:06 UTC

YMIA 181200Z AUTO 00000KT 9999 // NCD 11/05 Q1022

Melbourne Center: 121.100
Melbourne Center: 132.600
Mildura CTAF: 118.800

YMML Twr/App/Center (Archives)
Melbourne, Victoria, Australia

Feed Status: UP
Listen in your browser - HTML5 player(in browser, HTML5)
Click here to listen with your own player(launches your MP3 player)

YMML 181200Z 02003KT 9999 FEW035 BKN051 13/11 Q1020

YMML Flight Activity (Flightaware)

Listeners: 10 out of 1496 total

Air Ambulance: 132.750
DSE & Other Company: 119.100
Essendon Tower: 125.100
Inter-Pilot: 123.450
Jetstar Company: 130.925
Melbourne ACD: 127.200
Melbourne Approach: 132.000
Melbourne Centre: 130.300
Melbourne Centre: 128.500
Melbourne Centre: 126.800
Melbourne Centre: 125.800
Melbourne Centre: 125.700
Melbourne Centre: 125.200
Melbourne Centre: 123.750
Melbourne Centre: 122.400
Melbourne Departure: 118.900
Melbourne Departure: 129.400
Melbourne Tower: 120.500
Moorabbin Tower (East): 118.100
Moorabbin Tower (West): 123.000
Police Air Wing: 131.600
Qantas Company: 130.850
Qantas Company: 129.500
Rex Company: 126.450
Royal Victorian Aero Club Company: 128.700
Royal Victorian Aero Club Company: 133.400

YPAD Del/Gnd/Twr/App (Archives)
Adelaide, South Australia, Australia

Feed Status: UP
Listen in your browser - HTML5 player(in browser, HTML5)
Click here to listen with your own player(launches your MP3 player)

YPAD 181200Z 09002KT CAVOK 14/10 Q1022

YPAD Flight Activity (Flightaware)

Listeners: 2 out of 1496 total

Adelaide Approach (East of Adelaide): 118.200
Adelaide Approach (East of Adelaide): 130.450
Adelaide Approach (Kangaroo Island): 123.050
Adelaide Approach (North of Adelaide): 128.600
Adelaide Approach (West of Adelaide): 124.200
Adelaide Clearance Delivery: 126.100
Adelaide Ground: 121.700
Adelaide Tower: 120.500

YPAD Gnd/Twr/App/Center (Archives)
Adelaide, South Australia, Australia

Feed Status: UP
Listen in your browser - HTML5 player(in browser, HTML5)
Click here to listen with your own player(launches your MP3 player)

YPAD 181200Z 09002KT CAVOK 14/10 Q1022

YPAD Flight Activity (Flightaware)

Listeners: 2 out of 1496 total

Adelaide Approach (East of Adelaide): 118.200
Adelaide Approach (East of Adelaide): 130.450
Adelaide Approach (Kangaroo Island): 123.050
Adelaide Approach (North of Adelaide): 128.600
Adelaide Approach (West of Adelaide): 124.200
Adelaide Clearance Delivery: 126.100
Adelaide Ground: 121.700
Adelaide Tower: 120.500
Flight Watch: 135.750
Melbourne Centre: 124.300
Melbourne Centre ( East of Adelaide): 125.300
Melbourne Centre ( Pt Augusta, Pt Pirie, Whyalla): 123.900
Melbourne Centre (Mildura): 122.100
Melbourne Centre (North of Adelaide): 122.400
Melbourne Centre (Pt Lincoln): 125.900
Melbourne Centre (West of Adelaide ): 127.050

YPDN Gnd/Twr/App/Dep (Archives)
Darwin, Northern Territory, Australia

Feed Status: UP
Listen in your browser - HTML5 player(in browser, HTML5)
Click here to listen with your own player(launches your MP3 player)

YPDN 181200Z 16002KT CAVOK 25/19 Q1011

YPDN Flight Activity (Flightaware)

Listeners: 4 out of 1496 total

Darwin Approach: 134.100
Darwin Arrival: 125.200
Darwin Departure: 119.550
Darwin Ground: 121.800
Darwin Tower: 133.100

YPJT Gnd/Twr (Archives)
Perth, Western Australia, Australia

Feed Status: UP
Listen in your browser - HTML5 player(in browser, HTML5)
Click here to listen with your own player(launches your MP3 player)

YPJT 181200Z AUTO 19007KT 9999 // NCD 19/12 Q1021 RF00.0/000.0

YPJT Flight Activity (Flightaware)

Listeners: 0 out of 1496 total

Jandakot Ground: 124.300
Jandakot Tower: 119.400
Jandakot Tower/CTAF: 118.100

YPMQ CTAF (Archives)
Port Macquarie, New South Wales, Australia

Feed Status: UP
Listen in your browser - HTML5 player(in browser, HTML5)
Click here to listen with your own player(launches your MP3 player)

YPMQ Flight Activity (Flightaware)

Listeners: 0 out of 1496 total

Port Macquarie CTAF/Multicom: 118.100

YPPH Approach #1 (Archives)
Perth, Western Australia, Australia

Feed Status: UP
Listen in your browser - HTML5 player(in browser, HTML5)
Click here to listen with your own player(launches your MP3 player)

YPPH 181200Z 19011KT CAVOK 20/10 Q1021

YPPH Flight Activity (Flightaware)

Listeners: 0 out of 1496 total

Perth Approach: 123.600

YPPH Approach #2 (Archives)
Perth, Western Australia, Australia

Feed Status: UP
Listen in your browser - HTML5 player(in browser, HTML5)
Click here to listen with your own player(launches your MP3 player)

YPPH 181200Z 19011KT CAVOK 20/10 Q1021

YPPH Flight Activity (Flightaware)

Listeners: 0 out of 1496 total

Perth Approach: 123.600

YPPH Departure (Archives)
Perth, Western Australia, Australia

Feed Status: UP
Listen in your browser - HTML5 player(in browser, HTML5)
Click here to listen with your own player(launches your MP3 player)

YPPH 181200Z 19011KT CAVOK 20/10 Q1021

YPPH Flight Activity (Flightaware)

Listeners: 1 out of 1496 total

Perth Departure: 118.700

YPPH Ground (Archives)
Perth, Western Australia, Australia

Feed Status: UP
Listen in your browser - HTML5 player(in browser, HTML5)
Click here to listen with your own player(launches your MP3 player)

YPPH 181200Z 19011KT CAVOK 20/10 Q1021

YPPH Flight Activity (Flightaware)

Listeners: 0 out of 1496 total

Perth Ground: 121.700

YPPH Tower #1 (Archives)
Perth, Western Australia, Australia

Feed Status: UP
Listen in your browser - HTML5 player(in browser, HTML5)
Click here to listen with your own player(launches your MP3 player)

YPPH 181200Z 19011KT CAVOK 20/10 Q1021

YPPH Flight Activity (Flightaware)

Listeners: 1 out of 1496 total

Perth Tower: 127.400

YPPH Tower #2 (Archives)
Perth, Western Australia, Australia

Feed Status: UP
Listen in your browser - HTML5 player(in browser, HTML5)
Click here to listen with your own player(launches your MP3 player)

YPPH 181200Z 19011KT CAVOK 20/10 Q1021

YPPH Flight Activity (Flightaware)

Listeners: 1 out of 1496 total

Perth Tower: 127.400

YRYW 122.5 (Archives)
Raywood, Victoria, Australia

Feed Status: UP
Listen in your browser - HTML5 player(in browser, HTML5)
Click here to listen with your own player(launches your MP3 player)


YRYW Flight Activity (Flightaware)

Listeners: 0 out of 1496 total


YRYW 122.7 (Archives)
Raywood, Victoria, Australia

Feed Status: UP
Listen in your browser - HTML5 player(in browser, HTML5)
Click here to listen with your own player(launches your MP3 player)


YRYW Flight Activity (Flightaware)

Listeners: 0 out of 1496 total


YRYW 122.9 (Archives)
Raywood, Victoria, Australia

Feed Status: UP
Listen in your browser - HTML5 player(in browser, HTML5)
Click here to listen with your own player(launches your MP3 player)


YRYW Flight Activity (Flightaware)

Listeners: 0 out of 1496 total


YRYW CTAF (Archives)
Raywood, Victoria, Australia

Feed Status: UP
Listen in your browser - HTML5 player(in browser, HTML5)
Click here to listen with your own player(launches your MP3 player)


YRYW Flight Activity (Flightaware)

Listeners: 0 out of 1496 total

Raywood CTAF: 119.300

YSBK ATIS (Archives)
Bankstown, New South Wales, Australia

Feed Status: UP
Listen in your browser - HTML5 player(in browser, HTML5)
Click here to listen with your own player(launches your MP3 player)

YSBK Flight Activity (Flightaware)

Listeners: 0 out of 1496 total

Bankstown ATIS: 120.900

YSBK Tower (Archives)
Bankstown, New South Wales, Australia

Feed Status: UP
Listen in your browser - HTML5 player(in browser, HTML5)
Click here to listen with your own player(launches your MP3 player)

YSBK Flight Activity (Flightaware)

Listeners: 0 out of 1496 total

Bankstown Tower: 132.800

YSCN Tower/CTAF (Archives)
Camden, New South Wales, Australia

Feed Status: UP
Listen in your browser - HTML5 player(in browser, HTML5)
Click here to listen with your own player(launches your MP3 player)

YSCN Flight Activity (Flightaware)

Listeners: 0 out of 1496 total

Camden Tower/CTAF: 120.100

YSNW Gnd/CTAF/App/Center (Archives)
Nowra, New South Wales, Australia

Feed Status: UP
Listen in your browser - HTML5 player(in browser, HTML5)
Click here to listen with your own player(launches your MP3 player)

YSNW 181200Z AUTO 26005KT 9999 // SCT034 11/10 Q1019

YSNW Flight Activity (Flightaware)

Listeners: 0 out of 1496 total

Enroute: 132.300
Nowra Approach: 123.500
Nowra CTAF: 118.850
Nowra Ground: 135.850

YSSY Approach (North/East) (Archives)
Sydney, New South Wales, Australia

Feed Status: UP
Listen in your browser - HTML5 player(in browser, HTML5)
Click here to listen with your own player(launches your MP3 player)

YSSY 181200Z 25005KT CAVOK 16/12 Q1019

YSSY Flight Activity (Flightaware)

Listeners: 1 out of 1496 total

Sydney Approach (North/East): 124.400

YSSY Approach (South) (Archives)
Sydney, New South Wales, Australia

Feed Status: UP
Listen in your browser - HTML5 player(in browser, HTML5)
Click here to listen with your own player(launches your MP3 player)

YSSY 181200Z 25005KT CAVOK 16/12 Q1019

YSSY Flight Activity (Flightaware)

Listeners: 0 out of 1496 total

Sydney Approach (South/West): 128.300

YSSY ATIS (Archives)
Sydney, New South Wales, Australia

Feed Status: UP
Listen in your browser - HTML5 player(in browser, HTML5)
Click here to listen with your own player(launches your MP3 player)

YSSY 181200Z 25005KT CAVOK 16/12 Q1019

YSSY Flight Activity (Flightaware)

Listeners: 0 out of 1496 total

Sydney ATIS: 118.550

YSSY Center (South/West) (Archives)
Sydney, New South Wales, Australia

Feed Status: UP
Listen in your browser - HTML5 player(in browser, HTML5)
Click here to listen with your own player(launches your MP3 player)

YSSY 181200Z 25005KT CAVOK 16/12 Q1019

YSSY Flight Activity (Flightaware)

Listeners: 1 out of 1496 total

Sydney Center: 124.550

YSSY Del/Gnd (Archives)
Sydney, New South Wales, Australia

Feed Status: UP
Listen in your browser - HTML5 player(in browser, HTML5)
Click here to listen with your own player(launches your MP3 player)

YSSY 181200Z 25005KT CAVOK 16/12 Q1019

YSSY Flight Activity (Flightaware)

Listeners: 6 out of 1496 total

Sydney Clearance Delivery: 133.800
Sydney Ground (East of Rwys 16R/34L): 121.700
Sydney Ground (West of Rwys 16R/34L): 126.500

YSSY Departure (North/East) (Archives)
Sydney, New South Wales, Australia

Feed Status: UP
Listen in your browser - HTML5 player(in browser, HTML5)
Click here to listen with your own player(launches your MP3 player)

YSSY 181200Z 25005KT CAVOK 16/12 Q1019

YSSY Flight Activity (Flightaware)

Listeners: 0 out of 1496 total

Sydney Departure (North/East): 123.000

YSSY Departure (South/West) (Archives)
Sydney, New South Wales, Australia

Feed Status: UP
Listen in your browser - HTML5 player(in browser, HTML5)
Click here to listen with your own player(launches your MP3 player)

YSSY 181200Z 25005KT CAVOK 16/12 Q1019

YSSY Flight Activity (Flightaware)

Listeners: 0 out of 1496 total

Sydney Departure (Rte S, W and NW): 129.700

YSSY Director (Both)
Sydney, New South Wales, Australia

Feed Status: DOWN
Offline since: 2020-04-14 09:59:06 UTC

YSSY 181200Z 25005KT CAVOK 16/12 Q1019

Sydney Director (East): 125.300
Sydney Director (West): 126.100

YSSY Director (East) (Archives)
Sydney, New South Wales, Australia

Feed Status: UP
Listen in your browser - HTML5 player(in browser, HTML5)
Click here to listen with your own player(launches your MP3 player)

YSSY 181200Z 25005KT CAVOK 16/12 Q1019

YSSY Flight Activity (Flightaware)

Listeners: 0 out of 1496 total

Sydney Director (East): 125.300

YSSY Tower (Both) (Archives)
Sydney, New South Wales, Australia

Feed Status: UP
Listen in your browser - HTML5 player(in browser, HTML5)
Click here to listen with your own player(launches your MP3 player)

YSSY 181200Z 25005KT CAVOK 16/12 Q1019

YSSY Flight Activity (Flightaware)

Listeners: 2 out of 1496 total

Sydney Tower (Rwy 16L/34R): 124.700
Sydney Tower (Rwy 16R/34L, Rwy 07/25): 120.500

YSSY Tower (Rwy 16L/34R) (Archives)
Sydney, New South Wales, Australia

Feed Status: UP
Listen in your browser - HTML5 player(in browser, HTML5)
Click here to listen with your own player(launches your MP3 player)

YSSY 181200Z 25005KT CAVOK 16/12 Q1019

YSSY Flight Activity (Flightaware)

Listeners: 0 out of 1496 total

Sydney Tower (Rwy 16L/34R): 124.700

YSSY Tower (Rwys 16R/34L,7/25) (Archives)
Sydney, New South Wales, Australia

Feed Status: UP
Listen in your browser - HTML5 player(in browser, HTML5)
Click here to listen with your own player(launches your MP3 player)

YSSY 181200Z 25005KT CAVOK 16/12 Q1019

YSSY Flight Activity (Flightaware)

Listeners: 0 out of 1496 total

Sydney Tower (Rwy 16R/34L, Rwy 07/25): 120.500

YSSY/YMMB/YBBN Centers (Archives)
Sydney, New South Wales, Australia

Feed Status: UP
Listen in your browser - HTML5 player(in browser, HTML5)
Click here to listen with your own player(launches your MP3 player)


Listeners: 2 out of 1496 total

Brisbane Center: 123.400
Brisbane Center: 128.600
Melbourne Center: 133.500
Melbourne Center: 118.500
Sydney Departures: 118.400

YWBN CTAF/Center (Archives)
Wedderburn, New South Wales, Australia

Feed Status: UP
Listen in your browser - HTML5 player(in browser, HTML5)
Click here to listen with your own player(launches your MP3 player)

YWBN Flight Activity (Flightaware)

Listeners: 0 out of 1496 total

Sydney Center: 124.550
Wedderburn CTAF/Multicom: 122.550

ZBAA Tower (Archives)
Beijing, China

Feed Status: UP
Listen in your browser - HTML5 player(in browser, HTML5)
Click here to listen with your own player(launches your MP3 player)

ZBAA 181200Z 18003MPS 140V210 CAVOK 20/M01 Q1011 NOSIG


Listeners: 13 out of 1496 total

Beijing Tower (Rwy 01/19): 118.600

ZYCY Tower
Chaoyang, China

Feed Status: DOWN
Offline since: 2020-07-23 03:04:23 UTC


Chaoyang Tower: 118.350